GFSSE_con_sbcape_000.txt.gz
CAPE
13 60 1961 1492 1124 675 290 28 0 0 0 0 6 48 66 59 42 34 16 0 4 0 0 0 4 14 65 92 72 43 28 4 0 0 0 0 0 1 17 14 0 2 4
25 97 2044 1894 1212 724 215 50 11 0 6 1 14 40 37 7 24 31 50 23 0 0 0 0 0 0 2 14 20 16 21 26 0 0 0 0 0 0 7 9 34 0 10
76 239 1634 2032 1407 820 300 72 25 0 16 0 4 21 17 14 40 50 47 30 15 0 0 0 0 0 0 0 0 0 2 4 3 1 2 0 0 0 0 17 24 14 9
392 1027 1642 2037 1391 895 467 138 43 1 0 0 0 11 34 23 50 45 50 8 0 0 0 0 0 0 0 0 0 0 0 0 4 8 0 0 0 0 0 17 32 21 10
1153 1370 1514 2251 1664 1314 670 223 101 29 0 0 6 13 24 35 59 43 0 2 0 0 0 0 0 0 0 0 2 4 2 0 0 0 0 0 0 0 0 11 37 28 22
1116 1201 1654 2005 1794 1838 1151 422 179 65 2 0 0 11 27 39 48 55 41 78 54 0 0 0 0 0 0 0 3 12 42 18 8 0 0 0 0 0 0 1 13 9 29
931 1148 1732 2145 1930 1808 1141 650 229 91 17 0 0 0 22 49 60 141 103 64 21 4 0 0 0 5 5 14 7 7 31 113 2 0 0 0 0 0 0 0 2 12 13
898 1258 1800 2030 2176 1918 1429 938 490 124 54 0 0 0 16 37 66 194 193 136 68 8 42 13 30 37 27 14 33 49 72 98 5 0 0 0 0 3 28 25 5 8 7
864 1445 1789 1885 1974 1801 1410 1039 759 346 185 23 52 36 34 42 10 60 220 181 137 137 71 85 82 51 67 100 115 138 238 148 19 0 0 0 0 35 133 136 172 102 43
1004 1396 1495 1580 1522 1261 1012 986 794 589 438 275 164 56 70 43 33 29 191 204 153 100 138 135 150 189 211 221 220 197 166 49 0 0 0 0 2 183 340 360 419 393 355
1224 1297 1545 1433 1227 926 786 810 842 662 384 288 89 58 13 0 0 0 2 19 50 144 148 167 271 261 63 8 17 2 0 0 0 0 0 0 10 163 168 176 300 420 373
1065 1183 1253 902 853 806 986 646 468 455 274 158 36 2 0 0 0 0 0 1 54 68 33 71 29 0 0 0 0 0 0 0 0 0 0 0 0 0 0 0 19 179 90
985 1092 1040 852 688 643 673 335 202 202 150 50 2 0 0 0 0 0 0 0 0 0 0 0 0 0 0 0 0 0 0 0 0 0 0 0 0 0 0 0 0 0 158
399 863 978 717 601 524 332 236 170 81 50 7 0 0 0 0 0 0 0 0 0 0 0 0 0 0 0 0 0 0 0 0 0 0 0 0 0 0 0 0 18 20 0
28 170 551 585 516 429 285 142 85 25 18 2 0 0 0 0 0 0 0 0 0 0 0 0 0 0 0 0 0 0 0 0 0 0 0 0 0 0 0 0 0 0 0
0 0 189 479 433 288 221 99 52 9 0 0 0 0 0 0 0 0 0 0 0 0 0 0 0 0 0 0 0 0 0 0 0 0 0 0 0 0 0 0 0 0 0
0 0 84 324 335 293 208 96 14 0 0 0 0 0 0 0 0 0 0 0 0 0 0 0 0 0 0 0 0 0 0 0 0 0 0 0 0 0 0 0 0 0 0
0 0 18 313 275 151 56 0 0 0 0 0 0 0 0 0 0 0 0 0 0 0 0 0 0 0 0 0 0 0 0 0 0 0 0 0 0 0 0 0 0 0 0
0 0 97 220 152 70 0 0 0 0 0 0 0 0 0 0 0 0 0 0 0 0 0 0 0 0 0 0 0 0 0 0 0 0 0 0 0 0 0 0 0 0 0
0 2 200 226 36 0 0 0 0 0 0 0 0 0 0 0 0 0 0 0 0 0 0 0 0 0 0 0 0 0 0 0 0 0 0 0 0 0 0 0 0 0 0
0 33 249 5 0 0 0 0 0 0 0 0 0 0 0 0 0 0 0 0 0 0 0 0 0 0 0 0 0 0 0 0 0 0 0 0 0 0 0 0 0 0 0
0 13 16 0 0 0 0 0 0 0 0 0 0 0 0 0 0 0 0 0 0 0 0 0 0 0 0 0 0 0 0 0 0 0 0 0 0 0 0 0 0 0 0
0 0 0 0 0 0 0 0 0 0 0 0 0 0 0 0 0 0 0 0 0 0 0 0 0 0 0 0 0 0 0 0 0 0 0 0 0 0 0 0 0 0 0
0 0 0 0 0 0 0 0 0 0 0 0 0 0 0 0 0 0 0 0 0 0 0 0 0 0 0 0 0 0 0 0 0 0 0 0 0 0 0 0 0 0 0
0 0 0 0 0 0 0 0 0 0 0 0 0 0 0 0 0 0 0 0 0 0 0 0 0 0 0 0 0 0 0 0 0 0 0 0 0 0 0 0 0 0 0
0 0 0 0 0 0 0 0 0 0 0 0 0 0 0 0 0 0 0 0 0 0 0 0 0 0 0 0 0 0 0 0 0 0 0 0 0 0 0 0 0 0 0

GFSSE_con_sbcape_003.txt.gz
CAPE
71 304 1777 1578 1143 814 332 75 25 2 0 0 2 59 74 101 81 51 34 27 9 0 0 0 0 6 57 72 73 82 33 15 2 0 0 0 0 0 1 24 16 7 12
114 420 2418 1877 1252 984 312 77 34 24 0 0 48 44 27 44 59 67 65 34 1 0 0 0 0 0 2 13 24 31 25 26 0 0 0 0 0 0 0 17 68 7 8
228 799 1827 2175 1689 1019 434 170 74 62 0 0 45 27 6 11 35 82 63 21 0 0 0 0 0 0 0 0 0 0 0 0 0 0 0 0 0 0 3 0 42 11 0
482 1030 1617 2293 1801 1233 693 324 89 46 42 0 0 14 20 13 58 68 47 22 0 0 0 0 0 0 1 0 0 0 0 0 0 0 0 0 0 0 0 36 8 20 7
668 1245 1843 2183 1911 1548 850 518 148 66 4 0 6 18 24 34 61 38 3 0 0 0 0 0 0 0 3 7 16 17 22 5 0 0 0 0 0 0 0 0 10 61 16
1241 1740 2071 2242 2059 1861 1309 681 418 120 22 0 0 23 30 40 49 56 48 106 25 0 0 0 0 1 3 6 4 5 11 29 8 0 0 0 0 0 0 0 0 0 11
1481 1984 1874 2394 2135 2131 1485 1022 638 218 89 0 0 13 25 58 96 86 93 51 28 0 0 0 17 27 22 20 15 10 1 21 0 0 0 0 0 6 45 29 5 7 16
1382 1994 1832 2003 2363 2142 1734 1329 808 269 144 41 0 4 19 76 79 149 190 127 97 19 102 27 63 86 57 59 67 61 56 53 1 0 0 0 0 14 93 97 104 77 44
1722 1939 1777 1522 1888 1836 1650 1277 1061 545 257 100 36 49 84 106 39 109 261 209 199 211 138 134 160 147 161 166 157 149 103 54 18 3 0 0 0 51 138 163 218 340 313
1590 1882 1815 1796 1828 1782 1609 1164 985 735 562 400 228 151 114 64 45 17 37 165 193 170 217 206 230 222 143 66 59 9 0 0 0 0 0 0 0 118 199 282 367 430 477
1369 1549 1307 1676 1782 1713 1502 923 850 714 515 353 137 68 9 0 0 1 0 31 106 222 224 182 78 0 0 0 0 0 0 0 0 0 0 0 0 60 89 76 44 154 380
1084 1055 1047 1470 1364 1546 1290 1026 855 682 505 245 128 80 1 0 0 0 0 1 48 13 5 0 0 0 0 0 0 0 0 0 0 0 0 0 0 0 0 0 0 9 68
1195 1143 1050 1151 1029 1329 1288 1041 823 774 472 294 137 53 2 0 0 0 0 3 2 0 0 0 0 0 0 0 0 0 0 0 0 0 0 0 0 0 0 0 20 96 2
904 1201 1151 1134 1042 989 1061 1008 695 651 503 339 185 47 36 0 0 5 13 0 0 0 0 0 0 0 0 0 0 0 0 0 0 0 0 0 0 0 12 2 0 0 0
306 1060 1287 1231 1026 791 1102 935 653 458 443 329 180 71 54 1 13 0 0 0 0 0 0 0 0 0 0 0 0 0 0 0 0 0 0 0 0 0 0 0 0 0 3
90 217 932 1315 872 685 864 751 659 307 251 208 157 113 47 0 0 0 0 0 0 0 0 0 0 0 0 0 0 0 0 0 0 0 0 0 0 0 0 0 0 0 0
0 0 130 862 1174 1075 960 684 407 281 161 111 60 9 0 0 0 0 0 0 0 0 0 0 0 0 0 0 0 0 0 0 0 0 0 0 0 0 0 0 0 0 0
0 0 0 319 876 1005 793 454 251 108 0 0 0 0 0 0 0 0 0 0 0 0 0 0 0 0 0 0 0 0 0 0 0 0 0 0 0 0 0 0 0 0 0
0 0 0 386 686 712 223 85 1 0 0 0 0 0 0 0 0 0 0 0 0 0 0 0 0 0 0 0 0 0 0 0 0 0 0 0 0 0 0 0 0 0 0
0 0 37 437 455 75 0 0 0 0 0 0 0 0 0 0 0 0 0 0 0 0 0 0 0 0 0 0 0 0 0 0 0 0 0 0 0 0 0 0 0 0 0
0 0 261 324 28 0 0 0 0 0 0 0 0 0 0 0 0 0 0 0 0 0 0 0 0 0 0 0 0 0 0 0 0 0 0 0 0 0 0 0 0 0 0
0 55 348 179 0 0 0 0 0 0 0 0 0 0 0 0 0 0 0 0 0 0 0 0 0 0 0 0 0 0 0 0 0 0 0 0 0 0 0 0 0 0 0
0 97 266 0 0 0 0 0 0 0 0 0 0 0 0 0 0 0 0 0 0 0 0 0 0 0 0 0 0 0 0 0 0 0 0 0 0 0 0 0 0 0 0
0 40 3 0 0 0 0 0 0 0 0 0 0 0 0 0 0 0 0 0 0 0 0 0 0 0 0 0 0 0 0 0 0 0 0 0 0 0 0 0 0 0 0
0 0 0 0 0 0 0 0 0 0 0 0 0 0 0 0 0 0 0 0 0 0 0 0 0 0 0 0 0 0 0 0 0 0 0 0 0 0 0 0 0 0 0
0 0 0 0 0 0 0 0 0 0 0 0 0 0 0 0 0 0 0 0 0 0 0 0 0 0 0 0 0 0 0 0 0 0 0 0 0 0 0 0 0 0 0

GFSSE_con_sbcape_006.txt.gz
CAPE
136 1174 2070 1390 983 650 293 70 45 2 0 0 4 50 109 91 67 50 40 33 1 0 0 0 0 16 55 60 65 41 24 19 0 0 0 0 0 0 0 5 95 23 3
326 1135 2168 1712 1035 728 282 86 54 17 0 0 63 41 35 65 71 66 55 18 2 0 0 0 1 0 6 11 15 21 25 18 0 0 0 0 0 0 0 18 14 86 0
526 1199 1395 1931 1586 909 350 135 93 34 0 37 19 5 0 6 38 59 36 0 0 0 0 0 0 0 0 0 0 0 0 0 0 0 0 0 0 0 0 1 10 2 0
678 1409 1469 2243 1684 923 504 260 122 81 0 0 8 4 0 17 36 54 10 0 0 0 0 0 0 5 6 5 5 1 0 0 0 0 0 0 0 0 0 0 9 46 2
898 1570 1738 2262 1760 1181 639 417 119 78 10 0 0 6 22 12 37 48 0 0 0 0 0 0 0 1 3 4 10 22 30 13 0 0 0 0 0 0 0 0 16 52 92
910 1572 2217 2051 1935 1476 1148 563 254 72 4 0 5 11 22 33 40 18 0 0 2 0 0 0 0 9 12 11 10 3 8 15 0 2 0 0 0 0 1 1 0 0 34
1008 1620 2183 2211 2180 1790 1373 946 563 124 33 0 3 7 14 43 95 81 35 14 3 0 0 0 25 65 48 18 33 43 27 1 0 3 1 0 2 0 27 30 57 37 33
1311 1609 2060 2049 2230 1912 1627 1378 789 275 92 11 7 3 17 59 91 80 104 40 29 2 83 22 95 111 119 140 136 111 54 22 12 26 15 9 0 4 92 137 216 229 180
1435 1617 1727 1750 1385 1754 1670 1336 973 423 264 50 2 25 140 71 34 124 143 159 129 168 98 137 165 180 180 161 108 32 3 1 0 5 0 1 0 39 147 182 295 404 511
1383 1456 1436 1438 1058 1449 1328 1042 990 781 580 338 204 192 103 44 8 0 56 83 108 121 175 187 147 26 4 0 0 0 0 0 0 0 0 0 0 72 152 164 196 200 268
1359 1472 1396 1397 1371 1556 1565 798 795 667 539 386 145 49 2 0 0 0 0 15 98 142 58 13 0 0 0 0 0 0 0 0 0 0 0 0 0 0 0 0 0 1 17
1415 1479 1458 1642 1562 1505 1460 941 669 288 438 244 125 70 0 0 0 0 0 2 7 4 0 0 0 0 0 0 0 0 0 0 0 0 0 0 0 0 0 0 0 27 60
1305 1542 1527 1809 1812 1526 1517 1250 815 426 390 372 209 74 0 0 0 0 27 63 151 0 0 0 0 0 0 0 0 0 0 0 0 0 0 0 0 0 3 21 1 0 0
1281 1511 1538 1517 1593 1439 1589 1230 860 627 498 419 293 109 22 1 41 60 151 19 0 0 0 0 0 0 0 0 0 0 0 0 0 0 0 0 0 0 0 0 0 0 0
846 1302 1570 1637 1664 1469 1704 1346 975 682 593 511 347 99 102 163 228 1 0 0 0 0 0 0 0 0 0 0 0 0 0 0 0 0 0 0 0 0 0 0 0 0 0
473 848 1337 1628 1620 1480 1603 1512 1172 782 619 652 361 191 288 265 72 0 0 0 0 0 0 0 0 0 0 0 0 0 0 0 0 0 0 0 0 0 0 0 0 0 0
44 242 680 1373 1620 1312 1461 1565 1277 889 738 625 405 390 394 4 0 0 0 0 0 0 0 0 0 0 0 0 0 0 0 0 0 0 0 0 0 0 0 0 0 0 0
0 0 0 333 1342 1233 1859 1621 1339 941 821 639 522 403 0 0 0 0 0 0 0 0 0 0 0 0 0 0 0 0 0 0 0 0 0 0 0 0 0 0 0 0 0
0 0 0 5 466 1243 1590 1426 1256 981 722 99 0 0 0 0 0 0 0 0 0 0 0 0 0 0 0 0 0 0 0 0 0 0 0 0 0 0 0 0 0 0 0
0 0 0 45 425 925 1187 914 712 216 0 0 0 0 0 0 0 0 0 0 0 0 0 0 0 0 0 0 0 0 0 0 0 0 0 0 0 0 0 0 0 0 0
0 0 0 199 759 826 615 37 0 0 0 0 0 0 0 0 0 0 0 0 0 0 0 0 0 0 0 0 0 0 0 0 0 0 0 0 0 0 0 0 0 0 0
0 32 156 527 685 691 116 155 30 0 0 0 0 0 0 0 0 0 0 0 0 0 0 0 0 0 0 0 0 0 0 0 0 0 0 0 0 0 0 0 0 0 0
0 43 372 677 624 446 60 67 0 0 0 0 0 0 0 0 0 0 0 0 0 0 0 0 0 0 0 0 0 0 0 0 0 0 0 0 0 0 0 0 0 0 0
0 23 488 626 440 192 0 0 0 0 0 0 0 0 0 0 0 0 0 0 0 0 0 0 0 0 0 0 0 0 0 0 0 0 0 0 0 0 0 0 0 0 0
0 55 593 270 257 28 0 0 0 0 0 0 0 0 0 0 0 0 0 0 0 0 0 0 0 0 0 0 0 0 0 0 0 0 0 0 0 0 0 0 0 0 0
0 81 208 187 142 0 0 0 0 0 0 0 0 0 0 0 0 0 0 0 0 0 0 0 0 0 0 0 0 0 0 0 0 0 0 0 0 0 0 0 0 0 0

GFSSE_con_sbcape_009.txt.gz
CAPE
383 1190 1922 1454 817 494 193 35 5 0 0 0 10 42 94 80 41 38 36 4 0 0 0 0 3 21 48 62 69 58 48 32 0 0 0 0 0 0 0 4 66 26 33
633 1441 1976 1554 841 567 180 51 0 0 0 3 34 43 62 57 64 54 27 20 0 0 0 1 0 0 3 1 4 10 23 20 0 0 0 0 0 0 5 7 14 47 0
1011 1115 1098 1727 1394 838 267 102 28 0 11 22 0 0 0 2 29 27 6 0 0 0 0 2 1 0 0 0 0 0 0 0 0 0 0 0 0 0 0 0 3 6 0
1001 1122 1056 1875 1502 963 395 227 85 0 19 8 2 0 0 7 35 29 0 0 0 0 0 0 0 1 2 1 0 4 4 0 0 0 0 0 0 0 0 0 2 8 13
980 1294 1268 2100 1589 1108 633 284 177 39 0 0 0 0 0 17 35 0 0 0 0 0 0 0 0 0 0 0 0 1 18 18 0 1 1 0 0 0 0 0 0 5 44
1016 1429 1640 1987 1700 1320 1067 387 153 59 5 0 0 5 13 12 21 5 0 0 0 0 0 0 7 14 13 1 8 8 0 0 0 3 0 2 0 0 0 7 3 0 0
1002 1942 1736 2087 1806 1465 1277 918 406 84 30 18 0 0 24 64 68 54 15 13 0 0 0 0 22 81 38 47 79 53 13 0 0 9 5 5 11 0 18 32 21 69 65
1065 1746 1827 1936 1823 1614 1428 1230 730 135 62 17 29 4 91 45 107 70 75 22 8 50 1 29 102 121 134 141 116 73 26 11 0 5 4 2 1 8 58 58 161 195 194
1065 1417 2050 1784 1502 1567 1483 1328 897 445 170 34 31 26 150 39 82 115 97 100 92 62 67 138 144 115 67 31 3 0 0 0 0 0 0 0 0 7 68 89 157 211 221
1111 1264 1727 1903 1617 1243 1157 1077 823 760 522 217 218 282 117 54 2 183 280 119 69 93 127 45 0 0 0 0 0 0 0 0 0 0 0 0 0 0 7 20 18 15 27
1164 1272 1273 1338 1119 1569 1389 780 742 776 486 435 205 74 0 3 0 5 2 46 104 42 13 0 0 0 0 0 0 0 0 0 0 0 0 0 0 0 0 0 0 2 48
1166 1234 1240 1247 1149 1531 1459 906 637 322 394 107 69 28 0 0 0 13 0 31 9 0 0 0 0 0 0 0 0 0 0 0 0 0 0 0 0 0 0 22 13 0 23
1111 1318 1356 1472 1334 1240 1450 1182 858 445 475 333 137 55 0 0 0 0 8 2 8 0 0 0 0 0 0 0 0 0 0 0 0 0 0 0 0 17 23 9 0 9 4
978 1288 1575 1564 1654 1531 1408 1422 800 612 528 405 208 54 0 0 10 0 74 119 0 0 0 0 0 0 0 0 0 0 0 0 0 0 0 0 0 0 0 0 5 0 0
620 1117 1509 1635 1734 1657 1528 1078 955 791 495 433 344 113 0 0 77 63 0 0 0 0 0 0 0 0 0 0 0 0 0 0 0 0 0 0 0 0 0 0 0 0 0
308 794 1265 1577 1806 1552 1608 1373 1050 939 570 502 511 146 55 129 166 0 0 0 0 0 0 0 0 0 0 0 0 0 0 0 0 0 0 0 0 0 0 0 0 0 0
49 335 790 1304 1602 1547 1534 1693 1149 1119 680 621 422 155 219 305 0 0 0 0 0 0 0 0 0 0 0 0 0 0 0 0 0 0 0 0 0 0 0 0 0 0 0
0 18 326 775 1340 1628 1530 1793 1520 1038 767 794 453 322 497 11 0 0 0 0 0 0 0 0 0 0 0 0 0 0 0 0 0 0 0 0 0 0 0 0 0 0 0
0 0 0 87 797 1516 1408 1892 1542 984 745 844 706 772 72 0 0 0 0 0 0 0 0 0 0 0 0 0 0 0 0 0 0 0 0 0 0 0 0 0 0 0 0
0 0 0 0 78 956 1678 1890 1512 1191 876 627 258 0 0 0 0 0 0 0 0 0 0 0 0 0 0 0 0 0 0 0 0 0 0 0 0 0 0 0 0 0 0
0 0 0 1 75 511 1572 1544 1236 878 496 54 0 0 0 0 0 0 0 0 0 0 0 0 0 0 0 0 0 0 0 0 0 0 0 0 0 0 0 0 0 0 0
0 0 0 6 122 732 1625 1274 617 90 0 0 0 0 0 0 0 0 0 0 0 0 0 0 0 0 0 0 0 0 0 0 0 0 0 0 0 0 0 0 0 0 0
0 0 0 57 460 1134 986 376 111 0 0 0 0 0 0 0 0 0 0 0 0 0 0 0 0 0 0 0 0 0 0 0 0 0 0 0 0 0 0 0 0 0 0
0 0 0 187 736 960 478 462 90 0 0 0 0 0 0 0 0 0 0 0 0 0 0 0 0 0 0 0 0 0 0 0 0 0 0 0 0 0 0 0 0 0 0
0 0 17 230 736 692 346 285 83 0 0 0 0 0 0 0 0 0 0 0 0 0 0 0 0 0 0 0 0 0 0 0 0 0 0 0 0 0 0 0 0 0 0
0 0 39 351 629 597 119 37 0 4 0 0 0 0 0 0 0 0 0 0 0 0 0 0 0 0 0 0 0 0 0 0 0 0 0 0 0 0 0 0 0 0 0

GFSSE_con_sbcape_012.txt.gz
CAPE
841 1368 1848 1311 759 437 172 74 0 0 0 11 77 98 86 47 38 38 2 0 0 0 0 4 13 36 43 60 72 75 42 32 2 0 0 0 0 0 2 9 22 17 16
933 1198 1870 1371 704 397 144 49 0 0 1 18 73 141 84 58 59 39 21 0 0 0 1 5 1 1 3 7 2 2 11 0 0 0 0 0 0 0 2 8 0 12 10
1051 1107 1367 1380 1166 595 176 64 4 0 60 11 0 24 26 61 29 0 0 0 0 0 3 5 3 3 1 0 0 0 0 0 0 0 0 0 0 0 0 0 0 8 0
1099 895 840 1611 1277 512 266 94 4 71 7 23 0 0 13 39 8 0 0 0 0 0 0 0 0 0 0 0 0 0 2 0 0 0 0 0 0 0 0 0 0 5 24
959 797 1065 1652 1318 723 378 223 11 0 38 5 17 0 13 33 9 0 0 0 0 0 0 0 0 0 0 0 0 0 0 0 0 1 0 0 0 0 0 0 0 0 0
995 1035 1589 1614 1444 1103 749 342 151 0 0 0 6 0 8 1 7 0 2 0 0 0 0 4 16 7 0 0 8 0 0 0 0 0 0 0 0 0 0 1 2 2 1
1126 1094 1478 1813 1594 1364 1000 697 189 27 4 16 12 19 76 63 40 0 3 0 0 0 1 11 32 22 21 47 31 4 0 0 0 0 2 0 3 7 18 11 13 74 93
1449 1274 1395 1713 1627 1438 1270 988 609 146 42 30 22 34 83 79 108 87 28 0 0 7 0 57 77 89 68 37 11 0 0 0 0 0 0 0 0 0 25 21 84 189 187
1694 1523 1279 1198 1183 1330 1217 1040 809 462 135 80 129 156 94 98 346 237 89 66 89 1 84 81 37 17 2 0 0 0 0 0 0 0 0 0 0 0 2 22 25 24 32
1007 1639 1406 1231 1048 948 985 1007 810 657 390 261 265 413 91 36 410 445 378 203 48 88 43 0 0 0 0 0 0 0 0 0 0 0 0 0 0 0 0 0 0 2 14
956 1515 1635 1500 1175 1019 887 771 753 745 427 335 372 136 43 0 0 104 22 106 81 41 0 0 0 0 0 0 0 0 0 0 0 0 0 0 0 0 0 15 32 31 89
903 995 1434 1701 1345 1216 1105 547 389 414 173 115 82 17 0 0 0 0 2 35 56 0 0 0 0 0 0 0 0 0 0 0 0 0 0 0 0 2 29 13 10 35 22
865 937 924 955 1139 1437 1113 556 451 336 201 54 33 7 0 0 0 0 0 0 0 0 0 0 0 0 0 0 0 0 0 0 0 0 0 0 0 17 13 19 10 1 8
825 986 1075 1110 1149 1420 1211 912 766 320 255 162 66 10 0 0 0 0 0 4 0 0 0 0 0 0 0 0 0 0 0 0 0 0 0 0 0 0 1 3 0 0 0
658 972 1227 1143 1362 1093 1280 1014 593 335 317 171 116 3 0 1 0 0 0 0 0 0 0 0 0 0 0 0 0 0 0 0 0 0 0 0 0 0 0 0 0 0 0
65 817 1280 1290 1403 1483 1265 1076 721 477 374 352 244 37 0 3 3 0 0 0 0 0 0 0 0 0 0 0 0 0 0 0 0 0 0 0 0 0 0 0 0 0 0
0 349 933 1338 1495 1460 1251 935 897 660 572 392 349 79 4 1 0 0 0 0 0 0 0 0 0 0 0 0 0 0 0 0 0 0 0 0 0 0 0 0 0 0 0
0 0 490 1198 1535 1411 1274 1285 1024 847 577 434 443 75 99 0 0 0 0 0 0 0 0 0 0 0 0 0 0 0 0 0 0 0 0 0 0 0 0 0 0 0 0
0 0 24 694 1280 1402 1297 1326 1489 1022 673 646 357 334 15 0 0 0 0 0 0 0 0 0 0 0 0 0 0 0 0 0 0 0 0 0 0 0 0 0 0 0 0
0 0 0 44 701 1426 1156 1269 1472 705 678 698 367 113 0 0 0 0 0 0 0 0 0 0 0 0 0 0 0 0 0 0 0 0 0 0 0 0 0 0 0 0 0
0 0 0 0 36 1249 1273 1329 1459 736 388 186 0 0 0 0 0 0 0 0 0 0 0 0 0 0 0 0 0 0 0 0 0 0 0 0 0 0 0 0 0 0 0
0 0 0 0 0 21 1339 1354 1335 692 58 0 0 0 0 0 0 0 0 0 0 0 0 0 0 0 0 0 0 0 0 0 0 0 0 0 0 0 0 0 0 0 0
0 0 0 0 0 0 1254 1076 6 0 0 0 0 0 0 0 0 0 0 0 0 0 0 0 0 0 0 0 0 0 0 0 0 0 0 0 0 0 0 0 0 0 0
0 0 0 0 0 299 842 70 0 0 0 0 0 0 0 0 0 0 0 0 0 0 0 0 0 0 0 0 0 0 0 0 0 0 0 0 0 0 0 0 0 0 0
0 0 0 0 18 703 422 139 0 0 0 0 0 0 0 0 0 0 0 0 0 0 0 0 0 0 0 0 0 0 0 0 0 0 0 0 0 0 0 0 0 0 0
0 0 0 0 305 550 227 215 0 0 0 0 0 0 0 0 0 0 0 0 0 0 0 0 0 0 0 0 0 0 0 0 0 0 0 0 0 0 0 0 0 0 0

GFSSE_con_sbcape_015.txt.gz
CAPE
725 1163 1900 1150 665 406 224 84 9 0 117 207 195 190 117 62 27 3 0 0 0 2 3 14 17 49 63 72 62 55 31 6 0 0 0 0 0 0 1 5 24 25 22
853 1258 1705 1306 620 349 121 52 0 0 166 24 107 91 60 53 19 2 1 0 1 1 5 11 8 19 23 11 6 0 0 0 0 0 0 0 0 0 0 0 6 1 2
1127 1232 1075 1309 943 396 125 43 7 32 162 141 229 150 92 24 5 0 0 0 1 5 10 7 2 0 0 0 0 0 0 0 0 0 0 0 0 0 0 0 0 1 0
1110 1137 885 1344 955 349 161 45 194 112 0 15 15 24 32 3 0 0 0 0 0 1 0 0 0 0 0 0 0 0 0 0 0 1 0 0 0 0 0 0 0 2 9
1028 939 1091 1383 1036 471 209 63 263 41 31 51 82 45 34 7 3 2 0 0 0 0 4 2 0 0 0 0 0 0 0 0 0 0 0 0 0 0 0 0 0 0 0
688 675 1425 1418 1198 951 641 205 67 102 0 11 69 57 100 14 6 2 0 0 0 0 2 9 1 0 0 1 0 0 0 0 0 0 0 0 0 7 4 0 0 0 8
657 902 1274 1583 1415 1159 979 633 124 53 29 53 60 57 57 44 10 2 0 0 0 1 0 22 7 13 20 3 0 0 0 0 0 0 0 0 0 2 0 4 5 130 119
873 912 982 1415 1467 1248 1088 798 346 240 128 44 113 152 107 103 48 59 14 0 13 0 14 37 59 64 34 0 0 0 0 0 0 0 0 0 0 0 2 6 46 55 86
1065 966 966 1063 1145 1159 992 726 488 383 322 170 304 255 167 335 560 199 44 41 37 15 86 51 24 12 0 0 0 0 0 0 0 0 0 0 0 0 0 0 0 1 2
1013 1080 1011 897 851 863 842 735 563 460 350 427 516 307 93 288 640 617 412 379 48 124 22 5 0 0 0 0 0 0 0 0 0 0 0 0 0 0 0 0 1 30 76
1249 1075 939 789 755 700 626 618 590 475 357 368 437 119 22 26 226 123 109 182 251 96 0 0 0 0 0 0 0 0 0 0 0 0 0 0 0 0 36 25 35 71 54
1383 1225 1077 875 792 762 791 522 342 286 120 162 147 64 12 0 9 28 67 82 249 8 0 0 0 0 0 0 0 0 0 0 0 0 0 0 11 41 17 44 32 21 45
307 1413 1336 1177 908 911 762 383 225 141 60 43 44 22 0 0 0 0 0 0 0 0 0 0 0 0 0 0 0 0 0 0 0 0 0 0 8 15 25 18 16 16 12
462 450 1146 1511 1075 1057 638 435 260 250 67 13 0 1 0 0 0 0 0 0 0 0 0 0 0 0 0 0 0 0 0 0 0 0 0 0 0 1 7 2 0 0 0
348 509 483 945 1318 1080 787 622 582 443 206 71 14 0 0 0 0 0 0 0 0 0 0 0 0 0 0 0 0 0 0 0 0 0 0 0 0 0 0 0 0 0 0
157 486 675 731 1113 1009 931 780 657 306 238 62 22 0 0 0 0 0 0 0 0 0 0 0 0 0 0 0 0 0 0 0 0 0 0 0 0 0 0 0 0 0 0
0 434 961 790 825 762 1009 910 583 305 248 176 186 0 0 0 0 0 0 0 0 0 0 0 0 0 0 0 0 0 0 0 0 0 0 0 0 0 0 0 0 0 0
0 60 1071 1234 1166 867 833 848 752 533 321 265 233 44 0 0 0 0 0 0 0 0 0 0 0 0 0 0 0 0 0 0 0 0 0 0 0 0 0 0 0 0 0
0 0 654 1255 1376 1309 771 903 733 654 452 298 167 46 0 0 0 0 0 0 0 0 0 0 0 0 0 0 0 0 0 0 0 0 0 0 0 0 0 0 0 0 0
0 0 0 1012 1468 1384 1182 980 984 682 596 375 161 19 0 0 0 0 0 0 0 0 0 0 0 0 0 0 0 0 0 0 0 0 0 0 0 0 0 0 0 0 0
0 0 0 77 1374 1309 1172 1140 1116 924 653 302 24 0 0 0 0 0 0 0 0 0 0 0 0 0 0 0 0 0 0 0 0 0 0 0 0 0 0 0 0 0 0
0 0 0 0 558 1234 1240 1214 1112 359 123 2 0 0 0 0 0 0 0 0 0 0 0 0 0 0 0 0 0 0 0 0 0 0 0 0 0 0 0 0 0 0 0
0 0 0 0 335 1182 1174 641 0 0 0 0 0 0 0 0 0 0 0 0 0 0 0 0 0 0 0 0 0 0 0 0 0 0 0 0 0 0 0 0 0 0 0
0 0 0 0 0 636 833 605 142 115 0 0 0 0 0 0 0 0 0 0 0 0 0 0 0 0 0 0 0 0 0 0 0 0 0 0 0 0 0 0 0 0 0
0 0 0 0 0 33 914 315 140 6 0 0 0 0 0 0 0 0 0 0 0 0 0 0 0 0 0 0 0 0 0 0 0 0 0 0 0 0 0 0 0 0 0
0 0 0 0 0 531 456 162 182 0 0 0 0 0 0 0 0 0 0 0 0 0 0 0 0 0 0 0 0 0 0 0 0 0 0 0 0 0 0 0 0 0 0

GFSSE_con_sbcape_018.txt.gz
CAPE
498 972 1592 759 511 368 228 158 208 445 496 418 417 376 208 57 5 2 0 0 0 1 10 56 108 169 113 92 66 35 15 0 0 0 0 0 0 0 0 2 8 10 17
634 1102 1563 994 568 353 143 81 81 382 648 366 267 155 83 26 4 2 0 0 0 1 10 6 34 33 31 19 4 0 0 0 0 0 0 0 0 0 0 0 3 0 0
985 1134 1025 1186 731 177 116 56 77 108 134 395 160 112 96 15 3 1 0 0 4 8 14 18 16 4 0 0 0 0 0 0 0 0 0 0 0 0 0 0 0 0 0
1047 982 784 1213 573 205 97 110 229 139 326 407 346 152 9 1 0 0 0 1 3 3 1 0 0 0 0 0 0 0 0 0 0 0 0 0 0 0 0 0 0 1 6
1012 806 831 1149 582 248 105 429 149 66 80 195 334 206 0 0 0 0 0 0 0 2 4 2 0 0 0 0 0 0 0 0 5 0 0 0 0 0 0 0 0 0 0
806 705 1140 1217 827 607 402 523 140 29 18 100 148 313 75 4 4 0 0 0 1 4 6 3 1 0 0 1 0 0 0 0 0 0 0 0 0 8 3 0 0 0 0
648 821 1008 1392 895 526 416 678 428 92 39 61 76 110 73 27 28 0 0 0 2 6 28 14 1 1 4 1 0 0 0 0 0 0 0 0 0 9 3 5 6 113 112
607 958 969 1348 1263 1013 576 367 474 323 175 161 217 193 114 71 66 44 0 0 6 2 29 38 67 60 18 0 0 0 0 0 0 0 0 0 0 0 2 6 12 6 17
701 924 898 992 999 1054 964 452 346 445 407 446 522 460 428 439 349 186 53 73 5 68 127 129 94 19 0 0 0 0 0 0 0 0 0 0 0 0 0 0 0 0 4
695 700 774 898 832 751 681 566 400 468 406 432 577 410 204 370 618 544 334 380 66 187 76 34 0 0 0 0 0 0 0 0 0 0 0 0 0 0 1 1 16 62 131
653 633 655 697 692 648 494 426 477 435 397 440 402 103 48 198 384 358 208 295 410 220 19 0 0 0 0 0 0 0 0 0 0 0 0 0 0 38 32 64 66 83 71
783 673 580 657 661 606 605 417 264 174 151 185 168 35 0 44 126 170 165 220 433 146 0 0 0 0 0 0 0 0 0 0 0 0 0 5 38 34 52 39 44 52 44
1035 834 674 639 606 625 621 377 196 94 33 90 83 28 0 0 7 17 22 50 23 0 0 0 0 0 0 0 0 0 0 0 0 0 0 0 4 29 31 19 13 11 10
1085 1084 861 671 636 623 546 354 224 107 12 15 34 12 0 0 0 0 0 0 0 0 0 0 0 0 0 0 0 0 0 0 0 0 0 0 0 7 6 1 0 0 0
303 1202 1127 968 838 766 445 326 215 140 40 1 0 0 0 0 0 0 0 0 0 0 0 0 0 0 0 0 0 0 0 0 0 0 0 0 0 0 0 0 0 0 0
5 172 1249 1220 1017 881 661 359 198 174 71 3 0 0 0 0 0 0 0 0 0 0 0 0 0 0 0 0 0 0 0 0 0 0 0 0 0 0 0 0 0 0 0
0 62 109 1145 1044 936 757 436 387 322 144 30 10 0 0 0 0 0 0 0 0 0 0 0 0 0 0 0 0 0 0 0 0 0 0 0 0 0 0 0 0 0 0
0 0 163 910 1087 899 834 606 420 210 126 20 41 0 0 0 0 0 0 0 0 0 0 0 0 0 0 0 0 0 0 0 0 0 0 0 0 0 0 0 0 0 0
0 0 77 482 820 1014 896 666 353 309 72 64 156 18 0 0 0 0 0 0 0 0 0 0 0 0 0 0 0 0 0 0 0 0 0 0 0 0 0 0 0 0 0
0 0 0 572 810 838 682 635 219 219 100 89 199 18 0 0 0 0 0 0 0 0 0 0 0 0 0 0 0 0 0 0 0 0 0 0 0 0 0 0 0 0 0
0 0 0 282 848 943 678 642 471 475 256 133 115 0 0 0 0 0 0 0 0 0 0 0 0 0 0 0 0 0 0 0 0 0 0 0 0 0 0 0 0 0 0
0 0 0 0 798 979 969 991 757 529 216 198 0 0 0 0 0 0 0 0 0 0 0 0 0 0 0 0 0 0 0 0 0 0 0 0 0 0 0 0 0 0 0
0 0 0 0 94 1143 1077 455 0 0 0 0 0 0 0 0 0 0 0 0 0 0 0 0 0 0 0 0 0 0 0 0 0 0 0 0 0 0 0 0 0 0 0
0 0 0 0 0 1057 880 501 137 225 49 0 0 0 0 0 0 0 0 0 0 0 0 0 0 0 0 0 0 0 0 0 0 0 0 0 0 0 0 0 0 0 0
0 0 0 0 0 769 848 550 294 295 154 0 0 0 0 0 0 0 0 0 0 0 0 0 0 0 0 0 0 0 0 0 0 0 0 0 0 0 0 0 0 0 0
0 0 0 0 0 0 764 556 439 169 0 0 0 0 0 0 0 0 0 0 0 0 0 0 0 0 0 0 0 0 0 0 0 0 0 0 0 0 0 0 0 0 0

GFSSE_con_sbcape_021.txt.gz
CAPE
212 677 1315 636 634 526 483 438 625 686 849 649 458 366 121 3 0 0 0 0 0 2 5 85 108 88 55 65 61 12 0 0 0 0 0 0 0 0 6 3 2 4 9
451 854 1328 649 449 436 364 388 834 953 949 673 498 345 86 3 1 0 0 2 1 4 20 96 62 93 71 34 10 0 0 0 0 0 0 0 0 0 0 0 0 0 0
692 914 842 1025 725 348 164 180 452 553 671 709 353 150 51 7 4 0 1 2 4 10 47 50 20 19 11 0 0 0 0 0 0 0 0 0 0 0 0 0 0 0 0
816 878 677 1131 499 173 108 91 201 360 419 545 312 164 39 4 0 0 2 3 8 12 13 5 2 1 0 0 0 0 0 0 0 0 0 0 0 0 0 0 0 1 4
865 704 712 1060 467 173 119 137 192 218 371 546 403 102 1 0 0 0 0 2 2 3 2 0 0 0 0 0 0 0 0 0 0 0 0 0 0 2 1 0 0 0 0
702 584 1045 1024 523 383 391 326 167 348 402 492 482 130 0 0 0 0 0 0 2 4 4 2 0 0 0 0 0 0 0 0 0 0 0 0 0 13 2 5 0 0 0
530 674 847 1071 618 319 760 482 245 164 175 252 227 83 47 41 2 0 0 0 1 6 52 3 4 20 24 1 0 0 0 0 0 0 0 0 0 6 7 6 15 61 135
653 824 839 944 869 567 826 605 408 300 232 263 455 344 125 87 57 16 0 0 1 12 54 40 90 61 5 0 0 0 0 0 0 0 0 0 0 0 1 1 4 3 21
779 813 806 812 754 636 551 677 455 391 361 429 544 623 417 352 272 74 46 43 22 100 161 216 129 5 0 0 0 0 0 0 0 0 0 0 0 0 0 0 0 0 97
695 795 759 725 748 613 397 387 460 435 467 578 586 485 379 393 486 398 293 334 57 291 168 118 37 0 0 0 0 0 0 0 0 0 0 0 0 0 3 21 102 125 94
565 597 624 650 630 562 438 228 366 458 389 454 447 270 162 212 371 346 184 327 339 312 143 11 0 0 0 0 0 0 0 0 0 0 0 0 7 38 97 65 109 66 45
695 552 567 616 560 468 486 223 161 213 187 236 218 54 17 134 232 236 231 287 519 321 31 0 0 0 0 0 0 0 0 0 0 0 0 56 34 58 51 46 42 32 21
770 649 589 594 530 473 401 228 119 73 59 82 90 5 0 38 96 103 101 166 114 7 0 0 0 0 0 0 0 0 0 0 0 0 0 26 27 26 24 11 6 10 3
782 768 688 637 554 466 388 258 134 57 10 19 42 3 0 0 0 6 11 0 0 0 0 0 0 0 0 0 0 0 0 0 0 0 0 0 10 9 4 0 0 0 0
956 875 805 636 608 513 345 255 127 77 27 22 9 0 0 0 0 0 0 0 0 0 0 0 0 0 0 0 0 0 0 0 0 0 0 0 0 0 0 0 0 0 0
188 875 824 783 701 562 486 250 147 91 37 4 0 0 0 0 0 0 0 0 0 0 0 0 0 0 0 0 0 0 0 0 0 0 0 0 0 0 0 0 0 0 0
0 38 907 937 788 676 571 278 141 82 40 0 0 0 0 0 0 0 0 0 0 0 0 0 0 0 0 0 0 0 0 0 0 0 0 0 0 0 0 0 0 0 0
0 0 155 1154 952 862 685 287 218 101 43 15 0 0 0 0 0 0 0 0 0 0 0 0 0 0 0 0 0 0 0 0 0 0 0 0 0 0 0 0 0 0 0
0 0 0 434 1071 1035 697 418 360 230 85 19 0 0 0 0 0 0 0 0 0 0 0 0 0 0 0 0 0 0 0 0 0 0 0 0 0 0 0 0 0 0 0
0 0 0 113 825 1010 721 594 346 174 85 0 10 0 0 0 0 0 0 0 0 0 0 0 0 0 0 0 0 0 0 0 0 0 0 0 0 0 0 0 0 0 0
0 0 0 14 540 827 704 587 335 231 19 21 22 0 0 0 0 0 0 0 0 0 0 0 0 0 0 0 0 0 0 0 0 0 0 0 0 0 0 0 0 0 0
0 0 0 0 181 623 722 713 377 454 132 67 0 0 0 0 0 0 0 0 0 0 0 0 0 0 0 0 0 0 0 0 0 0 0 0 0 0 0 0 0 0 0
0 0 0 0 0 520 786 323 0 0 0 0 0 0 0 0 0 0 0 0 0 0 0 0 0 0 0 0 0 0 0 0 0 0 0 0 0 0 0 0 0 0 0
0 0 0 0 0 32 713 152 34 127 71 41 0 0 0 0 0 0 0 0 0 0 0 0 0 0 0 0 0 0 0 0 0 0 0 0 0 0 0 0 0 0 0
0 0 0 0 0 0 614 666 366 217 218 0 0 0 0 0 0 0 0 0 0 0 0 0 0 0 0 0 0 0 0 0 0 0 0 0 0 0 0 0 0 0 0
0 0 0 0 0 0 444 686 443 321 0 0 0 0 0 0 0 0 0 0 0 0 0 0 0 0 0 0 0 0 0 0 0 0 0 0 0 0 0 0 0 0 0

GFSSE_con_sbcape_024.txt.gz
CAPE
44 487 1616 1095 896 577 541 496 700 1125 1162 836 604 175 37 22 0 0 0 1 0 0 51 21 63 72 56 65 40 0 0 0 0 0 0 0 0 3 5 0 9 1 3
119 693 1406 1174 616 539 409 457 887 987 1090 900 514 278 52 5 1 0 2 1 1 0 54 92 96 77 61 23 0 0 0 0 0 0 0 0 0 1 1 2 0 0 0
527 666 623 947 688 397 531 624 874 833 939 869 547 208 60 3 0 0 0 1 2 17 67 72 10 13 12 0 0 0 0 0 0 0 0 0 0 0 0 0 0 0 0
708 641 485 998 725 441 328 514 631 670 698 617 337 127 28 4 0 2 4 8 8 42 41 23 6 3 1 1 0 1 0 0 0 0 0 0 0 0 0 0 0 0 0
682 540 592 1118 597 238 165 243 466 608 551 627 497 126 20 0 0 3 4 4 2 1 0 0 0 0 0 0 0 0 0 0 0 0 0 0 0 5 2 0 0 0 0
542 452 980 955 473 360 321 296 182 236 466 583 476 78 0 0 0 0 1 2 3 3 2 0 2 5 7 6 1 0 0 0 0 0 0 0 0 18 2 8 0 36 0
374 583 755 926 453 283 577 583 569 604 811 462 151 52 4 0 0 0 0 1 17 33 11 2 5 27 18 1 0 0 0 0 0 0 0 0 0 3 7 1 17 40 31
538 680 689 757 658 606 863 505 404 492 479 492 448 175 89 44 2 0 4 14 20 96 66 73 125 55 0 0 0 0 0 0 0 0 0 0 0 0 0 0 0 0 49
660 640 595 541 487 757 689 511 372 416 457 513 615 436 304 281 98 34 28 40 29 126 121 233 118 0 0 0 0 0 0 0 0 0 0 0 0 0 0 0 0 19 116
713 641 574 474 428 335 531 574 432 427 415 466 534 610 356 362 372 219 216 191 48 323 227 156 17 0 0 0 0 0 0 0 0 0 0 0 0 15 74 85 85 65 60
619 606 490 453 453 267 161 295 426 392 344 369 384 325 266 183 282 238 153 269 227 246 169 21 0 0 0 0 0 0 0 0 0 0 0 0 33 64 101 73 70 54 32
444 499 496 519 478 395 356 119 148 200 189 201 212 134 40 96 166 192 160 257 431 289 42 0 0 0 0 0 0 0 0 0 0 0 0 32 46 44 40 33 25 18 11
545 520 536 622 420 416 439 103 67 95 79 104 136 32 1 63 111 116 111 153 114 0 0 0 0 0 0 0 0 0 0 0 0 0 0 40 14 4 19 13 3 0 1
575 530 557 657 463 347 213 150 79 60 25 35 65 11 0 18 71 89 56 19 0 0 0 0 0 0 0 0 0 0 0 0 0 0 0 8 4 1 0 0 0 0 0
732 703 602 609 626 446 224 155 74 49 23 26 23 3 0 0 14 8 4 0 0 0 0 0 0 0 0 0 0 0 0 0 0 0 0 0 0 0 0 0 0 0 0
797 796 646 557 673 534 388 190 77 32 11 0 9 8 0 0 0 0 1 0 0 0 0 0 0 0 0 0 0 0 0 0 0 0 0 0 0 0 0 0 0 0 0
5 827 748 697 527 557 485 225 96 66 9 0 0 0 0 0 0 0 0 0 0 0 0 0 0 0 0 0 0 0 0 0 0 0 0 0 0 0 0 0 0 0 0
0 0 504 853 769 585 574 357 167 76 35 0 0 0 0 0 0 0 0 0 0 0 0 0 0 0 0 0 0 0 0 0 0 0 0 0 0 0 0 0 0 0 0
0 0 0 556 912 779 689 538 212 110 50 7 0 0 0 0 0 0 0 0 0 0 0 0 0 0 0 0 0 0 0 0 0 0 0 0 0 0 0 0 0 0 0
0 0 0 1 796 881 832 632 327 222 69 18 0 0 0 0 0 0 0 0 0 0 0 0 0 0 0 0 0 0 0 0 0 0 0 0 0 0 0 0 0 0 0
0 0 0 0 10 724 989 749 434 432 269 42 42 14 0 0 0 0 0 0 0 0 0 0 0 0 0 0 0 0 0 0 0 0 0 0 0 0 0 0 0 0 0
0 0 0 0 0 389 704 747 471 593 309 196 70 6 0 0 0 0 0 0 0 0 0 0 0 0 0 0 0 0 0 0 0 0 0 0 0 0 0 0 0 0 0
0 0 0 0 0 53 568 533 1 0 0 1 0 0 0 0 0 0 0 0 0 0 0 0 0 0 0 0 0 0 0 0 0 0 0 0 0 0 0 0 0 0 0
0 0 0 0 0 0 223 476 353 278 212 60 96 0 0 0 0 0 0 0 0 0 0 0 0 0 0 0 0 0 0 0 0 0 0 0 0 0 0 0 0 0 0
0 0 0 0 0 0 28 471 300 335 194 0 19 0 0 0 0 0 0 0 0 0 0 0 0 0 0 0 0 0 0 0 0 0 0 0 0 0 0 0 0 0 0
0 0 0 0 0 0 0 299 362 274 84 0 0 0 0 0 0 0 0 0 0 0 0 0 0 0 0 0 0 0 0 0 0 0 0 0 0 0 0 0 0 0 0

GFSSE_con_sbcape_027.txt.gz
CAPE
66 1075 1762 1262 1188 1254 1314 1353 1530 1717 1557 1129 801 472 232 32 2 0 1 0 2 14 22 45 67 49 45 29 5 0 0 0 0 0 0 2 4 5 4 0 0 1 0
116 1076 1572 1454 1088 1192 1031 1216 1423 1462 1381 1024 507 337 73 17 1 1 3 0 0 48 87 85 77 68 49 1 0 0 0 0 0 0 0 0 3 3 3 0 0 0 12
543 950 683 1379 1204 978 696 849 1037 1265 1394 1161 506 154 28 3 0 1 0 0 0 55 61 42 38 20 2 0 0 0 0 0 0 0 0 0 0 0 0 0 0 0 6
868 606 365 1063 750 659 706 806 948 1148 1112 992 393 135 43 3 0 0 0 0 27 34 20 9 2 1 0 0 1 1 0 0 0 0 0 0 1 3 0 0 0 0 0
773 485 403 914 822 668 551 632 944 1120 1183 761 440 102 20 0 1 3 7 5 7 1 0 0 0 0 0 1 4 5 0 0 0 0 0 0 2 18 2 0 0 0 0
753 522 744 1012 754 643 610 651 736 808 792 698 606 83 0 0 3 4 2 0 0 0 0 1 6 11 9 3 1 0 0 0 0 0 0 0 6 5 1 0 30 149 13
752 625 602 943 505 322 489 552 483 636 729 759 251 29 0 2 3 3 3 5 11 4 5 15 50 21 2 0 0 0 0 0 0 0 0 0 0 4 5 0 4 14 129
799 784 616 682 605 586 720 733 883 848 1174 512 335 75 0 1 2 1 15 44 62 112 70 86 105 0 0 0 0 0 0 0 0 0 0 0 0 0 0 0 0 62 77
906 858 693 511 387 616 666 524 569 782 941 631 436 261 192 110 20 9 25 50 82 132 158 199 8 0 0 0 0 0 0 0 0 0 0 0 0 0 0 0 2 125 71
890 906 743 579 353 558 408 398 384 455 587 648 486 331 233 204 182 83 133 105 69 348 254 86 0 0 0 0 0 0 0 0 0 0 0 0 1 104 147 83 71 57 37
859 788 787 642 426 530 465 286 294 338 314 309 307 249 195 240 202 142 80 131 251 220 149 10 0 0 0 0 0 0 0 0 0 0 0 3 48 72 76 53 40 17 6
479 455 512 783 568 340 393 391 260 220 231 247 271 405 285 307 377 231 131 159 342 201 59 0 0 0 0 0 0 0 0 0 0 0 0 51 36 40 23 8 7 4 2
429 486 635 663 653 518 289 235 291 240 270 272 279 274 199 194 295 389 294 362 310 0 0 0 0 0 0 0 0 0 0 0 0 0 8 20 3 5 1 2 0 0 0
458 437 508 487 474 705 637 238 172 225 214 223 279 199 105 169 281 432 330 382 189 0 0 0 0 0 0 0 0 0 0 0 0 0 2 6 0 0 0 0 0 0 0
755 480 513 438 404 474 578 439 163 174 180 179 193 163 60 132 223 260 120 229 93 0 0 0 0 0 0 0 0 0 0 0 0 0 0 0 0 0 0 0 0 0 0
890 1044 807 724 502 456 520 458 278 130 147 145 157 151 53 42 254 200 74 113 39 0 0 0 0 0 0 0 0 0 0 0 0 0 0 0 0 0 0 0 0 0 0
51 822 905 848 689 474 472 524 409 232 104 115 116 95 78 0 64 151 108 64 8 0 0 0 0 0 0 0 0 0 0 0 0 0 0 0 0 0 0 0 0 0 0
0 0 546 899 760 641 458 500 455 302 215 115 67 59 64 18 0 40 68 45 0 0 0 0 0 0 0 0 0 0 0 0 0 0 0 0 0 0 0 0 0 0 0
0 0 0 367 1026 783 635 595 455 388 323 294 41 24 28 20 0 0 2 2 0 0 0 0 0 0 0 0 0 0 0 0 0 0 0 0 0 0 0 0 0 0 0
0 0 0 0 278 1038 933 612 419 343 298 369 114 37 10 10 0 0 0 0 0 0 0 0 0 0 0 0 0 0 0 0 0 0 0 0 0 0 0 0 0 0 0
0 0 0 0 0 560 677 761 563 390 405 232 230 109 16 13 0 0 0 0 0 0 0 0 0 0 0 0 0 0 0 0 0 0 0 0 0 0 0 0 0 0 0
0 0 0 0 0 0 526 723 661 455 483 489 180 133 63 18 0 0 0 0 0 0 0 0 0 0 0 0 0 0 0 0 0 0 0 0 0 0 0 0 0 0 0
0 0 0 0 0 0 2 652 123 5 0 261 101 115 68 32 0 0 0 0 0 0 0 0 0 0 0 0 0 0 0 0 0 0 0 0 0 0 0 0 0 0 0
0 0 0 0 0 0 8 403 412 150 140 275 359 244 88 30 0 0 0 0 0 0 0 0 0 0 0 0 0 0 0 0 0 0 0 0 0 0 0 0 0 0 0
0 0 0 0 0 0 0 452 580 312 448 534 355 321 63 1 0 0 0 0 0 0 0 0 0 0 0 0 0 0 0 0 0 0 0 0 0 0 0 0 0 0 0
0 0 0 0 0 0 0 8 430 449 350 213 102 251 3 1 0 0 0 0 0 0 0 0 0 0 0 0 0 0 0 0 0 0 0 0 0 0 0 0 0 0 0

GFSSE_con_sbcape_030.txt.gz
CAPE
647 1070 1982 1832 1652 1667 1651 1752 1748 1751 1720 1285 1073 747 306 27 8 10 2 1 7 21 30 67 53 72 42 12 0 0 0 0 0 1 2 9 4 7 6 0 1 0 0
733 1011 1268 1565 1868 1770 1817 1890 2035 1854 1679 1217 817 485 120 8 3 5 0 0 19 54 71 79 68 32 3 0 0 0 0 0 0 0 0 0 8 6 1 0 0 3 10
894 772 547 1254 1114 1301 1561 1376 1577 1641 1609 986 574 213 39 7 8 4 0 0 59 78 71 58 24 1 0 0 0 0 0 0 0 0 0 0 0 0 0 0 0 0 19
841 762 647 1104 1089 1231 943 926 1326 1658 1336 1031 360 72 6 5 1 0 0 20 37 30 13 5 2 0 0 0 0 0 0 0 0 0 0 3 8 0 0 0 0 0 0
881 607 631 1022 1024 651 937 546 829 1401 1374 914 358 71 3 0 0 3 2 15 14 2 0 0 0 0 0 1 3 0 0 0 0 0 1 10 19 3 0 0 0 0 0
744 501 553 948 852 710 883 672 791 1501 1112 487 353 41 0 0 3 5 1 0 0 0 0 2 3 4 4 5 1 0 0 0 0 0 5 0 7 0 0 16 31 140 163
614 514 376 987 810 576 572 648 727 1185 1089 510 179 1 0 2 4 2 1 0 0 0 1 9 9 1 0 0 0 0 0 0 1 1 8 0 0 0 0 0 0 157 136
700 571 446 653 693 544 621 667 624 904 1208 752 242 10 0 2 2 2 17 51 33 29 47 108 3 0 0 0 0 0 0 0 1 3 0 0 0 0 0 0 5 176 60
816 563 458 430 343 531 699 833 814 782 1221 564 307 147 122 87 28 33 66 78 187 102 142 57 0 0 0 0 0 0 0 0 0 0 0 0 0 0 0 0 170 91 46
1024 884 619 371 190 178 375 429 587 939 730 473 369 301 183 124 113 61 143 116 112 222 194 0 0 0 0 0 0 0 0 0 0 0 0 0 30 180 124 125 73 48 31
934 978 803 408 235 230 289 185 247 350 465 419 282 156 103 49 48 29 31 100 313 248 95 0 0 0 0 0 0 0 0 0 0 0 0 17 86 86 61 42 31 18 4
669 789 921 620 337 289 268 221 139 119 199 282 328 201 109 114 108 54 25 97 255 217 70 0 0 0 0 0 0 0 0 0 0 0 14 96 40 25 3 2 2 0 0
622 727 560 882 546 381 348 339 270 163 123 157 216 313 193 244 434 344 179 139 114 9 0 0 0 0 0 0 0 0 0 0 0 0 10 7 20 12 0 0 0 0 0
573 511 554 624 786 657 545 369 394 224 151 172 174 234 387 365 351 453 449 295 253 49 0 0 0 0 0 0 0 0 0 0 0 0 5 4 0 0 0 0 0 0 0
766 590 566 663 635 716 884 791 498 352 139 118 173 208 242 245 217 278 311 462 301 148 0 0 0 0 0 0 0 0 0 0 0 0 2 0 0 0 0 0 0 0 0
1114 1297 958 735 657 706 885 1111 960 544 271 138 149 196 230 168 173 262 397 330 374 152 7 0 0 0 0 0 0 0 0 0 0 0 0 0 0 0 0 0 0 0 0
6 132 1123 1369 1264 1061 874 1187 1150 1013 547 391 281 159 139 104 126 217 232 250 218 149 3 0 0 0 0 0 0 0 0 0 0 0 0 0 0 0 0 0 0 0 0
0 0 0 624 1336 1262 871 932 1133 1220 936 675 532 453 265 124 69 147 252 173 249 138 0 0 0 0 0 0 0 0 0 0 0 0 0 0 0 0 0 0 0 0 0
0 0 0 0 449 1019 1195 983 799 889 1241 1110 812 675 534 361 138 61 137 312 265 53 0 0 0 0 0 0 0 0 0 0 0 0 0 0 0 0 0 0 0 0 0
0 0 0 0 0 100 961 878 810 714 735 1124 1057 922 747 586 352 237 84 100 168 7 0 0 0 0 0 0 0 0 0 0 0 0 0 0 0 0 0 0 0 0 0
0 0 0 0 0 0 28 835 754 631 663 463 604 976 908 746 562 280 398 118 118 0 0 0 0 0 0 0 0 0 0 0 0 0 0 0 0 0 0 0 0 0 0
0 0 0 0 0 0 0 62 489 681 617 631 457 475 645 843 688 513 331 247 107 1 0 0 0 0 0 0 0 0 0 0 0 0 0 0 0 0 0 0 0 0 0
0 0 0 0 0 0 0 0 229 711 750 663 537 576 402 737 712 588 359 384 76 0 0 0 0 0 0 0 0 0 0 0 0 0 0 0 0 0 0 0 0 0 0
0 0 0 0 0 0 0 0 0 218 374 413 447 671 618 337 472 578 309 254 48 0 0 0 0 0 0 0 0 0 0 0 0 0 0 0 0 0 0 0 0 0 0
0 0 0 0 0 0 0 0 0 0 21 76 320 662 661 591 225 301 315 204 61 0 0 0 0 0 0 0 0 0 0 0 0 0 0 0 0 0 0 0 0 0 0
0 0 0 0 0 0 0 0 0 0 62 215 495 786 617 382 128 124 69 69 62 9 0 0 0 0 0 0 0 0 0 0 0 0 0 0 0 0 0 0 0 0 0

GFSSE_con_sbcape_033.txt.gz
CAPE
1075 1031 2391 2156 1665 1460 1537 1721 1670 1680 1650 1289 1138 693 299 54 13 10 2 0 5 12 68 51 65 38 18 0 0 4 0 0 0 4 1 9 8 4 0 0 9 2 4
1098 974 1723 2040 2090 1707 1849 1878 1997 1867 1660 1602 1055 522 106 4 4 0 0 0 59 41 80 67 32 4 0 0 0 0 0 0 0 0 0 0 12 0 0 0 2 0 0
962 820 520 1628 1679 2240 2092 1865 2004 1734 1594 1055 581 159 12 6 3 0 0 42 138 129 87 47 6 0 0 0 0 0 0 0 0 0 0 0 0 0 0 0 0 0 0
878 551 424 1333 1221 1601 1633 1333 1664 1633 1165 703 250 46 4 6 0 0 4 51 56 37 19 10 0 0 0 0 0 0 0 0 0 0 0 4 2 0 0 0 0 0 0
749 560 616 1033 959 823 579 994 1591 1544 980 853 234 44 4 1 0 0 26 27 8 0 0 0 0 0 0 2 2 0 0 0 0 1 9 13 18 0 0 24 46 0 23
679 671 588 912 833 517 423 244 1011 1360 960 437 135 23 0 1 6 9 6 0 0 0 0 1 1 1 2 0 0 0 0 0 0 7 9 0 1 2 13 4 181 273 273
524 689 370 868 733 582 438 348 732 1460 719 281 100 0 0 2 3 4 3 0 0 0 1 4 2 0 0 0 0 0 0 0 1 9 6 0 0 0 0 0 125 154 84
523 531 351 608 830 628 513 397 527 1232 893 416 89 0 1 1 1 0 0 0 0 11 37 39 0 0 0 0 0 0 0 0 1 0 0 0 0 0 0 0 177 94 33
595 489 330 288 335 512 547 500 340 823 965 487 147 86 83 43 4 18 47 56 58 47 139 2 0 0 0 0 0 0 0 0 0 0 0 0 0 0 0 0 124 65 27
732 502 330 259 118 87 94 556 619 518 728 356 184 137 96 67 86 86 130 138 152 153 98 0 0 0 0 0 0 0 0 0 0 0 0 0 126 111 130 119 69 52 21
892 748 468 247 115 97 136 188 363 692 380 221 180 82 17 0 0 9 42 104 204 339 30 0 0 0 0 0 0 0 0 0 0 0 1 50 76 90 55 29 20 3 4
760 797 662 333 145 156 175 160 194 371 454 209 127 109 24 11 3 0 11 111 245 216 56 0 0 0 0 0 0 0 0 0 0 0 12 84 27 13 11 2 1 1 0
636 748 754 608 328 200 184 199 92 90 113 174 247 142 64 62 56 27 34 16 150 10 5 0 0 0 0 0 0 0 0 0 0 0 3 18 21 10 0 0 0 0 0
657 642 629 763 650 374 295 284 246 168 103 90 117 175 153 220 243 255 148 70 13 56 6 0 0 0 0 0 0 0 0 0 0 0 0 7 15 1 0 0 0 0 0
904 697 582 566 779 652 494 548 501 400 155 108 105 155 195 306 336 236 358 270 180 123 31 0 0 0 0 0 0 0 0 0 0 0 1 0 0 0 0 0 0 0 0
914 1013 871 599 650 676 777 792 845 676 449 161 120 141 139 160 241 193 208 240 436 249 115 4 0 0 0 0 0 0 0 0 0 0 0 0 0 0 0 0 0 0 0
334 782 1082 1089 890 827 1077 1064 1135 1021 738 474 235 165 162 151 136 113 179 276 309 413 110 30 0 0 0 0 0 0 0 0 0 0 0 0 0 0 0 0 0 0 0
0 0 27 539 1282 1280 1284 1234 1233 1199 1095 899 650 435 303 224 152 123 193 364 142 324 101 53 0 0 0 0 0 0 0 0 0 0 0 0 0 0 0 0 0 0 0
0 0 0 0 109 720 1226 1118 913 1351 1403 1211 964 757 660 455 273 188 238 353 171 208 285 45 0 0 0 0 0 0 0 0 0 0 0 0 0 0 0 0 0 0 0
0 0 0 0 0 3 359 984 998 865 977 1357 1266 1134 855 867 711 522 341 319 320 363 170 0 0 0 0 0 0 0 0 0 0 0 0 0 0 0 0 0 0 0 0
0 0 0 0 0 0 0 133 1025 1049 708 740 1244 1290 1248 1115 984 873 648 429 295 213 161 0 0 0 0 0 0 0 0 0 0 0 0 0 0 0 0 0 0 0 0
0 0 0 0 0 0 0 0 98 850 535 675 631 665 1065 1278 1187 1016 852 656 508 405 194 1 0 0 0 0 0 0 0 0 0 0 0 0 0 0 0 0 0 0 0
0 0 0 0 0 0 0 0 0 28 733 892 708 585 536 646 1130 1031 934 758 688 570 313 30 0 0 0 0 0 0 0 0 0 0 0 0 0 0 0 0 0 0 0
0 0 0 0 0 0 0 0 0 0 58 561 558 694 832 654 465 1014 735 641 598 516 207 117 0 0 0 0 0 0 0 0 0 0 0 0 0 0 0 0 0 0 0
0 0 0 0 0 0 0 0 0 0 0 70 267 304 366 870 583 429 705 651 388 566 213 103 1 0 0 0 0 0 0 0 0 0 0 0 0 0 0 0 0 0 0
0 0 0 0 0 0 0 0 0 0 0 1 68 187 340 654 742 392 383 463 490 377 191 64 1 0 0 0 0 0 0 0 0 0 0 0 0 0 0 0 0 0 0

GFSSE_con_sbcape_036.txt.gz
CAPE
764 1377 2413 1923 1716 1787 1799 1770 1894 1679 1512 1057 867 551 241 39 10 2 0 0 27 68 74 52 57 19 6 1 0 0 0 3 20 23 27 15 2 0 0 9 16 0 13
812 1295 2341 2248 1791 2038 2158 2169 1789 1632 1620 1318 814 474 108 8 0 0 0 41 36 73 67 37 3 0 1 1 0 0 0 0 0 2 0 0 5 1 0 0 0 0 1
771 862 1450 2287 2156 2279 2240 2045 1772 1606 1658 1426 482 88 0 3 0 0 9 137 113 100 61 20 0 0 0 0 0 0 0 0 0 2 17 0 0 0 0 0 0 0 0
696 396 467 1660 2246 2249 2018 2162 1860 1728 1414 790 191 0 5 4 0 0 79 94 79 35 12 0 0 0 0 1 0 0 0 0 0 0 0 3 0 1 0 4 0 0 0
364 285 636 1154 1381 1352 1555 1681 1851 1571 868 613 304 3 3 0 0 54 72 16 1 0 0 0 0 0 2 2 0 0 0 0 0 0 0 0 0 3 23 161 10 93 242
337 286 693 965 993 321 627 1071 1418 1311 705 325 93 2 0 1 6 17 7 0 0 0 0 1 2 1 0 0 0 0 0 0 0 0 0 0 0 6 4 166 264 212 139
414 257 364 868 359 358 508 541 932 1506 652 257 50 0 1 5 9 11 2 0 0 0 5 7 1 0 0 0 0 0 0 0 0 0 0 0 0 0 0 58 144 77 43
426 270 178 434 112 518 367 447 1056 1258 616 226 45 0 4 5 3 4 0 0 0 33 48 0 0 0 0 0 0 0 0 0 0 0 0 0 0 0 0 79 88 48 12
328 183 127 142 264 366 243 203 820 980 701 251 81 65 73 36 5 3 14 5 21 54 47 0 0 0 0 0 0 0 0 0 0 0 0 0 0 0 0 115 61 13 4
321 228 157 126 147 86 137 217 140 633 468 197 128 81 26 22 31 58 58 101 91 148 0 0 0 0 0 0 0 0 0 0 0 0 0 24 91 34 78 83 47 23 16
451 326 143 87 17 12 10 136 258 242 219 144 86 38 15 0 0 8 9 31 64 225 0 0 0 0 0 0 0 0 0 0 0 0 0 121 98 92 69 35 15 9 0
706 433 193 55 36 20 47 107 90 250 154 91 43 14 1 0 0 0 6 85 251 143 0 0 0 0 0 0 0 0 0 0 0 0 3 92 18 28 20 9 5 2 0
519 639 517 264 54 80 70 76 90 261 187 100 59 19 16 0 0 2 3 47 36 8 0 0 0 0 0 0 0 0 0 0 0 0 0 16 12 7 4 1 0 0 0
438 446 572 503 260 98 94 54 13 19 49 63 88 57 38 5 16 11 11 3 47 7 0 0 0 0 0 0 0 0 0 0 0 0 0 0 10 1 1 1 1 0 0
506 457 500 450 482 262 139 107 96 46 0 0 16 64 58 78 88 123 136 17 0 4 0 0 0 0 0 0 0 0 0 0 0 0 0 0 0 0 0 1 0 0 1
611 541 433 510 466 448 373 278 261 279 46 25 24 39 38 67 77 107 120 154 78 59 38 0 0 0 0 0 0 0 0 0 0 0 0 0 0 0 0 0 0 0 2
513 714 619 477 535 517 549 563 502 532 366 106 32 26 38 26 29 73 65 99 105 87 67 18 0 0 0 0 0 0 0 0 0 0 0 0 0 0 0 0 0 0 0
0 0 765 909 603 531 581 661 645 609 622 473 230 67 45 57 36 22 0 63 69 136 123 4 0 0 0 0 0 0 0 0 0 0 0 0 0 0 0 0 0 0 0
0 0 0 49 801 767 586 792 832 811 817 626 626 439 204 93 66 38 12 29 57 57 117 43 0 0 0 0 0 0 0 0 0 0 0 0 0 0 0 0 0 0 0
0 0 0 0 0 0 426 784 721 712 547 587 801 551 475 247 143 37 28 11 31 26 110 64 0 0 0 0 0 0 0 0 0 0 0 0 0 0 0 0 0 0 0
0 0 0 0 0 0 0 0 660 640 526 498 477 588 595 455 321 110 105 60 61 60 84 148 0 0 0 0 0 0 0 0 0 0 0 0 0 0 0 0 0 0 0
0 0 0 0 0 0 0 0 0 623 497 394 283 411 381 440 503 408 292 129 54 101 94 106 0 0 0 0 0 0 0 0 0 0 0 0 0 0 0 0 0 0 0
0 0 0 0 0 0 0 0 0 0 70 218 227 277 380 421 327 412 523 515 213 61 101 66 0 0 0 0 0 0 0 0 0 0 0 0 0 0 0 0 0 0 0
0 0 0 0 0 0 0 0 0 0 0 0 242 315 275 281 356 481 227 261 442 477 262 96 0 0 0 0 0 0 0 0 0 0 0 0 0 0 0 0 0 0 0
0 0 0 0 0 0 0 0 0 0 0 0 0 5 93 264 372 286 397 348 335 492 440 201 27 0 0 0 0 0 0 0 0 0 0 0 0 0 0 0 0 0 0
0 0 0 0 0 0 0 0 0 0 0 0 0 0 5 10 177 273 245 279 362 423 398 276 62 0 0 0 0 0 0 0 0 0 0 0 0 0 0 0 0 0 0

GFSSE_con_sbcape_039.txt.gz
CAPE
845 1537 2241 1942 2033 1894 1911 1846 1993 1789 1421 997 711 451 244 48 0 0 0 20 71 69 61 50 15 19 9 1 0 0 2 15 21 18 12 0 0 3 10 1 0 11 2
1054 1699 2132 2148 2053 2052 2186 1929 1898 1674 1483 1339 737 399 156 7 0 0 7 30 72 69 5 4 3 4 3 0 0 0 0 0 0 0 0 0 0 0 0 0 7 0 0
1207 1700 1809 2174 2302 2402 2293 1826 1805 1736 1543 1243 344 95 4 1 0 3 130 96 121 64 14 2 2 2 0 0 0 0 0 0 0 8 0 0 0 0 0 0 0 1 0
1107 1303 1641 2300 2402 2392 2175 1894 1719 1729 1376 798 188 0 5 0 0 127 244 231 83 13 0 0 0 0 0 0 0 0 0 0 0 0 0 0 0 5 60 0 0 15 0
364 418 1377 2269 2182 2138 2281 1893 1670 1261 1017 509 149 0 0 0 9 114 50 20 1 0 0 0 0 2 1 0 0 0 0 0 0 0 0 0 0 7 154 65 140 200 236
179 315 866 1248 1407 1494 1699 1766 1328 1135 447 124 38 0 0 3 20 44 8 0 0 0 0 1 2 1 0 0 0 0 0 0 0 0 0 0 0 2 152 203 155 191 218
180 164 331 908 843 910 1176 1281 1188 1173 505 123 4 0 2 9 11 8 1 0 1 0 2 1 0 0 0 0 0 0 0 0 0 0 0 0 0 0 3 109 93 64 40
156 147 238 313 146 607 688 852 1255 1094 629 79 29 0 3 9 11 8 0 0 0 4 7 0 0 0 0 0 0 0 0 0 0 0 0 0 0 0 0 95 66 11 5
137 75 44 40 97 264 273 346 961 906 531 138 80 79 62 16 23 30 2 0 26 93 1 0 0 0 0 0 0 0 0 0 0 0 0 0 0 0 89 103 36 9 5
95 45 44 57 69 74 77 129 523 568 302 126 119 104 46 32 54 83 88 97 116 163 0 0 0 0 0 0 0 0 0 0 0 0 0 29 33 2 100 65 44 23 2
126 72 43 55 43 26 47 88 114 282 147 110 68 29 21 6 17 39 29 97 150 150 0 0 0 0 0 0 0 0 0 0 0 0 0 165 193 139 86 32 24 8 3
106 39 50 29 2 0 25 67 54 99 72 38 16 10 0 0 0 14 21 35 108 114 2 0 0 0 0 0 0 0 0 0 0 0 0 194 117 89 34 23 18 6 0
344 354 40 1 0 0 50 31 4 80 55 20 0 0 0 0 0 0 7 75 85 33 0 0 0 0 0 0 0 0 0 0 0 0 0 104 0 8 11 3 2 2 0
284 310 325 285 14 0 28 15 0 106 53 35 8 0 0 0 0 0 0 12 14 9 0 0 0 0 0 0 0 0 0 0 0 0 0 6 0 1 4 5 2 2 2
262 306 271 210 227 24 0 0 0 0 57 37 20 4 1 0 0 0 0 0 8 1 0 0 0 0 0 0 0 0 0 0 0 0 0 0 0 0 0 2 2 5 1
247 272 336 277 226 155 82 0 0 0 0 0 0 0 0 0 0 0 0 0 0 0 0 0 0 0 0 0 0 0 0 0 0 0 0 0 0 0 0 0 1 5 1
298 274 306 285 269 241 243 168 84 0 0 0 0 0 0 0 0 0 11 23 0 0 0 0 0 0 0 0 0 0 0 0 0 0 0 0 0 0 0 0 1 5 4
170 411 314 418 375 299 227 260 284 331 166 18 0 0 0 0 0 0 0 0 25 23 17 0 0 0 0 0 0 0 0 0 0 0 0 0 0 0 0 0 2 1 3
0 184 443 485 439 354 249 252 360 284 467 228 74 8 0 0 0 0 0 0 0 21 31 31 1 0 0 0 0 0 0 0 0 0 0 0 0 0 0 0 0 0 0
0 0 0 28 385 378 306 309 315 344 323 362 350 147 158 18 0 0 0 0 12 4 39 20 11 0 0 0 0 0 0 0 0 0 0 0 0 0 0 0 0 0 0
0 0 0 0 0 0 0 151 230 443 210 97 34 200 282 164 27 0 0 0 7 15 43 29 0 0 0 0 0 0 0 0 0 0 0 0 0 0 0 0 0 0 0
0 0 0 0 0 0 0 0 7 194 176 313 177 138 113 127 158 179 0 0 0 2 1 4 1 0 0 0 0 0 0 0 0 0 0 0 0 0 0 0 0 0 0
0 0 0 0 0 0 0 0 0 0 0 37 14 34 118 139 122 109 99 57 7 0 0 1 1 0 0 0 0 0 0 0 0 0 0 0 0 0 0 0 0 0 0
0 0 0 0 0 0 0 0 0 0 0 0 1 17 50 11 108 95 77 40 28 7 0 36 25 0 0 0 0 0 0 0 0 0 0 0 0 0 0 0 0 0 0
0 0 0 0 0 0 0 0 0 0 0 0 0 0 0 0 37 72 118 37 5 35 73 14 0 0 0 0 0 0 0 0 0 0 0 0 0 0 0 0 0 0 0
0 0 0 0 0 0 0 0 0 0 0 0 0 0 0 0 0 4 61 80 119 165 72 30 19 0 0 0 0 0 0 0 0 0 0 0 0 0 0 0 0 0 0

GFSSE_con_sbcape_042.txt.gz
CAPE
957 1678 2295 2269 1784 2020 2095 1857 1876 1688 1308 969 704 453 201 7 0 0 20 129 107 80 36 16 16 18 3 2 0 1 4 2 2 0 0 0 7 16 4 7 15 0 1
1104 1622 2162 2458 2117 2064 2247 2011 1947 1694 1479 1150 646 314 36 0 0 1 26 118 45 5 5 5 5 3 0 0 0 0 1 0 0 0 0 0 0 0 2 1 0 0 0
1348 1661 1853 2304 2364 2388 2077 1659 1834 1668 1549 1157 343 199 1 0 0 62 57 134 69 7 3 3 3 0 0 0 0 0 0 0 0 0 0 0 0 0 0 0 0 0 0
1381 1555 1637 2310 2438 2281 2095 1878 1869 1563 1072 799 224 64 0 0 217 210 221 170 16 2 0 0 0 0 0 0 0 0 0 0 0 0 0 0 0 19 2 0 1 0 169
1256 1428 1764 2299 2459 2194 1996 1833 2062 1556 576 461 96 0 0 0 350 275 186 18 0 0 0 0 0 0 0 0 0 0 0 0 0 0 0 0 0 39 58 106 107 240 364
400 917 1967 2155 2215 2183 1888 1923 1689 1075 302 76 9 0 0 59 167 76 5 0 0 0 0 1 1 0 0 0 0 0 0 0 0 0 0 0 0 97 168 165 184 186 156
245 600 1140 1599 1865 1926 1840 1462 1343 1048 408 79 3 0 4 53 90 50 0 0 0 1 1 1 0 0 0 0 0 0 0 0 0 0 0 0 0 0 138 114 58 49 47
144 153 334 734 1060 1129 1134 1253 1322 1035 386 59 18 5 4 6 8 30 29 19 1 2 1 0 0 0 0 0 0 0 0 0 0 0 0 0 0 0 99 72 12 11 3
109 84 69 63 222 578 595 974 1114 909 413 169 76 74 74 37 21 14 21 36 43 58 0 0 0 0 0 0 0 0 0 0 0 0 0 0 0 0 87 65 16 11 8
53 6 0 7 30 39 69 500 699 638 318 149 114 94 35 34 79 68 73 100 146 87 0 0 0 0 0 0 0 0 0 0 0 0 0 0 20 55 101 54 23 19 7
30 0 0 16 29 27 29 103 433 319 140 96 88 42 17 8 40 66 52 102 162 90 0 0 0 0 0 0 0 0 0 0 0 0 0 165 80 149 81 67 27 19 5
13 3 16 18 18 17 50 34 61 86 45 32 23 7 1 2 12 39 45 91 163 85 13 0 0 0 0 0 0 0 0 0 0 0 7 304 223 185 72 42 23 10 4
21 17 21 17 3 0 22 17 1 40 13 1 0 0 0 0 0 7 8 37 57 59 0 1 0 0 0 0 0 0 0 0 0 0 40 226 178 95 22 13 4 3 1
199 77 20 0 0 0 0 0 0 13 4 0 0 0 0 0 0 0 0 16 39 15 0 0 0 0 0 0 0 0 0 0 0 0 0 77 105 0 4 8 4 5 1
178 165 125 53 0 0 0 0 0 0 6 0 0 0 0 0 0 0 0 0 5 0 0 0 0 0 0 0 0 0 0 0 0 0 0 0 52 27 1 6 5 7 6
96 124 111 129 64 0 0 0 0 0 0 0 0 0 0 0 0 0 0 0 0 0 0 0 0 0 0 0 0 0 0 0 0 0 0 0 1 29 0 0 2 7 8
179 102 53 156 84 85 0 0 0 0 0 0 0 0 0 0 0 0 0 0 0 0 0 0 0 0 0 0 0 0 0 0 0 0 0 0 0 0 0 0 1 7 10
175 175 148 289 214 104 96 72 49 17 0 0 0 0 0 0 0 0 0 0 0 0 0 0 0 0 0 0 0 0 0 0 0 0 0 0 0 0 0 0 0 3 12
58 203 199 247 311 198 128 97 87 116 91 17 0 0 0 0 0 0 0 0 0 0 0 0 0 0 0 0 0 0 0 0 0 0 0 0 0 0 0 0 0 1 14
0 0 0 123 265 195 121 72 53 87 99 141 90 0 0 0 0 0 0 0 0 0 4 0 5 0 0 0 0 0 0 0 0 0 0 0 0 0 0 0 0 0 0
0 0 0 0 0 0 72 129 98 150 208 0 23 90 23 0 0 0 0 0 0 0 0 0 3 0 0 0 0 0 0 0 0 0 0 0 0 0 0 0 0 0 0
0 0 0 0 0 0 0 0 0 19 48 60 0 0 0 0 25 50 0 0 0 0 0 0 0 0 0 0 0 0 0 0 0 0 0 0 0 0 0 0 0 0 0
0 0 0 0 0 0 0 0 0 0 0 0 0 0 0 0 10 26 34 3 0 0 0 0 0 0 0 0 0 0 0 0 0 0 0 0 0 0 0 0 0 0 0
0 0 0 0 0 0 0 0 0 0 0 0 0 0 0 0 0 0 0 0 0 0 0 0 0 0 0 0 0 0 0 0 0 0 0 0 0 0 0 0 0 0 0
0 0 0 0 0 0 0 0 0 0 0 0 0 0 0 0 0 0 0 0 0 0 0 0 0 0 0 0 0 0 0 0 0 0 0 0 0 0 0 0 0 0 0
0 0 0 0 0 0 0 0 0 0 0 0 0 0 0 0 0 0 0 0 0 0 3 1 9 0 0 0 0 0 0 0 0 0 0 0 0 0 0 0 0 0 0

GFSSE_con_sbcape_045.txt.gz
CAPE
383 984 2128 2149 1755 1627 1622 1633 1658 1584 1339 867 617 341 73 0 0 0 166 175 99 28 27 24 14 6 1 0 4 0 0 0 0 0 0 5 14 4 7 5 0 0 0
972 1384 2171 2077 1904 2045 2159 2020 1648 1477 1363 842 558 183 15 0 0 11 163 20 1 2 2 3 2 0 0 0 1 0 0 0 0 0 0 0 0 2 1 0 0 0 0
1223 1501 1919 2293 2291 2401 2133 1778 1679 1510 1331 944 274 83 0 0 2 26 194 9 7 5 3 2 1 0 0 0 1 1 1 0 0 0 0 0 0 0 0 0 0 0 0
1271 1531 1780 2384 2488 2201 1912 1840 1665 1296 827 470 273 4 0 8 161 148 264 55 6 1 0 0 0 0 0 0 0 0 0 0 0 0 0 0 0 21 0 0 1 49 168
1142 1355 1596 2327 2367 2149 1894 1880 1571 1147 601 381 135 0 0 366 288 335 366 26 0 0 0 0 0 0 0 0 0 0 0 0 0 0 0 0 0 86 62 121 147 314 286
1128 1233 1675 2209 2303 2119 1963 2040 1673 754 332 102 26 0 0 493 577 261 57 0 0 0 0 0 0 0 0 0 0 0 0 0 0 0 0 0 0 169 220 193 158 127 108
790 1375 1762 2359 2192 2065 1923 2048 1494 853 322 84 3 0 94 210 186 72 0 0 0 0 0 0 0 0 0 0 0 0 0 0 0 0 0 0 0 76 159 113 58 42 36
597 978 1326 1777 2046 1884 1927 1535 1240 980 341 51 13 8 55 110 118 51 32 7 1 2 1 0 0 0 0 0 0 0 0 0 0 0 0 0 0 2 118 46 0 2 3
239 190 249 487 691 853 1178 1256 1161 885 475 160 95 83 74 52 21 22 53 43 33 31 0 0 0 0 0 0 0 0 0 0 0 0 0 0 0 0 90 47 11 13 4
33 6 0 20 107 151 445 748 777 562 368 169 113 83 41 40 57 83 90 106 109 66 0 0 0 0 0 0 0 0 0 0 0 0 0 0 0 30 138 35 24 13 4
2 0 0 0 9 18 31 299 472 268 149 96 68 26 11 3 32 46 29 68 169 94 8 0 0 0 0 0 0 0 0 0 0 0 0 11 41 202 138 88 26 30 7
0 0 0 0 4 12 34 54 158 69 45 30 14 4 0 0 9 26 32 62 117 79 34 10 0 0 0 0 0 0 0 0 0 0 0 188 173 210 159 103 11 24 7
0 0 6 6 9 10 27 6 28 23 1 0 0 0 0 0 0 10 8 37 51 78 1 2 0 0 0 0 0 0 0 0 0 0 9 231 307 252 156 15 6 9 2
10 0 8 7 0 0 0 0 0 10 0 0 0 0 0 0 0 0 0 4 12 29 0 0 0 0 0 0 0 0 0 0 0 0 0 125 319 160 40 0 4 5 1
63 25 7 0 0 0 0 0 0 0 0 0 0 0 0 0 0 0 0 0 0 0 0 0 0 0 0 0 0 0 0 0 0 0 0 14 72 164 36 19 10 11 8
107 115 33 23 0 0 0 0 0 0 0 0 0 0 0 0 0 0 0 0 0 0 0 0 0 0 0 0 0 0 0 0 0 0 0 0 1 92 105 20 9 10 15
62 73 87 72 26 0 0 0 0 0 0 0 0 0 0 0 0 0 0 0 0 0 0 0 0 0 0 0 0 0 0 0 0 0 0 0 0 14 74 18 7 6 12
81 61 29 170 50 1 0 0 0 0 0 0 0 0 0 0 0 0 0 0 0 0 0 0 0 0 0 0 0 0 0 0 0 0 0 0 0 0 0 68 70 4 7
99 133 110 97 97 66 0 0 0 0 0 0 0 0 0 0 0 0 0 0 0 0 0 0 0 0 0 0 0 0 0 0 0 0 0 0 0 0 0 0 0 14 12
0 12 92 77 116 99 33 0 0 0 0 0 0 0 0 0 0 0 0 0 0 0 0 0 0 0 0 0 0 0 0 0 0 0 0 0 0 0 0 0 0 0 0
0 0 0 0 0 11 35 81 33 74 31 7 0 78 0 0 0 0 0 0 0 0 0 0 0 0 0 0 0 0 0 0 0 0 0 0 0 0 0 0 0 0 0
0 0 0 0 0 0 0 0 0 0 0 0 0 0 0 0 0 0 0 0 0 0 0 0 0 0 0 0 0 0 0 0 0 0 0 0 0 0 0 0 0 0 0
0 0 0 0 0 0 0 0 0 0 0 0 0 0 0 0 0 0 0 0 0 0 0 0 0 0 0 0 0 0 0 0 0 0 0 0 0 0 0 0 0 0 0
0 0 0 0 0 0 0 0 0 0 0 0 0 0 0 0 0 0 0 0 0 0 0 0 0 0 0 0 0 0 0 0 0 0 0 0 0 0 0 0 0 0 0
0 0 0 0 0 0 0 0 0 0 0 0 0 0 0 0 0 0 0 0 0 0 0 0 0 1 0 0 0 0 0 0 0 0 0 0 0 0 0 0 0 0 0
0 0 0 0 0 0 0 0 0 0 0 0 0 0 0 0 0 0 0 0 0 0 0 0 0 0 1 1 0 0 0 0 0 0 0 0 0 0 0 0 0 0 0

GFSSE_con_sbcape_048.txt.gz
CAPE
59 796 2247 1896 1681 1695 1658 1526 1552 1526 1023 417 431 156 52 0 0 160 117 105 16 12 19 11 6 4 4 4 3 0 0 0 0 0 0 6 1 4 3 0 0 0 32
199 1050 2200 2131 1785 1810 2018 1960 1891 1540 1275 596 334 91 0 0 1 231 37 1 0 0 2 8 8 2 0 3 2 0 0 0 0 0 0 0 0 1 0 0 0 0 51
825 1132 1766 2182 2222 2261 2242 1535 1398 1306 1269 780 130 43 0 0 15 302 2 3 3 1 2 3 1 1 0 3 2 0 0 0 0 0 0 0 0 0 0 0 0 0 0
1136 1477 1590 2337 2454 2364 2134 1740 1563 1210 814 335 149 1 0 2 79 385 116 8 3 0 0 0 0 0 0 0 0 0 0 0 0 0 0 0 0 0 0 2 115 128 59
1143 1422 1800 2417 2384 2163 2044 1917 1534 986 621 397 69 0 26 333 279 462 160 17 0 0 0 0 0 0 0 0 0 0 0 0 0 0 0 0 0 5 125 167 191 250 179
986 1195 2044 2371 2282 2060 1987 1857 1518 827 572 213 8 0 407 726 734 493 71 0 0 0 0 1 0 0 0 0 0 0 0 0 0 0 0 0 0 230 252 149 127 87 46
931 1059 1891 2296 2197 2068 2030 1872 1406 765 302 64 3 4 499 691 413 119 28 0 0 0 2 0 0 0 0 0 0 0 0 0 0 0 0 0 0 205 172 93 44 3 1
969 1253 1530 2067 2046 1920 1925 1677 1258 878 313 36 33 92 325 386 159 72 37 14 0 1 0 0 0 0 0 0 0 0 0 0 0 0 0 0 0 13 130 5 0 0 3
712 935 1067 1495 1561 1476 1570 1350 1151 912 380 71 64 188 177 110 134 91 71 39 24 34 3 0 0 0 0 0 0 0 0 0 0 0 0 0 0 0 100 35 0 10 5
185 169 218 407 520 658 1106 968 840 646 367 174 105 89 43 41 53 66 96 95 69 36 4 0 0 0 0 0 0 0 0 0 0 0 0 0 0 0 144 16 12 10 12
19 0 0 10 22 58 216 568 469 291 130 74 57 32 23 11 29 44 26 50 129 66 11 0 0 0 0 0 0 0 0 0 0 0 0 2 51 128 180 89 18 24 22
24 0 0 0 0 2 29 85 204 67 39 18 9 2 0 0 7 20 19 38 89 78 23 4 0 0 0 0 0 0 0 0 0 0 0 54 132 226 212 131 11 5 5
2 0 0 0 0 0 17 24 30 15 6 1 0 0 0 0 0 4 0 7 21 50 1 1 0 0 0 0 0 0 0 0 0 0 1 72 351 385 206 48 1 0 4
10 0 0 0 0 0 0 1 10 6 0 0 0 0 0 0 0 0 0 0 2 5 0 0 0 0 0 0 0 0 0 0 0 0 0 7 267 242 177 1 0 0 0
18 0 0 0 0 0 0 0 0 0 0 0 0 0 0 0 0 0 0 0 0 0 0 0 0 0 0 0 0 0 0 0 0 0 0 0 18 214 159 48 35 5 4
52 29 0 0 0 0 0 0 0 0 0 0 0 0 0 0 0 0 0 0 0 0 0 0 0 0 0 0 0 0 0 0 0 0 0 0 0 70 148 70 43 12 7
75 71 41 20 0 0 0 0 0 0 0 0 0 0 0 0 0 0 0 0 0 0 0 0 0 0 0 0 0 0 0 0 0 0 0 0 0 0 63 104 48 32 15
89 105 71 122 47 0 0 0 0 0 0 0 0 0 0 0 0 0 0 0 0 0 0 0 0 0 0 0 0 0 0 0 0 0 0 0 0 0 0 100 244 59 16
43 71 62 81 92 49 0 0 0 0 0 0 0 0 0 0 0 0 0 0 0 0 0 0 0 0 0 0 0 0 0 0 0 0 0 0 0 0 0 0 16 53 110
5 25 69 74 76 48 30 0 0 0 0 0 0 0 0 0 0 0 0 0 0 0 0 0 0 0 0 0 0 0 0 0 0 0 0 0 0 0 0 0 0 0 0
0 0 0 0 0 32 22 13 0 59 0 0 0 0 0 0 0 0 0 0 0 0 0 0 0 0 0 0 0 0 0 0 0 0 0 0 0 0 0 0 0 0 0
0 0 0 0 0 0 0 0 0 0 0 0 0 0 0 0 0 0 0 0 0 0 0 0 0 1 0 0 0 0 0 0 0 0 0 0 0 0 0 0 0 0 0
0 0 0 0 0 0 0 0 0 0 0 0 0 0 0 0 0 0 0 0 0 0 0 0 0 0 0 1 0 0 0 0 0 0 0 0 0 0 0 0 0 0 0
0 0 0 0 0 0 0 0 0 0 0 0 0 0 0 0 0 0 0 0 0 0 1 0 0 0 0 0 0 0 0 0 0 0 0 0 0 0 0 0 0 0 0
0 0 0 0 0 0 0 0 0 0 0 0 0 0 0 0 0 0 0 0 0 0 0 0 1 1 0 0 0 0 0 0 0 0 0 0 0 0 0 0 0 0 0
0 0 0 0 0 0 0 0 0 0 0 0 0 0 0 0 0 0 0 0 0 0 1 0 0 0 0 2 2 0 0 0 0 0 0 0 0 0 0 0 0 0 0

GFSSE_con_sbcape_051.txt.gz
CAPE
330 1270 2235 2062 1919 1805 1792 1519 1360 811 834 333 335 219 41 93 194 201 161 49 10 11 12 7 8 33 66 7 0 0 0 0 0 0 0 2 2 0 0 0 0 14 171
396 1305 2171 2068 1986 2025 2035 1976 1684 1266 913 405 272 90 24 106 412 72 0 2 1 4 14 5 6 7 10 4 0 0 0 0 0 0 0 0 3 0 0 0 0 9 115
822 1188 1491 2019 2068 2181 2195 1749 1629 1397 1138 483 180 36 3 68 448 0 6 6 2 2 5 4 2 5 7 5 1 1 0 0 0 0 0 4 0 0 0 0 0 0 15
1069 1123 1355 2248 2251 2376 2068 1698 1599 1235 537 273 93 5 8 80 457 173 39 5 0 0 0 0 0 2 2 0 0 0 0 0 0 0 0 4 5 0 3 235 191 111 156
1146 1105 1715 2394 2457 2325 2062 1864 1566 1032 566 303 37 0 153 166 617 247 59 0 0 0 0 0 0 0 0 0 0 0 0 0 0 0 0 8 98 158 206 177 144 139 85
1234 1273 2017 2276 2365 2162 2067 1912 1417 837 605 189 0 0 618 399 664 293 25 0 0 1 2 0 0 0 0 0 0 0 0 0 0 0 0 0 57 201 172 97 45 3 0
1186 1550 1743 2279 2166 2071 1941 1788 1394 945 433 35 1 231 1045 937 550 139 17 0 0 1 1 0 0 0 0 0 0 0 0 0 0 0 0 0 0 207 149 42 7 0 0
1144 1784 1621 1992 2026 2004 1952 1555 1266 925 285 30 149 388 801 420 268 89 38 12 4 14 3 0 0 0 0 0 0 0 0 0 0 0 0 0 0 33 76 1 0 0 3
1264 1534 1622 1504 1467 1572 1586 1311 1106 901 351 121 403 573 377 507 170 82 63 28 17 29 2 0 0 0 0 0 0 0 0 0 0 0 0 0 0 0 80 8 2 1 7
1165 1133 1295 1454 1160 1228 1429 957 790 678 330 166 138 59 32 28 75 56 79 65 43 21 0 0 0 0 0 0 0 0 0 0 0 0 0 0 0 10 135 39 10 1 2
690 711 789 823 888 1079 934 705 526 334 148 69 57 21 11 33 38 53 25 42 85 37 3 0 0 0 0 0 0 0 0 0 0 0 0 3 29 87 216 77 8 0 0
557 313 286 355 416 598 576 647 416 170 67 43 40 29 20 22 33 34 16 22 54 58 6 0 0 0 0 0 0 0 0 0 0 0 0 4 141 165 311 112 3 0 0
499 187 80 88 62 152 275 411 291 102 47 32 13 0 0 0 21 34 25 31 57 49 27 2 0 0 0 0 0 0 0 0 0 0 0 1 147 409 285 113 0 0 0
266 228 56 17 31 30 44 232 187 66 44 27 9 0 0 0 0 4 4 11 25 42 60 11 0 0 0 0 0 0 0 0 0 0 0 0 37 294 182 22 1 0 0
228 153 41 10 17 17 26 37 146 109 39 18 0 0 0 0 0 0 0 0 2 11 14 16 0 0 0 0 0 0 0 0 0 0 0 0 0 92 270 148 48 18 8
217 196 70 40 11 6 15 22 37 90 69 16 0 0 0 0 0 0 0 0 0 0 0 0 0 0 0 0 0 0 0 0 0 0 0 0 0 2 99 150 49 37 11
214 239 130 71 37 22 24 24 26 19 31 62 19 0 0 0 0 0 0 0 0 0 0 0 0 0 0 0 0 0 0 0 0 0 0 0 0 0 0 106 105 58 30
157 222 210 133 78 39 19 15 12 0 0 22 38 36 0 0 0 0 0 0 0 0 0 0 0 0 0 0 0 0 0 0 0 0 0 0 0 0 0 6 166 172 78
144 183 211 277 263 141 26 0 0 0 0 0 26 29 26 3 0 0 0 0 0 0 0 0 0 0 0 0 0 0 0 0 0 0 0 0 0 0 0 0 2 115 269
90 113 191 220 314 246 149 34 14 0 0 0 0 0 0 0 0 0 0 0 0 0 0 0 0 0 0 0 0 0 0 0 0 0 0 0 0 0 0 0 0 0 1
0 0 87 161 186 185 197 258 224 268 171 88 53 2 0 0 0 0 0 0 0 0 0 0 0 0 3 1 1 0 0 0 0 0 0 0 0 0 0 0 0 0 0
0 0 0 0 0 82 122 117 142 128 114 106 51 47 34 37 0 0 0 0 0 0 0 0 3 3 3 0 1 0 0 0 0 0 0 0 0 0 0 0 0 0 0
0 0 0 0 0 0 0 0 0 0 0 0 0 0 0 0 0 1 3 2 2 1 1 3 1 3 15 1 0 1 2 1 0 0 0 0 0 0 0 0 0 0 0
0 0 0 0 0 0 0 0 0 0 0 0 0 0 0 0 0 0 0 0 2 1 4 1 1 2 3 3 0 0 0 0 0 0 0 0 0 0 0 0 0 0 0
0 0 0 0 0 0 0 0 0 0 0 0 0 0 0 0 0 0 0 0 0 0 0 2 3 2 2 1 0 0 0 0 0 4 0 3 0 0 0 0 0 0 0
0 0 0 0 0 0 0 0 0 0 0 0 0 0 0 0 0 0 0 0 0 1 0 0 0 2 2 2 0 0 0 0 0 0 1 0 0 0 0 0 0 0 0

GFSSE_con_sbcape_054.txt.gz
CAPE
807 1256 2475 2072 1754 1617 1646 1558 1413 1146 775 434 384 105 281 275 410 238 120 61 11 13 9 59 213 202 13 3 0 0 0 0 0 0 0 1 0 0 0 0 46 54 4
619 876 2311 2453 2111 2032 2020 1747 1413 1079 930 533 285 90 398 530 208 7 3 1 3 16 15 7 9 10 11 3 0 0 0 0 0 0 0 0 0 0 0 0 1 101 102
730 703 1174 2424 2387 2206 2057 1729 1419 1069 906 337 150 67 386 476 22 58 8 1 4 11 6 10 11 7 9 4 1 0 0 0 0 0 0 2 0 0 36 0 0 0 67
810 756 861 2273 2375 2330 2049 1665 1545 801 472 246 86 41 192 558 234 102 4 0 1 2 1 2 6 3 0 0 0 0 0 0 0 0 12 17 11 74 292 224 119 162 134
860 707 1197 2145 2430 2246 1883 1740 1308 704 467 156 32 59 152 716 418 130 0 0 0 0 0 0 0 0 0 0 0 0 0 0 0 0 13 101 65 214 207 127 69 15 10
812 751 1769 2357 2402 2202 1931 1866 1182 765 485 100 5 229 286 875 537 67 0 0 0 0 0 0 0 0 0 0 0 0 0 0 0 0 0 2 216 175 106 2 0 0 1
713 1250 1474 2337 2385 2232 2090 1755 1362 773 295 23 66 612 573 940 444 78 1 0 0 0 0 0 0 0 0 0 0 0 0 0 0 0 0 0 5 172 50 0 0 0 3
848 1218 1449 1857 2100 2061 1878 1559 1365 704 179 14 222 1222 1386 603 283 83 28 0 18 14 0 0 0 0 4 0 0 6 0 0 0 0 0 0 0 80 18 0 0 1 3
1037 1087 1631 1359 1420 1675 1476 1338 1162 773 234 145 511 584 784 624 246 81 48 25 41 24 0 0 0 4 1 0 0 0 0 0 0 0 0 0 0 5 64 3 0 0 0
1576 1464 1196 1278 991 1148 1309 876 820 712 330 413 459 90 70 112 157 119 78 55 50 8 0 0 0 0 0 0 0 0 0 0 0 0 0 0 0 21 123 26 0 0 0
1192 1307 971 1164 880 1079 1422 637 487 352 162 115 63 17 22 37 43 44 22 39 52 9 0 0 0 0 0 0 0 0 0 0 0 0 0 0 28 103 219 43 0 0 0
913 979 965 973 805 967 1209 642 521 177 180 108 42 9 0 0 8 23 15 16 39 31 0 0 0 0 0 0 0 0 0 0 0 0 0 0 42 196 302 106 0 0 0
610 693 942 1124 997 1038 916 734 463 241 316 237 81 34 0 0 1 10 10 2 21 16 43 7 1 0 0 0 0 0 0 0 0 0 0 0 11 222 313 158 0 0 0
687 736 763 736 897 920 944 845 544 443 304 302 146 48 7 0 0 0 0 0 0 13 28 28 6 0 0 0 0 0 0 0 0 0 0 0 0 73 321 60 0 0 0
1007 948 817 636 579 619 775 745 614 503 339 279 208 74 34 10 0 0 0 0 0 0 0 11 13 0 0 0 0 0 0 0 0 0 0 0 0 0 117 254 142 44 3
1028 1055 925 696 602 463 430 570 734 637 452 340 228 139 58 37 24 0 0 0 0 0 0 0 5 16 18 7 11 0 0 0 0 0 0 0 0 0 4 100 120 57 64
828 811 814 651 498 411 296 334 382 425 433 321 256 176 99 61 52 20 25 0 0 0 0 0 0 1 15 19 19 21 0 12 0 0 0 0 0 0 0 1 80 98 73
782 731 645 483 465 411 308 260 190 184 225 233 266 265 158 74 66 80 77 72 37 0 0 0 0 38 63 94 95 109 120 63 54 50 31 0 0 0 0 0 0 108 134
795 681 625 606 554 500 503 383 339 276 317 343 334 322 295 230 141 144 183 186 146 94 36 53 39 53 119 208 195 140 141 138 71 42 58 17 0 0 0 0 0 9 157
775 740 617 672 756 822 744 605 460 407 355 328 350 325 247 251 227 262 306 367 367 329 241 196 68 71 101 181 128 56 112 93 65 51 4 0 0 0 0 0 0 0 0
176 627 620 604 900 982 990 906 936 887 693 541 442 374 320 312 250 270 409 387 422 363 316 281 223 234 276 172 2 13 120 3 37 2 0 0 0 0 0 0 0 0 0
0 119 358 523 749 916 935 947 972 1019 999 991 902 824 758 731 661 578 544 524 457 357 345 298 257 102 9 19 32 0 3 2 8 0 0 0 0 0 0 0 0 0 0
0 0 0 2 45 200 442 184 8 0 0 48 244 260 0 0 0 1 90 131 118 43 21 116 141 121 107 16 3 16 21 6 11 11 0 0 0 0 0 0 0 0 0
0 0 0 0 0 0 0 0 1 41 43 0 0 0 0 0 0 0 0 0 0 1 4 0 2 2 48 5 2 3 3 25 24 6 2 0 0 0 0 0 0 0 0
0 0 0 0 0 0 0 0 0 0 0 0 0 0 0 0 0 0 0 0 0 0 0 0 0 2 3 5 10 2 2 1 0 5 9 11 1 0 2 0 0 0 0
0 0 0 0 0 0 0 0 0 0 0 0 0 0 0 0 0 0 0 0 0 0 1 1 2 2 2 17 16 22 0 8 6 4 2 0 3 2 5 1 0 0 0

GFSSE_con_sbcape_057.txt.gz
CAPE
1088 1479 2313 1880 1373 1620 1461 1200 1080 953 802 438 223 188 167 463 278 114 43 24 47 31 212 397 125 9 4 0 0 0 0 0 0 0 0 0 0 0 0 18 222 19 28
997 1253 2295 2257 1846 1895 1836 1151 1264 1180 964 530 168 377 528 182 4 1 1 4 18 10 100 117 14 12 5 2 1 0 0 0 0 0 0 0 0 0 0 0 5 4 157
823 1169 1643 2422 2256 2156 1910 1585 1316 1065 713 320 126 384 240 81 74 4 1 6 13 8 8 88 9 12 6 2 1 0 0 0 0 0 12 2 10 274 56 2 141 191 158
626 945 1278 2550 2325 2250 1825 1409 1147 676 393 230 83 341 452 244 53 2 0 2 4 5 8 8 5 2 2 0 0 0 0 0 0 1 18 32 94 248 244 152 43 5 10
556 757 1719 2368 2469 2141 1758 1396 906 567 332 124 66 198 824 582 155 0 0 0 0 0 3 4 1 0 0 0 0 0 0 0 0 1 50 101 68 147 41 3 2 3 2
566 713 1611 2388 2415 2091 1840 1560 898 617 206 45 92 207 804 757 138 0 0 0 0 0 0 0 0 0 0 0 0 0 0 0 0 0 0 98 123 92 9 1 1 2 2
566 1417 1300 2439 2212 2079 1933 1626 1116 593 90 28 305 673 877 608 148 6 0 2 1 0 0 0 0 0 0 0 0 0 0 0 0 0 0 0 1 59 1 0 0 1 2
685 1138 1115 1988 2072 1894 1768 1518 1177 441 20 70 539 927 1169 542 232 43 8 21 17 0 0 0 0 0 0 0 0 0 0 0 0 0 0 0 1 85 4 0 0 0 0
928 863 1217 1482 1408 1564 1402 1330 1096 510 78 95 708 1077 843 646 217 56 26 30 31 13 0 0 0 0 0 0 0 0 0 0 0 0 0 0 0 26 24 0 0 0 0
786 1175 1364 1058 1044 1098 1031 851 773 515 282 779 328 227 166 186 213 104 49 52 33 0 0 0 0 0 0 0 0 0 0 0 0 0 0 0 0 25 91 8 0 0 0
1319 967 1118 778 808 814 828 480 427 199 134 221 35 19 29 38 53 33 18 58 38 4 0 0 0 0 0 0 0 0 0 0 0 0 0 0 13 58 266 45 0 0 0
1295 1016 1103 1033 656 1300 1028 455 554 173 89 26 0 8 3 0 3 17 17 17 50 15 0 0 0 0 0 0 0 0 0 0 0 0 0 0 0 71 247 129 0 0 0
801 1084 839 800 751 1490 1099 694 532 239 270 238 55 3 0 0 0 0 6 0 6 12 28 0 0 0 0 0 0 0 0 0 0 0 0 0 0 0 306 255 0 0 0
668 634 590 775 836 910 907 716 516 332 220 280 210 61 5 0 0 0 0 0 0 10 17 18 1 0 0 0 0 0 0 0 0 0 0 0 0 0 85 131 0 0 0
611 557 571 805 768 759 796 825 532 489 240 206 206 122 41 11 0 0 0 0 0 0 0 0 5 0 0 1 0 0 0 0 0 0 0 0 0 0 0 62 185 94 12
1016 767 669 600 552 563 697 668 582 454 322 184 177 172 84 52 30 0 0 0 0 0 0 0 1 28 33 29 27 2 2 0 0 0 0 0 0 0 0 0 10 10 55
970 988 957 851 773 599 560 493 518 608 317 216 172 158 111 81 69 42 42 45 5 0 0 0 1 24 40 36 31 45 34 30 42 31 0 0 0 0 0 0 0 0 26
1095 1078 972 746 587 415 278 293 247 266 238 262 269 279 162 78 138 188 182 180 150 98 64 49 35 61 85 125 131 171 66 63 80 110 125 112 32 0 0 0 0 0 5
968 1004 1023 884 684 593 467 382 274 184 275 321 364 402 394 296 209 249 294 336 324 317 245 182 197 103 144 273 245 187 163 158 136 72 75 85 86 16 0 0 0 0 0
869 941 1008 954 761 691 693 642 569 490 424 428 478 511 480 480 457 444 419 331 228 291 343 350 155 367 307 209 141 112 205 189 155 105 48 8 4 2 0 0 0 0 0
730 951 1007 1008 932 847 999 920 898 819 706 618 557 501 499 504 495 549 648 409 365 328 324 391 417 290 335 251 104 32 126 100 42 7 24 7 0 0 0 0 0 0 0
0 722 941 970 963 1063 1098 1118 1154 1182 1052 1015 1059 805 729 609 684 613 605 559 519 572 574 378 199 318 190 108 55 0 2 0 26 18 0 0 0 0 0 0 0 0 0
0 7 554 710 765 899 1064 1077 798 558 419 674 901 801 487 0 16 128 261 272 241 181 183 217 101 96 58 13 3 11 36 4 19 21 14 0 0 0 0 0 0 0 0
0 0 0 8 128 116 235 364 256 401 620 305 62 0 0 0 0 0 0 0 0 3 15 3 8 20 57 20 4 2 11 41 27 11 6 3 5 0 8 13 0 0 0
0 0 0 0 0 0 0 0 0 0 0 0 0 0 0 0 0 0 0 0 0 0 0 0 0 0 10 3 5 26 29 7 0 0 2 0 0 0 0 10 0 0 0
0 0 0 0 0 0 0 0 0 0 0 0 0 0 0 0 0 0 0 0 0 0 0 0 1 0 3 8 5 21 35 1 0 1 1 12 0 0 0 3 0 0 0

GFSSE_con_sbcape_060.txt.gz
CAPE
1265 1690 2156 1988 1645 1569 1344 1141 888 939 862 304 235 305 510 219 47 14 6 88 489 422 270 64 26 4 1 0 0 0 0 0 0 0 0 0 0 1 32 40 32 64 136
1138 1473 2034 1994 1933 1726 1657 1284 1269 1147 1021 414 462 589 89 13 2 3 8 17 26 216 159 11 13 10 4 0 0 0 0 0 0 0 0 0 21 0 0 79 299 146 135
1052 1419 1745 2135 1963 1867 1682 1443 1312 1143 822 503 465 94 136 10 3 3 9 12 23 130 70 9 13 5 2 0 0 0 0 0 0 1 5 16 109 62 228 147 152 22 15
1084 1106 1469 2299 1999 1955 1641 1447 1147 632 270 224 495 412 180 20 0 1 4 7 10 10 8 9 5 1 0 0 0 0 0 0 0 19 20 14 77 258 117 12 9 9 8
956 902 1751 2265 2131 1888 1629 1340 733 344 186 94 522 970 585 108 0 0 0 1 3 7 4 3 1 0 0 0 0 0 0 0 0 21 19 18 15 13 7 2 1 2 3
613 1385 1924 2148 2050 1799 1553 1310 607 279 105 57 479 886 727 151 0 0 1 1 1 2 1 1 0 0 0 0 0 0 0 0 0 0 0 105 23 25 1 1 3 5 1
1137 1374 1869 2204 2075 1843 1647 1274 857 193 40 141 402 694 566 171 10 0 1 1 0 1 0 0 0 0 0 0 0 0 0 0 0 0 0 0 20 17 1 0 0 0 0
1042 1107 1543 1892 1891 1770 1592 1242 824 255 88 501 734 1083 539 246 72 0 0 0 0 0 0 0 0 0 0 0 0 0 0 0 0 0 0 0 39 38 13 0 0 0 0
926 998 1239 1378 1443 1425 1261 1070 692 207 281 801 1269 1213 785 447 137 29 20 30 19 5 0 0 0 0 0 0 0 0 0 0 0 0 0 0 0 63 24 0 0 0 0
738 797 1131 1010 1083 971 806 642 414 196 754 540 352 202 136 154 156 70 54 67 22 0 0 0 0 0 0 0 0 0 0 0 0 0 0 0 0 27 65 0 0 0 0
1027 1200 1201 1007 880 723 544 384 185 84 238 132 26 28 24 26 40 24 23 50 36 6 0 0 0 0 0 0 0 0 0 0 0 0 0 0 0 31 239 11 0 0 0
1005 1052 751 601 722 791 562 257 83 0 1 0 38 6 11 1 4 24 9 34 43 0 0 0 0 0 0 0 0 0 0 0 0 0 0 0 0 0 141 197 0 0 0
923 985 1038 920 710 854 460 346 278 81 62 11 0 0 0 0 0 0 0 0 0 2 0 0 0 0 0 0 0 0 0 0 0 0 0 0 0 0 82 315 0 0 0
998 786 756 688 987 1007 546 511 325 141 157 64 63 2 0 0 0 0 0 0 0 0 0 0 0 0 0 0 0 0 0 0 0 0 0 0 0 0 0 147 3 0 0
689 786 749 603 617 823 644 566 387 199 147 157 106 43 2 0 0 0 0 0 0 0 0 0 0 0 0 0 0 0 0 0 0 0 0 0 0 0 0 0 179 73 22
671 432 661 708 623 645 715 595 444 359 290 54 95 81 47 6 0 0 0 0 0 0 0 0 0 0 0 0 0 0 0 0 0 0 0 0 0 0 0 0 0 2 29
980 590 473 535 477 489 487 490 486 426 328 93 83 73 53 24 9 0 0 0 0 0 0 0 0 0 0 0 0 0 0 1 1 0 0 0 0 0 0 0 0 0 13
917 895 644 741 607 458 415 399 354 408 260 134 80 84 57 20 18 20 14 5 8 0 0 0 0 0 0 0 1 8 10 10 4 10 6 0 0 0 0 0 0 0 0
815 895 854 636 514 315 233 143 127 79 82 116 134 158 117 46 26 85 127 149 146 110 67 24 2 1 1 6 7 0 0 0 0 0 0 0 0 4 0 0 0 0 0
744 889 868 808 644 527 438 301 219 237 150 179 225 243 291 272 209 153 198 224 139 129 156 109 67 70 63 13 2 3 0 0 0 0 0 0 0 0 0 0 0 0 0
565 744 894 818 684 584 525 482 440 372 352 314 330 406 383 357 396 352 347 244 237 213 196 185 128 107 10 18 16 8 1 0 0 0 0 0 0 0 0 0 0 0 0
0 715 887 876 814 752 775 698 634 553 587 558 551 507 523 503 507 428 452 460 437 372 376 289 207 163 126 20 26 0 2 0 0 0 0 0 0 0 0 0 0 0 0
0 0 673 888 876 855 894 797 599 230 360 522 743 617 138 0 0 0 64 153 162 174 173 176 125 78 59 7 4 9 8 2 0 0 0 0 0 0 0 0 0 0 0
0 0 0 143 505 454 711 552 196 186 360 94 60 0 0 0 0 0 0 0 0 0 5 0 0 0 5 7 2 8 18 28 25 4 0 0 0 0 0 0 0 0 0
0 0 0 0 0 0 0 6 123 175 0 0 0 0 0 0 0 0 0 0 0 0 0 0 0 0 0 0 0 8 10 12 1 25 21 5 0 0 0 0 0 0 0
0 0 0 0 0 0 0 0 0 0 0 0 0 0 0 0 0 0 0 0 0 0 0 0 0 0 0 0 3 0 6 2 0 0 2 0 3 0 0 0 0 0 0

GFSSE_con_sbcape_063.txt.gz
CAPE
944 1612 2284 1948 1382 1300 1144 950 877 847 655 234 514 485 84 26 23 113 188 518 688 328 28 22 2 0 0 0 0 0 0 0 0 0 0 70 0 8 245 125 305 58 63
1146 1342 2150 2062 1779 1500 1204 1219 1249 1009 828 974 494 22 3 1 4 18 75 355 290 70 8 14 5 1 0 0 0 0 0 0 0 0 0 118 21 299 113 23 176 66 100
1251 1211 1567 2130 2005 1745 1523 1265 1310 967 788 847 379 55 5 2 8 17 7 89 231 47 12 9 4 2 0 0 0 0 0 0 0 0 0 0 32 220 12 17 6 9 12
1240 1208 1521 2090 1940 1765 1562 1112 990 601 345 928 648 105 4 1 6 14 10 5 8 11 10 7 4 1 0 0 0 0 0 0 12 104 5 1 4 10 7 4 7 4 2
1144 1338 1762 2040 1933 1739 1324 980 486 254 245 867 973 594 5 0 1 4 7 11 9 10 7 3 2 1 0 0 0 0 0 0 0 12 14 0 0 4 4 4 1 1 1
858 1452 1828 1879 1883 1676 1397 918 327 183 159 537 1073 608 14 0 2 1 3 4 5 5 3 2 0 0 0 0 0 0 0 0 0 0 16 33 0 18 3 0 0 0 0
1331 1591 1584 1971 1837 1568 1320 916 537 188 147 392 999 507 99 0 0 2 1 2 3 2 2 1 0 0 11 6 0 0 0 0 0 0 0 7 13 20 0 0 0 0 0
1421 1538 1570 1742 1662 1478 1256 892 524 332 376 623 1222 711 229 49 0 0 0 0 0 0 0 9 21 0 0 4 0 0 0 0 0 0 0 0 76 22 0 0 0 0 0
1340 1411 1424 1405 1305 1187 1008 639 334 585 845 889 1166 819 513 169 22 0 20 18 2 0 0 8 9 0 0 0 0 0 0 0 0 0 0 0 5 53 0 0 0 0 0
1097 1200 1084 1110 1090 764 509 329 167 669 544 812 762 428 174 104 75 42 69 41 0 0 0 4 1 0 0 0 0 0 0 0 0 0 0 0 0 10 35 0 0 0 0
930 899 922 885 793 553 300 54 76 370 131 82 54 39 31 13 6 0 4 14 14 0 0 0 0 0 0 0 0 0 0 0 0 0 0 0 0 16 172 13 0 0 0
1062 988 827 757 656 448 314 3 0 36 32 0 0 2 0 0 0 0 0 0 0 0 0 0 0 0 0 0 0 0 0 0 0 0 0 0 0 0 66 209 1 0 0
857 814 811 820 660 430 239 76 0 0 0 0 0 0 0 0 0 0 0 0 0 0 0 0 0 0 0 0 0 0 0 0 0 0 0 0 0 0 0 220 0 0 0
948 819 884 758 718 395 181 248 18 0 0 0 0 0 0 0 0 0 0 0 0 0 0 0 0 0 0 0 0 0 0 0 0 0 0 0 0 0 0 137 237 0 0
719 774 807 637 859 434 320 353 162 15 46 0 0 0 0 0 0 0 0 0 0 0 0 0 0 0 0 0 0 0 0 0 0 0 0 0 0 0 0 0 80 104 45
410 747 646 600 910 525 506 447 308 111 131 20 22 1 0 0 0 0 0 0 0 0 0 0 0 0 0 0 0 0 0 0 0 0 0 0 0 0 0 0 0 1 45
346 589 681 596 555 743 637 525 399 227 252 38 44 34 13 0 0 0 0 0 0 0 0 0 0 0 0 0 0 0 0 3 0 0 0 0 0 0 0 3 0 0 10
557 514 560 685 466 514 610 532 490 412 174 130 40 34 31 10 0 0 0 0 0 0 0 0 0 0 0 0 1 4 5 9 4 0 0 0 0 0 0 9 21 11 1
598 628 516 652 467 511 438 395 338 289 176 53 24 32 37 15 0 9 5 0 0 0 0 0 0 0 2 7 10 9 1 0 0 0 0 0 0 0 0 0 0 0 0
422 681 584 562 470 263 214 136 29 22 19 28 43 49 40 28 11 14 29 53 80 60 57 43 21 8 9 17 18 16 7 0 0 0 0 0 0 0 0 0 0 0 0
386 466 539 587 444 333 292 236 127 132 136 57 88 140 198 162 143 72 90 146 140 193 135 136 67 53 27 7 42 24 5 14 9 0 0 0 0 0 0 0 0 0 0
151 483 458 554 439 488 394 334 345 221 233 253 231 266 364 369 391 361 376 381 391 360 347 325 255 205 65 30 31 5 34 1 0 0 0 0 0 0 0 0 0 0 0
0 346 642 510 613 491 563 466 254 248 301 499 489 310 0 0 0 0 27 106 184 184 211 160 120 85 25 8 8 48 31 1 0 0 0 0 0 0 0 0 0 0 0
0 0 459 478 606 555 593 540 378 325 240 132 108 0 0 0 0 0 0 0 0 0 0 0 0 0 0 0 0 0 1 27 24 6 0 0 0 0 0 0 0 0 0
0 0 0 17 10 0 57 126 67 122 0 0 0 0 0 0 0 0 0 0 0 0 0 0 0 0 0 0 0 0 0 0 3 19 11 0 0 0 0 0 0 0 0
0 0 0 0 0 0 0 0 34 0 0 0 0 0 0 0 0 0 0 0 0 0 0 0 0 0 0 0 0 0 0 0 0 0 0 0 0 0 0 0 0 0 0

GFSSE_con_sbcape_066.txt.gz
CAPE
747 1449 1925 1718 1316 1300 1160 955 674 392 611 637 373 219 126 167 445 627 698 496 286 95 37 2 0 0 0 0 1 0 0 6 34 1 0 137 256 169 35 18 18 0 3
1090 1508 1962 1831 1580 1415 1142 835 674 888 701 689 3 0 0 45 204 504 469 332 94 63 10 1 0 0 1 4 4 1 0 0 0 0 57 99 214 82 11 6 26 5 148
1191 1523 1523 1896 1660 1520 1282 755 578 695 757 502 6 1 3 7 16 175 461 134 13 15 7 1 0 0 0 0 0 0 0 0 0 0 77 3 4 12 7 6 9 4 5
1117 1398 1450 1836 1768 1445 1216 775 748 609 796 570 7 1 4 10 9 13 12 13 13 9 3 2 0 0 0 0 0 0 31 198 137 56 0 0 0 8 5 7 7 3 0
882 1314 1582 1810 1630 1484 1024 769 606 862 817 701 83 1 2 6 14 24 8 8 8 4 4 3 0 0 0 0 0 0 0 77 82 12 0 0 0 9 3 2 0 0 0
984 1253 1652 1717 1626 1478 1156 831 417 878 749 640 112 0 0 2 5 10 7 7 6 4 3 2 0 0 0 0 0 0 0 0 0 0 9 13 0 0 0 0 0 0 0
1260 1369 1471 1756 1477 1304 936 773 633 651 992 793 227 4 0 1 3 5 6 7 6 3 2 0 0 10 10 0 0 0 0 0 0 0 0 0 0 0 0 0 0 0 0
1326 1264 1251 1333 1439 1267 852 721 599 699 885 1152 692 98 0 1 2 3 6 6 5 2 1 3 0 0 0 0 0 0 0 0 0 0 0 0 34 0 0 0 0 0 0
1343 1242 1248 1163 1124 979 782 570 495 732 895 1280 890 521 156 21 7 1 0 0 0 0 8 14 9 0 0 0 0 0 0 0 0 0 0 0 28 16 0 0 0 0 0
1301 1211 1088 1023 862 503 215 300 620 831 940 1075 729 379 100 34 40 35 57 37 0 0 11 11 7 0 0 0 0 0 0 0 0 0 0 0 0 40 36 0 0 0 0
1020 902 871 737 573 262 60 71 458 349 643 738 314 107 33 0 3 11 0 4 5 0 0 0 0 0 0 0 0 0 0 0 0 0 0 0 0 12 95 125 0 0 0
771 831 828 664 424 211 63 0 128 117 43 21 8 0 0 0 0 0 0 0 0 0 0 0 0 0 0 0 0 0 0 0 0 0 0 0 0 0 46 175 0 0 0
698 968 787 690 470 251 91 0 0 0 0 0 0 0 0 0 0 0 0 0 0 0 0 0 0 0 0 0 0 0 0 0 0 0 0 0 0 0 0 52 334 0 0
405 805 803 750 550 226 84 0 0 0 0 0 0 0 0 0 0 0 0 0 0 0 0 0 0 0 0 0 0 0 0 0 0 0 0 0 0 0 0 0 340 73 0
429 506 563 709 687 312 133 95 2 0 0 0 0 0 0 0 0 0 0 0 0 0 0 0 0 0 0 0 0 0 0 0 0 0 0 0 0 0 0 0 39 187 98
360 560 371 838 723 384 267 301 119 24 15 14 1 0 0 0 0 0 0 0 0 0 0 0 0 0 0 0 0 0 0 0 0 0 0 0 0 1 21 3 7 30 53
508 539 519 494 514 454 445 496 303 120 73 25 25 0 0 0 0 0 0 0 0 0 0 0 0 0 0 0 0 0 0 2 0 0 0 0 0 0 3 19 51 25 30
388 686 618 684 885 599 580 562 518 362 201 140 27 21 4 0 0 0 0 0 0 0 0 0 0 0 0 0 0 0 5 1 0 2 0 0 0 0 0 3 75 40 19
411 572 685 494 416 646 691 613 521 441 268 193 72 46 25 1 0 0 0 0 0 0 0 0 0 0 1 4 4 10 3 2 2 0 0 0 0 0 0 0 0 0 0
439 369 353 412 461 532 442 388 274 292 97 102 30 13 12 3 1 6 14 17 22 35 25 0 2 6 19 16 15 28 6 22 5 0 0 0 0 0 0 0 0 0 0
382 360 380 406 483 349 247 263 115 112 33 14 0 1 15 35 7 5 28 47 42 64 120 76 59 130 110 3 30 3 0 0 0 0 0 0 0 0 0 0 0 0 0
450 450 386 472 347 368 344 223 139 82 85 68 25 111 177 167 177 97 120 167 200 262 265 270 234 211 134 19 16 0 5 0 0 0 0 0 0 0 0 0 0 0 0
149 386 532 601 516 456 307 197 174 151 181 206 164 142 43 86 235 247 259 277 236 200 229 142 85 91 26 0 0 2 4 0 0 0 0 0 0 0 0 0 0 0 0
0 69 472 610 623 475 350 361 277 298 286 179 141 8 0 0 0 0 0 0 0 0 0 0 0 0 0 0 0 0 0 0 16 0 0 0 0 0 0 0 0 0 0
0 0 0 283 382 382 420 395 318 188 121 0 0 0 0 0 0 0 0 0 0 0 0 0 0 0 0 0 0 0 0 0 0 0 0 0 0 0 0 0 0 0 0
0 0 0 3 8 1 38 96 203 189 0 0 0 0 0 0 0 0 0 0 0 0 0 0 0 0 0 0 0 0 0 0 0 0 0 0 0 0 0 0 0 0 0

GFSSE_con_sbcape_069.txt.gz
CAPE
600 992 1499 1502 1210 1120 960 621 258 527 767 297 185 301 752 824 961 779 575 336 205 16 0 0 1 2 7 8 6 28 10 8 4 15 199 256 72 14 11 46 11 19 256
850 1016 1614 1717 1342 1170 970 656 344 873 737 167 67 204 586 766 759 803 390 251 48 6 1 1 8 9 11 7 2 0 0 1 0 104 98 18 17 9 3 1 19 29 32
1076 1138 1225 1628 1392 1070 980 520 480 493 426 8 1 17 298 598 711 508 174 49 21 3 0 0 3 1 0 0 0 0 0 0 64 121 25 0 0 7 7 4 3 9 10
1113 1106 1001 1549 1314 1072 657 532 833 670 47 1 0 5 20 156 590 309 116 13 4 3 1 0 0 0 0 0 0 163 172 17 32 11 0 0 0 3 3 1 2 1 1
1107 1115 1210 1591 1497 1299 643 746 815 659 59 1 5 14 47 5 25 10 41 11 5 4 2 0 0 0 0 0 0 73 199 104 41 0 0 0 0 0 0 0 0 0 0
887 1113 1255 1367 1444 1394 1056 1040 946 442 195 1 2 7 14 17 5 6 8 6 5 4 1 0 0 0 0 0 0 0 1 59 0 0 0 0 0 0 0 1 0 0 0
934 1128 1042 1376 1200 1113 916 963 1179 1086 533 7 2 4 8 10 13 8 6 8 4 2 0 0 0 0 0 0 0 0 0 0 0 0 0 0 0 0 0 1 1 0 0
1122 1155 999 1242 1211 1110 867 841 1110 1368 805 134 8 1 3 5 9 10 9 7 5 13 0 0 0 0 0 0 0 0 0 0 0 0 0 0 1 0 0 0 0 0 0
1100 1085 1003 991 942 811 750 668 746 1209 1057 742 337 40 3 3 2 3 4 3 20 21 18 3 0 0 0 0 0 0 0 0 0 0 0 0 1 1 0 0 0 0 0
1031 1058 870 796 608 311 301 380 508 744 993 864 479 145 21 28 46 6 39 37 3 10 11 9 1 0 0 0 0 0 0 0 0 0 0 0 0 10 0 1 0 0 0
1053 790 719 569 293 36 0 205 562 614 813 594 225 28 0 0 0 9 0 0 8 0 0 0 0 0 0 0 0 0 0 0 0 0 0 0 0 0 19 258 0 0 0
1025 821 600 493 270 59 0 92 135 189 392 250 39 6 0 0 0 0 0 0 0 0 0 0 0 0 0 0 0 0 0 0 0 0 0 0 0 0 0 116 31 0 0
563 584 616 427 264 90 1 0 4 0 2 20 0 0 0 0 0 0 0 0 0 0 0 0 0 0 0 0 0 0 0 0 0 0 0 0 0 0 0 0 96 69 0
262 464 690 657 361 167 5 0 0 0 0 0 0 0 0 0 0 0 0 0 0 0 0 0 0 0 0 0 0 0 0 0 0 0 0 0 0 0 0 0 95 101 53
360 208 273 382 519 235 63 1 0 0 0 0 0 0 0 0 0 0 0 0 0 0 0 0 0 0 0 0 0 0 0 0 0 0 0 0 0 9 4 4 21 101 119
40 2 138 295 359 332 179 97 14 1 0 0 0 0 0 0 0 0 0 0 0 0 0 0 0 0 0 0 0 0 0 0 0 0 1 0 0 0 35 17 24 38 44
265 52 222 322 315 266 167 117 102 56 11 15 4 0 0 0 0 0 0 0 0 0 0 0 0 0 0 0 0 0 0 0 1 5 0 2 1 0 0 17 61 40 34
287 171 338 450 527 459 225 157 250 189 101 77 46 8 0 0 0 0 0 0 0 0 0 0 0 0 0 0 0 0 5 3 5 3 0 2 0 0 0 0 41 32 26
382 338 297 280 219 252 416 478 449 267 151 148 51 29 0 0 0 0 0 0 0 0 0 0 0 0 0 1 4 7 0 8 6 1 2 0 0 0 0 0 0 0 0
374 484 439 411 544 510 587 535 393 487 299 194 142 90 48 5 0 0 0 0 0 0 0 0 0 9 24 56 22 15 1 0 0 0 0 0 0 0 0 0 0 0 15
455 305 407 406 350 320 262 290 250 246 166 50 58 66 45 26 3 0 0 0 5 37 65 69 84 118 114 9 28 2 0 0 0 0 0 0 0 0 0 0 0 0 0
410 328 413 428 386 388 309 229 125 37 19 41 32 57 60 34 45 24 20 35 66 118 124 109 163 170 150 64 15 0 3 0 0 0 0 0 0 0 0 0 0 0 0
212 349 433 475 446 429 288 127 60 10 70 92 122 126 118 110 141 119 122 198 238 212 258 193 144 143 100 0 0 10 5 0 0 0 0 0 0 0 0 0 0 0 0
0 191 372 403 375 240 145 150 178 96 130 167 151 12 0 0 0 0 0 0 0 0 0 0 0 0 0 0 0 0 0 0 7 1 0 0 0 0 0 0 0 0 0
0 0 137 318 404 402 279 287 239 160 106 0 0 0 0 0 0 0 0 0 0 0 0 0 0 0 0 0 0 0 0 0 0 10 4 0 0 0 0 0 0 0 0
0 0 0 128 350 240 269 298 318 263 41 0 0 0 0 0 0 0 0 0 0 0 0 0 0 0 0 0 0 0 0 0 0 0 0 0 0 0 0 0 0 0 0

GFSSE_con_sbcape_072.txt.gz
CAPE
301 713 1494 1403 1133 869 346 188 283 806 594 387 729 1063 1139 1072 964 867 535 216 13 0 0 2 8 43 72 56 23 4 5 7 238 101 35 64 13 8 11 31 30 29 263
509 858 1569 1668 1298 1060 698 185 636 774 561 406 623 824 930 903 929 644 317 126 3 1 4 5 11 23 55 11 6 5 2 158 82 0 0 1 16 8 4 0 1 4 36
791 931 1132 1633 1507 1229 903 314 673 512 178 115 477 758 875 885 670 477 163 48 1 1 7 11 12 4 0 0 0 0 40 174 55 15 0 0 0 6 4 2 3 4 1
824 977 882 1321 1255 990 478 455 713 86 0 6 369 642 759 867 464 148 88 8 3 1 8 6 1 0 0 67 292 43 58 51 5 0 0 0 0 0 0 0 0 0 0
875 813 925 1195 1247 915 503 907 462 16 1 2 181 511 722 917 434 161 11 8 7 3 2 1 0 0 0 47 268 209 166 32 0 0 0 0 0 1 1 0 0 0 0
791 831 1035 1155 1204 1034 1130 914 335 33 2 3 14 131 386 237 123 62 9 8 6 5 1 0 0 0 0 0 1 169 116 25 0 0 0 0 0 1 2 1 0 0 0
798 897 865 1084 1095 960 1021 853 792 130 2 4 10 13 17 43 13 7 8 8 6 3 1 0 0 0 0 0 0 0 0 0 0 0 0 0 0 4 4 2 2 0 0
842 843 676 854 1054 1077 926 871 1139 753 4 3 11 11 12 7 13 7 8 7 4 0 0 0 0 0 0 0 0 0 0 0 0 0 0 0 0 2 1 0 2 1 0
854 735 628 676 769 761 793 718 909 966 241 6 14 14 17 20 12 6 5 4 27 13 0 0 7 0 0 0 0 0 0 0 0 0 0 0 0 2 0 0 0 0 0
432 673 570 511 325 253 329 453 637 840 630 319 58 47 6 7 43 44 29 43 24 20 17 5 0 0 0 0 0 0 0 0 0 0 0 0 0 3 1 15 0 0 0
571 543 498 478 109 24 0 125 362 691 624 363 61 0 0 0 0 0 0 0 17 0 0 0 0 0 0 0 0 0 0 0 0 0 0 0 0 0 0 82 0 0 0
633 657 446 354 71 0 14 75 121 223 529 87 11 0 0 0 0 0 0 0 10 0 0 0 0 0 0 0 0 0 0 0 0 0 0 0 0 0 0 12 42 0 0
731 789 407 391 113 5 0 47 38 42 204 92 0 0 0 0 0 0 0 0 0 0 0 0 0 0 0 0 0 0 0 0 0 0 0 0 0 0 0 0 14 91 38
292 500 512 356 175 37 0 29 36 45 64 54 0 0 0 0 0 0 0 0 0 0 0 0 0 0 0 0 0 0 0 0 0 0 0 0 0 0 0 7 30 116 97
54 215 260 313 277 123 0 1 34 47 60 48 0 0 0 0 0 0 0 0 0 0 0 0 0 0 0 0 0 0 0 0 0 0 0 0 0 0 6 8 23 73 118
36 155 128 262 273 226 101 11 3 18 40 16 0 0 0 0 0 0 0 0 0 0 0 0 0 0 0 0 0 0 0 0 0 0 0 0 0 0 8 20 27 49 51
89 8 10 21 226 280 212 98 63 7 0 0 3 0 0 0 0 0 0 0 0 0 0 0 0 0 0 0 0 0 0 0 0 2 1 2 0 0 1 34 40 52 39
130 22 60 66 81 282 282 196 251 145 58 17 3 0 0 0 0 0 0 0 0 0 0 0 0 0 0 0 0 0 0 0 0 2 3 0 0 0 0 0 21 41 25
246 178 223 249 313 410 299 215 265 317 108 93 17 0 0 0 0 0 0 0 0 0 0 0 0 0 0 0 0 2 0 0 0 0 0 0 0 0 0 0 9 0 1
425 277 183 146 231 325 111 274 243 264 278 209 76 47 4 0 0 0 0 0 0 0 0 0 0 0 14 33 41 17 0 0 0 0 0 0 0 0 0 0 0 10 48
449 428 202 200 243 190 176 165 146 102 62 187 143 133 70 18 3 0 0 0 0 0 4 20 44 70 109 42 26 0 0 0 0 0 0 0 0 0 0 0 0 0 0
368 284 238 217 301 139 126 105 79 56 51 147 128 94 63 43 22 8 0 0 0 24 63 93 113 133 123 38 39 0 0 0 0 0 0 0 0 0 0 0 0 0 0
132 338 396 486 330 268 226 83 17 20 10 25 28 36 52 60 45 31 10 30 68 136 178 177 191 248 218 0 0 17 6 0 0 0 0 0 0 0 0 0 0 0 0
0 8 309 356 228 171 118 86 1 44 60 2 32 0 0 13 25 11 6 3 7 0 3 2 0 14 1 3 0 0 0 0 0 0 0 0 0 0 0 0 0 0 0
0 0 0 203 268 248 183 201 182 176 125 65 18 0 0 1 1 0 0 0 0 0 0 0 0 0 0 0 0 0 0 0 0 0 0 0 0 0 0 0 0 0 0
0 0 0 7 112 61 22 117 170 174 47 4 1 1 0 0 0 0 0 0 0 0 0 0 0 0 0 0 0 0 0 0 0 0 0 0 0 0 0 0 0 0 0

GFSSE_con_sbcape_075.txt.gz
CAPE
475 867 1458 1378 1112 799 476 476 932 895 911 810 149 626 949 1059 1043 984 584 117 95 3 5 8 178 261 12 10 12 26 302 78 2 0 0 11 8 8 7 1 86 26 15
603 864 1413 1443 1050 803 338 609 1108 884 932 852 1187 852 1045 1269 1045 636 225 6 2 3 6 13 78 13 15 8 3 20 177 39 0 0 0 6 10 2 0 0 1 6 161
867 897 990 1479 1475 1109 654 601 910 899 648 820 991 1295 1489 1272 896 456 105 4 5 8 10 27 11 6 3 14 26 168 151 31 0 0 0 0 0 1 0 0 0 0 1
901 966 928 1311 1385 1197 422 785 736 182 170 766 938 973 1009 919 559 341 13 2 8 14 53 12 4 8 150 126 82 146 95 2 0 0 0 0 0 2 1 0 0 0 0
1019 1028 943 1250 1193 1003 584 847 245 0 5 548 647 865 1028 965 465 59 9 5 90 105 9 2 0 37 272 532 126 130 49 0 0 0 0 0 3 6 3 0 0 0 1
1082 1086 1235 1199 1117 928 1137 970 97 0 0 56 631 659 998 903 174 6 13 14 11 10 2 0 0 0 48 226 216 152 45 0 0 0 0 0 9 11 9 3 0 0 0
1143 1127 947 1048 1188 1151 1322 784 287 2 3 3 65 327 739 365 24 12 7 7 5 2 1 0 0 0 0 0 13 83 6 0 0 0 0 2 11 11 10 7 2 0 0
1084 1031 800 724 1126 1274 861 671 486 14 6 18 92 141 244 10 9 12 10 11 7 1 0 0 0 0 0 0 0 0 0 0 0 0 0 2 7 7 2 1 2 0 0
1129 954 775 664 793 897 683 732 737 131 9 19 23 102 19 72 10 10 12 9 19 18 15 0 0 0 0 0 0 0 0 0 0 0 0 0 0 4 0 0 0 0 0
961 849 768 765 607 406 590 541 539 282 49 17 20 14 13 6 18 47 56 74 41 13 0 0 0 0 0 0 0 0 0 0 0 0 0 0 0 3 0 8 0 0 0
653 760 635 656 388 249 257 477 545 379 150 36 6 1 6 12 18 7 0 29 54 22 3 0 0 0 0 0 0 0 0 0 0 0 0 0 0 0 0 21 0 0 0
423 559 693 452 229 130 75 236 517 571 403 66 22 12 1 25 33 0 0 0 27 21 0 0 0 0 0 0 0 0 0 0 0 0 0 0 0 0 0 9 37 11 0
137 641 597 399 145 77 75 118 242 573 501 161 29 10 8 10 25 6 11 5 0 0 0 0 0 0 0 0 0 0 0 0 0 0 0 0 0 0 0 0 13 76 63
5 235 401 479 175 32 57 116 142 196 438 140 53 15 10 0 7 0 0 0 0 0 0 0 0 0 0 0 0 0 0 0 0 0 0 0 0 0 6 12 13 65 82
5 32 309 464 267 58 22 115 168 159 269 197 91 39 16 0 0 0 0 0 0 0 0 0 0 0 0 0 0 0 0 0 0 0 0 0 0 0 17 22 27 38 65
41 5 92 202 301 247 54 44 125 164 197 274 145 94 24 18 5 9 16 3 0 0 0 0 0 0 0 0 0 0 0 0 0 0 0 5 0 2 19 52 52 40 49
3 0 33 107 269 340 263 115 70 75 71 141 174 121 70 33 30 27 30 16 0 0 0 0 0 0 0 0 0 0 0 0 0 0 8 8 6 0 0 17 69 66 70
4 3 16 39 108 328 391 218 123 116 94 68 68 77 74 51 23 14 32 23 0 0 0 0 0 0 0 0 0 1 6 3 8 7 1 2 0 0 0 0 4 51 50
12 21 3 24 112 310 351 236 302 317 230 187 73 25 1 2 3 5 5 6 0 0 0 0 0 0 0 9 14 26 9 12 8 0 0 0 0 0 0 0 0 13 17
101 32 38 58 97 335 406 286 230 313 320 261 228 169 116 44 0 0 0 0 0 0 0 0 0 0 4 40 32 35 39 7 0 0 0 0 0 0 0 0 0 0 28
139 123 135 133 37 260 263 240 154 54 76 259 196 219 189 88 5 0 0 0 0 0 0 0 0 8 35 78 115 46 17 0 0 0 0 0 0 0 0 0 0 0 0
82 240 157 170 137 155 220 168 128 101 67 38 55 119 206 114 19 0 0 0 0 23 56 61 177 231 281 157 86 18 9 0 0 0 0 0 0 0 0 0 0 0 0
26 194 259 217 239 228 257 91 46 35 22 73 58 48 81 38 22 17 7 12 5 51 257 214 203 186 249 6 3 84 19 0 0 0 0 0 0 0 0 0 0 0 0
0 2 133 174 270 235 265 168 93 85 56 59 47 5 7 0 1 4 21 28 47 56 34 37 19 16 47 172 0 0 0 0 5 0 0 0 0 0 0 0 0 0 0
0 0 0 25 168 118 204 223 169 99 12 57 59 15 11 0 0 0 2 3 2 1 0 0 0 0 0 0 0 0 0 1 1 7 1 0 0 0 0 0 0 0 0
0 0 0 0 15 39 149 147 128 120 82 71 31 26 10 1 2 1 1 1 1 1 0 0 0 0 0 0 0 0 0 0 0 0 3 2 2 0 0 0 0 0 0

GFSSE_con_sbcape_078.txt.gz
CAPE
492 870 1611 1318 1143 783 670 666 834 891 781 470 787 1090 1004 1030 1129 1039 419 128 78 7 10 13 13 16 48 105 381 227 13 3 2 1 0 7 6 6 0 1 246 141 207
473 890 1607 1450 1258 785 953 1223 1235 1148 1141 637 1136 1013 1012 1131 1090 762 192 21 4 9 120 229 140 9 13 11 271 89 5 0 0 0 0 0 3 0 0 0 18 12 22
683 801 1101 1367 1386 1122 1139 975 926 722 861 1108 1208 1558 1363 1185 915 451 53 9 17 33 154 207 16 13 8 74 249 85 12 1 0 0 0 0 0 0 0 0 0 0 2
742 736 875 1289 1283 954 801 935 981 509 712 1143 1591 1655 1538 1283 743 199 55 34 102 175 90 12 10 7 29 91 188 42 2 0 0 0 0 0 0 1 1 1 0 0 0
627 611 806 1426 1431 1013 1005 957 411 288 606 880 1046 1292 1155 968 458 54 22 308 39 83 46 8 95 304 162 100 98 30 1 0 0 0 0 3 7 7 2 0 0 0 0
875 813 1160 1329 1277 1116 1394 918 125 7 430 687 844 884 941 958 136 17 52 300 249 139 7 18 41 207 409 282 135 38 0 0 0 0 3 4 17 7 10 1 0 0 2
856 931 1129 1174 1193 1211 1323 780 180 2 168 482 658 775 853 356 19 12 8 7 11 27 2 10 0 0 55 157 112 47 0 0 0 0 4 11 13 8 11 7 0 0 1
781 881 926 811 989 1365 1128 562 180 68 2 125 433 601 875 205 9 8 14 9 32 32 0 0 0 0 0 0 0 0 0 0 0 0 1 5 2 5 5 4 1 0 0
765 814 877 761 506 951 787 446 133 68 74 199 265 451 207 74 14 8 6 11 7 2 0 0 0 0 0 0 0 0 0 0 0 0 0 3 1 3 1 0 0 0 0
829 830 734 694 262 793 482 456 94 42 71 34 51 9 14 17 19 15 10 9 59 38 21 13 0 0 0 0 0 0 0 0 0 0 0 0 0 3 0 5 0 0 0
4 809 724 630 387 276 486 544 138 36 0 10 15 7 4 9 7 7 3 62 97 45 13 0 0 0 0 0 0 0 0 0 0 0 0 0 0 0 0 1 0 0 0
0 637 805 625 342 107 362 639 497 24 4 0 5 12 13 8 5 0 0 7 64 43 30 0 0 0 0 0 0 0 0 0 0 0 0 0 0 0 0 11 42 27 15
7 64 727 538 334 2 21 606 782 486 168 32 0 0 0 4 28 0 6 0 0 0 0 0 0 0 0 0 0 0 0 0 0 0 0 0 0 0 0 0 13 42 73
22 3 315 552 434 30 1 432 655 805 559 229 13 0 0 0 11 0 0 0 0 0 0 0 0 0 0 0 0 0 0 0 0 0 0 0 0 0 15 17 14 28 64
12 63 14 668 538 222 32 39 427 584 697 466 92 52 33 11 0 0 0 0 0 0 0 0 0 0 0 0 0 0 1 3 2 4 6 0 0 0 11 26 32 40 43
10 8 5 128 615 218 97 72 99 292 687 587 393 162 114 66 23 0 5 0 1 0 0 0 0 0 0 0 2 1 3 5 9 14 16 18 0 0 6 45 68 57 59
28 29 16 14 92 300 203 194 257 262 219 640 524 306 197 103 82 82 97 77 42 7 0 0 0 25 28 31 26 49 15 23 17 10 15 10 10 0 0 20 46 90 67
0 9 14 25 61 235 355 217 264 414 445 420 421 454 339 302 207 105 98 106 49 26 1 5 30 25 0 15 57 58 31 25 19 24 27 23 17 16 7 0 4 32 64
1 2 2 26 98 151 351 481 271 213 341 332 372 438 433 405 257 133 110 113 69 37 27 9 8 5 12 52 83 72 54 17 41 21 13 14 11 1 6 2 0 0 34
15 36 22 60 88 140 386 456 490 427 453 415 393 307 222 153 108 73 77 105 69 23 11 10 0 2 48 111 38 27 97 69 36 21 0 0 0 0 0 0 0 0 12
86 74 67 67 81 166 427 379 371 330 431 382 394 389 407 360 285 247 66 28 80 52 22 0 7 24 66 97 151 104 86 49 28 0 0 0 0 0 0 0 10 22 0
106 108 144 132 128 150 335 314 336 282 279 163 212 240 290 285 217 219 160 68 1 48 109 22 57 170 171 212 150 106 68 22 2 0 0 0 0 0 0 0 0 0 0
62 92 98 86 212 181 103 321 179 179 161 150 128 178 197 155 156 197 132 39 15 33 275 425 389 370 426 280 136 158 63 7 0 0 0 0 0 0 0 0 0 0 0
65 126 232 263 158 195 153 121 198 91 78 40 9 11 38 96 68 55 92 42 32 30 33 250 611 547 321 216 181 127 164 123 1 0 0 0 0 0 0 0 0 0 0
0 0 0 121 346 265 274 264 196 114 124 39 6 16 21 6 0 0 5 34 20 4 3 0 0 0 8 47 48 1 0 0 0 0 0 0 0 0 0 0 0 0 0
0 0 0 16 207 214 380 356 291 202 148 45 23 35 65 40 25 22 13 13 11 1 0 0 1 0 0 0 0 0 0 0 0 0 0 0 0 0 1 0 0 0 0

GFSSE_con_sbcape_081.txt.gz
CAPE
726 1094 1781 1454 1103 896 770 653 452 323 592 1071 1236 1134 961 1074 1075 856 464 83 25 6 8 10 19 257 462 581 124 8 5 3 1 0 0 3 4 0 39 132 383 100 204
631 875 1693 1707 1184 925 1003 1177 1191 1016 721 1161 1309 1148 1029 1219 1090 627 278 24 17 47 16 20 23 34 264 328 7 4 0 0 0 0 0 0 0 0 0 0 23 9 34
513 794 1105 1774 1509 1325 1469 1092 1022 930 1018 964 1485 1198 1104 1245 999 507 168 17 76 354 167 13 15 8 134 169 7 2 0 0 0 0 0 0 0 0 0 0 0 1 1
588 852 860 1625 1610 1363 1490 969 790 888 882 908 1429 1415 1435 1221 790 327 116 74 458 461 264 15 11 17 252 191 3 1 0 0 0 0 1 0 0 2 1 0 0 0 0
679 804 1019 1483 1491 1250 1335 859 647 770 815 1322 1159 1415 1268 1240 554 232 69 389 54 374 93 38 89 49 136 127 40 0 0 0 0 3 8 14 7 5 2 0 0 0 0
595 654 1199 1430 1464 1300 1528 1114 444 631 626 1338 1319 1315 866 960 351 131 475 112 251 8 45 199 485 224 232 111 53 0 0 0 0 3 3 13 4 6 6 1 2 1 2
699 906 1058 1230 1401 1431 1513 1051 356 502 572 753 1137 944 822 824 65 55 212 258 145 46 48 42 125 319 233 155 61 0 0 0 0 1 8 8 7 10 10 4 0 1 2
715 910 939 808 1060 1227 1177 696 334 399 533 587 781 795 755 253 24 8 59 59 24 7 10 0 0 10 54 71 35 0 0 0 0 0 4 1 1 7 6 2 0 0 0
4 630 863 740 678 939 894 444 285 292 503 455 571 614 474 160 26 12 12 7 19 3 0 0 0 0 0 0 0 0 0 0 0 0 1 3 0 1 0 0 0 0 0
0 0 575 730 350 342 493 292 175 175 366 364 375 73 28 6 11 18 5 5 87 73 23 0 0 0 0 0 0 0 0 0 0 0 0 0 0 1 0 3 0 0 0
0 0 1 660 374 253 340 104 30 55 0 52 0 0 0 5 5 9 5 5 83 76 25 3 0 0 0 0 0 0 0 0 0 0 0 0 0 0 0 0 0 0 0
0 0 0 4 563 256 492 187 2 0 1 0 4 0 6 5 5 2 3 6 93 63 28 0 0 0 0 0 0 0 0 0 0 0 0 0 0 0 0 5 21 23 20
36 1 5 0 18 311 482 392 65 0 0 5 11 4 1 5 2 6 42 24 5 0 0 0 0 0 0 0 0 0 0 0 0 0 0 0 0 0 10 5 16 42 77
2 10 8 0 0 323 477 525 479 16 7 1 3 7 4 13 15 1 0 0 0 0 0 0 0 0 0 0 0 0 0 0 0 1 1 0 0 0 9 33 38 36 77
1 2 10 10 8 119 66 544 578 536 121 11 1 1 2 3 8 0 0 0 0 0 0 0 0 0 0 0 0 0 1 6 7 14 24 0 0 0 13 31 63 54 58
41 4 1 0 4 43 90 452 686 711 551 310 31 1 0 0 0 0 0 0 0 0 0 0 0 0 0 0 1 5 7 10 10 27 26 15 0 0 1 30 74 99 84
38 17 36 6 4 20 268 146 340 740 743 548 353 90 80 48 18 0 1 3 10 0 0 0 0 0 0 1 3 24 15 20 24 21 17 24 14 0 3 20 30 52 82
33 19 0 3 15 65 400 372 183 202 342 560 536 492 239 166 98 82 113 127 84 31 2 0 0 1 24 16 26 46 34 34 18 14 24 20 21 11 5 20 5 3 30
31 1 1 11 51 122 305 370 327 315 393 317 403 526 484 434 326 198 94 149 123 92 27 5 10 23 28 28 60 86 45 37 2 14 7 8 7 6 8 4 0 0 13
19 21 6 18 9 68 276 313 352 414 502 390 427 452 504 526 468 264 161 207 237 185 60 42 19 24 19 45 43 30 39 11 76 18 7 0 0 0 0 0 3 0 0
45 62 67 55 45 83 232 324 376 296 342 334 531 471 379 343 329 358 368 213 191 204 108 51 36 25 32 158 97 96 66 39 48 35 0 0 0 0 0 0 10 8 0
115 56 46 68 80 107 159 202 231 286 248 310 361 356 312 330 346 309 369 397 191 86 19 146 45 47 54 170 158 180 133 74 19 0 0 0 0 0 0 0 0 12 1
60 35 58 62 80 135 88 172 164 217 245 262 327 322 313 254 292 333 345 337 259 89 22 22 61 175 263 242 242 199 87 66 29 0 0 0 0 0 0 0 0 0 0
68 6 34 77 100 133 106 130 116 170 167 122 210 187 124 158 192 235 279 303 247 104 34 16 81 40 179 156 146 107 169 126 1 0 0 0 0 0 0 0 0 0 0
0 51 71 90 190 195 113 144 46 112 56 90 64 15 51 103 68 76 58 110 156 118 73 29 1 1 0 30 30 16 0 0 0 11 0 0 0 0 0 0 0 0 0
0 0 0 0 135 226 215 161 124 111 79 94 132 49 18 38 18 7 40 23 98 28 0 0 0 0 0 0 0 0 0 0 0 0 0 0 0 0 0 0 0 0 0

GFSSE_con_sbcape_084.txt.gz
CAPE
981 1085 1868 1367 1031 1013 813 632 560 1007 1635 1621 1238 1074 1218 1175 1032 787 295 96 70 35 15 397 500 612 352 10 8 4 3 1 9 0 1 1 7 107 157 158 218 19 147
1042 1114 1924 1702 1184 1063 1036 938 871 692 1164 1600 1440 1028 1134 1191 1123 677 208 46 20 12 16 119 92 613 184 8 2 0 0 0 0 0 0 0 0 0 0 0 24 3 6
904 973 1429 1767 1608 1559 1452 1417 1259 930 889 1610 1323 1446 1319 1309 927 502 138 84 292 76 28 89 182 189 51 6 0 0 0 0 0 0 0 0 0 0 0 0 1 1 8
814 946 914 1624 1662 1601 1647 1325 1264 1092 924 1402 1226 1293 1423 1234 837 305 105 263 800 353 93 13 35 373 76 4 0 0 0 0 0 0 0 0 0 3 2 2 3 1 0
890 782 987 1612 1588 1609 1390 1206 985 1012 1136 1043 1178 1185 1163 1263 623 260 338 563 526 266 22 18 51 315 140 1 0 0 0 0 0 1 0 0 0 2 2 1 0 0 1
872 773 1378 1402 1346 1513 1512 1227 879 813 1019 1137 1088 1051 1107 1117 640 241 544 32 286 25 47 112 99 178 284 45 0 0 0 0 0 0 0 0 0 4 1 1 1 1 1
715 1161 1175 1083 1226 1491 1501 1188 911 775 976 1459 1196 1089 951 768 461 499 90 84 23 73 229 527 171 131 184 64 2 0 0 0 0 0 0 0 0 5 5 0 0 1 1
12 576 886 830 1138 1343 1290 974 720 855 797 1483 1062 1118 744 671 249 286 13 18 59 47 77 98 245 172 161 85 2 0 0 0 0 0 0 0 1 4 4 1 0 0 0
0 0 427 630 695 908 789 598 549 929 712 817 916 677 476 330 179 19 125 26 8 40 34 17 2 5 10 11 0 0 0 0 0 0 0 0 0 1 0 0 0 0 0
0 0 0 100 460 537 343 341 288 567 480 520 427 197 16 13 39 31 7 69 6 81 55 20 0 0 0 0 0 0 0 0 0 0 0 0 0 0 0 0 0 0 0
0 2 7 10 0 1 420 138 167 244 157 90 10 0 0 0 0 2 3 15 52 80 60 4 0 0 0 0 0 0 0 0 0 0 0 0 0 0 0 5 0 0 0
0 0 0 0 0 1 1 105 6 11 0 1 0 0 0 0 1 1 5 3 40 54 33 21 0 0 0 0 0 0 0 0 0 0 0 0 0 0 0 19 27 35 24
0 0 0 6 4 1 4 37 7 0 0 0 0 0 0 0 0 2 0 0 0 0 0 1 0 0 0 0 0 0 0 0 0 0 0 0 0 0 13 3 20 43 72
0 0 0 0 5 0 13 17 37 0 0 0 0 0 0 0 0 0 0 0 0 0 0 0 0 0 0 0 0 0 0 0 0 0 0 0 0 0 0 18 29 26 34
12 0 0 0 0 3 14 10 53 0 0 0 0 0 0 0 0 0 0 0 0 0 0 0 0 0 0 0 0 0 0 0 0 0 0 0 1 11 4 18 37 68 56
15 0 20 28 32 2 1 4 93 202 0 0 0 0 0 0 0 0 0 0 0 0 0 0 0 0 0 0 0 0 0 0 0 2 1 0 0 6 27 21 41 52 73
5 19 15 29 10 0 30 0 131 237 128 0 0 0 0 0 0 0 0 0 0 0 0 0 0 0 0 0 0 0 0 0 4 0 0 0 0 0 7 20 29 21 31
21 29 38 44 26 26 80 20 99 165 127 155 6 0 5 0 0 0 0 0 0 0 0 0 0 0 0 0 0 0 1 0 1 0 2 3 0 0 0 3 9 0 0
28 18 16 17 15 15 20 0 75 135 149 188 253 323 154 112 69 52 61 75 57 18 0 0 0 0 0 0 0 0 4 0 2 0 0 0 0 0 0 0 0 0 0
25 49 58 30 45 64 5 24 97 177 219 219 295 381 414 371 315 218 80 79 111 79 26 15 7 0 0 0 1 1 5 0 0 1 0 0 0 0 0 0 0 0 0
70 102 106 79 46 40 23 79 106 203 363 339 312 339 432 385 284 234 148 121 92 68 71 31 24 16 0 0 45 19 22 6 0 1 0 0 0 0 0 0 0 0 0
58 122 104 47 33 44 53 68 112 128 151 183 245 272 249 207 219 225 232 173 153 64 82 83 49 32 5 6 60 17 43 16 2 0 0 0 0 0 0 0 0 0 0
6 17 41 39 59 50 42 52 67 84 93 124 187 158 72 155 230 294 281 292 244 118 76 96 75 46 63 59 88 22 17 0 0 0 0 0 0 0 0 0 0 0 0
56 9 31 54 29 26 41 27 47 96 101 83 133 129 79 122 203 238 260 224 224 171 133 74 77 54 52 25 40 63 31 23 0 0 0 0 0 0 0 0 0 0 0
0 17 43 27 64 78 71 72 73 69 64 80 100 67 21 63 28 64 134 151 185 180 144 104 55 56 30 44 35 6 0 0 0 0 0 0 0 0 0 0 0 0 0
0 0 1 7 69 22 19 49 104 62 80 85 40 35 28 3 12 11 11 18 28 83 117 69 35 0 0 0 0 1 1 0 1 0 0 0 0 0 0 0 0 0 0

GFSSE_con_sbcape_087.txt.gz
CAPE
802 1181 1840 1332 1082 940 860 1085 1910 2194 1879 1715 1263 1239 1249 1148 1059 546 52 0 158 294 753 706 654 89 6 5 6 8 49 27 3 1 2 20 51 86 177 76 19 18 53
837 1193 1766 1529 1175 995 922 1087 1347 1849 1816 1839 1505 1140 1108 1154 911 483 154 38 25 191 668 602 530 27 4 1 0 0 0 0 0 0 0 0 0 0 0 0 6 5 5
1017 1357 1431 1688 1621 1570 1424 823 942 1203 1770 1668 1508 1351 1112 1282 951 298 118 55 162 160 49 587 343 6 2 0 0 0 0 0 0 0 0 0 0 0 1 0 0 4 4
1122 1385 1369 1851 1784 1666 1566 1009 834 565 1199 1619 1422 1445 1765 1288 772 234 120 231 472 259 159 38 261 2 2 0 0 0 0 0 0 0 0 0 0 4 3 3 2 0 0
1023 1143 1443 1883 1881 1766 1651 1163 858 778 894 1554 1499 1113 1428 1230 797 185 699 827 478 290 362 43 489 44 0 0 0 0 0 0 2 0 0 0 0 1 3 2 1 3 1
800 871 1575 1839 1863 1815 1528 1414 1032 1156 815 1303 1160 1218 1260 1003 803 646 847 585 33 14 15 13 404 92 1 0 0 0 0 0 0 0 0 0 0 3 4 3 3 3 1
400 1141 1432 1833 1686 1712 1404 1413 1291 965 976 1120 1113 1172 1033 1007 744 740 471 73 14 7 178 95 195 149 42 0 0 0 0 0 0 0 0 0 0 6 2 1 1 4 3
32 575 1210 1304 1181 1367 1159 1185 1051 979 852 1422 1045 1064 1109 801 882 514 130 11 18 212 535 179 106 151 77 17 0 0 0 0 0 0 0 0 3 3 1 0 0 1 1
0 0 0 1 122 658 832 679 789 918 626 1591 1036 883 834 573 578 29 17 46 104 155 158 363 317 166 99 39 0 0 0 0 0 0 0 0 0 2 1 0 0 0 0
1 0 0 0 0 0 0 1 200 679 540 634 717 508 271 164 207 107 42 109 138 174 66 32 16 0 4 0 0 0 0 0 0 0 0 0 0 0 0 0 0 0 0
2 3 1 1 0 0 0 0 0 243 308 240 331 99 1 0 2 17 12 26 59 73 39 0 0 0 0 0 0 0 0 0 0 0 0 0 0 0 0 0 0 0 0
0 0 1 3 1 0 0 0 0 4 174 201 63 0 0 0 0 1 8 9 45 50 26 0 0 0 0 0 0 0 0 0 0 0 0 0 0 0 0 5 14 19 8
0 0 0 0 0 0 0 0 0 0 24 144 7 0 0 0 0 0 0 3 6 0 0 0 0 0 0 0 0 0 0 0 0 0 0 0 0 14 0 0 24 37 47
0 0 0 0 0 0 2 0 0 12 16 68 16 0 0 0 0 0 0 0 0 0 0 0 0 0 0 0 0 0 0 0 0 0 0 0 6 5 20 20 14 26 34
0 0 0 0 1 1 1 4 9 14 16 41 3 3 0 0 0 0 0 0 0 0 0 0 0 0 0 0 0 0 0 0 0 0 0 0 3 17 12 12 23 35 56
17 10 0 0 4 5 15 2 39 21 13 3 20 1 0 0 0 0 0 0 0 0 0 0 0 0 0 0 0 0 0 0 0 0 0 0 3 8 36 25 29 42 42
57 2 20 5 27 0 10 3 45 103 0 0 2 0 1 0 0 0 0 0 0 0 0 0 0 0 0 0 0 0 0 0 0 0 0 0 0 0 11 66 30 24 21
39 35 40 55 34 5 41 12 132 64 57 4 0 0 0 0 0 0 0 0 0 0 0 0 0 0 0 0 0 0 0 0 1 3 0 0 0 0 0 28 106 4 0
65 41 62 68 33 95 57 87 85 121 107 97 22 0 0 0 0 0 0 0 0 0 0 0 0 0 0 0 0 0 0 0 3 0 0 0 0 0 0 0 0 0 0
46 26 32 40 19 111 22 37 90 118 96 99 86 93 0 0 0 0 0 0 0 0 0 0 0 0 0 0 0 0 1 0 0 1 0 0 0 0 0 0 0 0 3
126 69 90 75 49 125 61 41 2 19 124 109 100 267 220 163 125 64 37 54 83 44 18 11 3 0 0 0 5 0 1 0 0 0 0 0 0 0 0 0 0 0 0
54 106 123 90 67 116 60 61 24 1 20 27 89 91 151 199 228 167 115 105 100 64 62 71 61 32 2 0 4 4 55 19 2 0 0 0 0 0 0 0 0 0 0
18 6 125 114 78 60 9 24 26 7 11 36 56 37 23 63 139 123 139 156 144 74 68 63 78 78 106 73 30 27 27 32 0 0 0 0 0 0 0 0 0 0 0
1 2 31 49 20 34 9 8 1 8 14 47 36 27 31 5 20 92 122 166 221 149 103 94 66 48 55 83 30 24 26 18 0 0 0 0 0 0 0 0 0 0 0
0 0 1 3 31 23 12 7 5 27 5 22 45 32 46 26 8 22 83 124 128 118 116 120 75 59 56 55 51 24 25 0 0 0 0 0 0 0 0 0 0 0 0
0 0 0 0 3 13 2 20 49 58 45 22 7 8 29 5 9 8 24 24 15 47 120 112 83 43 17 17 0 3 0 0 0 0 0 0 0 0 0 0 0 0 0

GFSSE_con_sbcape_090.txt.gz
CAPE
739 1191 1906 1439 1370 1678 1849 2168 2250 1905 1741 1330 1287 1252 1330 1236 828 294 33 571 742 642 261 656 238 187 107 38 136 112 42 11 8 4 22 108 129 86 11 7 23 3 23
813 1271 1821 1584 1199 1232 1809 2165 2258 1969 1891 1760 1242 1144 1072 1010 573 112 40 493 589 926 778 546 55 11 2 4 9 6 0 0 0 0 0 0 0 0 0 3 15 5 5
993 1273 1390 1700 1630 1572 1533 1295 1672 1711 1654 1820 1663 1037 765 1088 632 240 38 204 492 927 718 375 13 2 0 0 0 0 0 0 0 0 0 0 0 3 3 2 3 6 6
1115 1250 1160 1785 1717 1374 1095 810 1014 1496 1423 1438 1472 1571 1441 1241 754 306 135 92 564 803 725 269 4 0 0 0 2 1 0 0 0 0 0 0 0 6 6 5 3 1 1
1139 1142 1293 1966 1885 1694 1265 911 548 659 1401 1409 1486 1360 1385 1179 825 205 360 583 409 348 815 181 1 0 0 0 0 0 0 0 0 0 0 0 0 3 3 3 3 4 4
1091 1057 1633 1830 1843 1710 1493 1251 885 511 578 1382 1266 1365 1219 973 859 358 826 642 430 281 328 412 32 0 0 0 0 0 0 0 0 0 0 0 0 3 5 4 5 4 3
588 909 1430 1307 1437 1902 1411 1441 1241 1150 929 1247 1358 1176 960 1038 969 1014 973 511 265 34 111 534 132 0 0 0 0 0 0 0 0 0 0 0 0 2 2 3 3 2 3
416 335 427 592 972 1235 918 929 1206 1004 788 990 1312 1175 1149 1053 768 969 789 29 32 123 188 333 233 26 0 0 0 0 0 0 0 0 0 0 3 2 0 0 0 0 0
0 0 0 0 0 0 7 2 84 664 678 771 1370 1049 774 659 524 709 264 132 110 153 406 381 195 142 21 0 0 0 0 0 0 0 0 0 3 1 0 0 0 0 0
0 0 0 0 0 0 0 0 0 0 89 444 988 523 415 224 179 329 131 85 259 571 783 562 350 194 91 29 0 0 0 0 0 0 0 0 0 1 0 0 0 0 0
1 0 0 0 0 0 0 0 0 0 0 58 392 273 154 92 44 9 4 36 165 218 146 121 136 75 28 0 0 0 0 0 0 0 0 0 0 0 0 0 0 0 0
2 2 1 3 1 0 0 0 0 0 0 0 145 44 37 19 14 1 2 22 87 78 47 48 23 14 0 0 0 0 0 0 0 0 0 0 0 0 0 0 1 6 1
4 0 1 0 0 0 0 1 0 0 0 0 39 47 1 1 0 0 5 7 10 2 0 0 2 0 0 0 0 0 0 0 0 0 0 0 35 18 7 16 16 22 36
0 0 0 0 0 0 0 0 0 0 0 0 25 47 12 0 0 0 5 2 0 0 0 0 0 0 0 0 0 0 0 0 0 0 0 0 38 34 32 18 19 23 28
24 0 0 0 0 0 1 0 0 0 0 0 11 42 48 7 0 0 0 0 0 0 0 0 0 0 0 0 0 0 0 0 0 0 0 0 0 54 78 40 35 28 33
43 4 0 0 0 0 0 1 6 2 1 0 2 24 15 1 3 0 0 0 0 0 0 0 0 0 0 0 0 0 0 0 0 0 0 0 1 8 66 46 32 31 50
32 0 0 3 0 0 0 0 8 16 0 5 0 49 2 4 4 0 0 0 0 0 0 0 0 0 0 0 0 0 0 0 0 0 0 0 0 0 20 76 134 56 32
17 22 24 28 12 3 0 0 0 5 66 34 18 40 0 0 14 4 0 0 0 0 0 0 0 0 0 0 0 0 0 0 0 0 0 0 0 1 6 16 142 144 8
66 44 50 36 44 15 2 0 7 66 37 2 3 3 0 0 0 1 0 0 0 0 0 0 0 0 0 0 0 0 0 0 0 0 0 0 0 1 0 0 0 6 0
87 91 75 70 39 3 44 33 44 110 48 37 1 0 13 0 0 0 0 0 0 0 0 0 0 0 0 0 0 0 0 0 0 0 0 0 0 0 0 0 0 0 0
94 70 72 49 30 3 24 20 52 97 133 38 19 11 11 26 0 0 0 0 0 0 0 0 0 0 0 0 0 0 0 0 0 0 0 0 0 0 0 0 0 0 0
193 188 61 58 47 33 60 38 62 85 90 108 51 43 38 78 61 13 12 27 16 6 3 0 0 6 3 0 3 3 14 3 0 0 0 0 0 0 0 0 0 0 0
7 63 121 171 52 28 74 39 46 59 22 33 46 75 54 74 133 177 132 141 104 78 72 66 60 68 47 15 0 16 17 33 0 0 0 0 0 0 0 0 0 0 0
1 0 0 9 28 40 56 36 39 22 26 12 3 10 34 42 39 39 72 75 103 66 72 102 84 71 71 62 15 19 18 6 1 2 0 0 0 0 0 0 0 0 0
1 1 0 2 2 25 31 38 3 23 9 22 10 8 2 6 26 15 10 27 54 70 51 36 30 41 32 46 36 6 19 4 0 0 0 0 0 0 0 0 0 0 0
1 2 2 1 2 1 3 2 9 11 11 3 4 1 7 2 10 9 6 15 23 52 46 88 10 9 16 32 21 16 0 5 0 0 0 0 0 0 0 0 0 0 0

GFSSE_con_sbcape_093.txt.gz
CAPE
538 1017 1878 1695 1973 2044 2041 1756 1669 1691 1701 1464 905 910 1074 986 724 208 105 208 211 262 543 467 408 147 101 67 74 201 85 4 4 42 54 257 61 7 0 0 0 1 182
630 1219 1804 1635 1790 1942 2043 2283 2094 1866 1829 1694 1143 869 639 800 455 138 729 775 597 373 787 386 360 189 18 108 7 0 2 1 0 0 0 0 6 1 3 7 8 2 25
930 1205 1320 1656 1705 1672 1826 2116 2104 2017 1953 1796 1528 639 1206 884 327 142 727 781 1008 874 628 84 10 6 7 11 0 0 0 0 0 0 0 0 0 3 1 4 5 4 3
1027 1193 1153 1693 1617 1365 1447 1729 1570 1694 1619 1754 1585 1284 1271 964 415 99 533 660 1001 789 413 8 4 0 0 2 3 2 0 0 0 0 0 0 0 6 6 4 1 1 1
992 1108 1182 1834 1752 1524 1159 1104 1475 1457 1398 1424 1394 1496 1390 1107 759 264 187 850 1191 920 571 4 0 1 5 6 4 0 0 0 0 0 0 0 0 2 5 5 4 5 2
948 926 1511 1869 1883 1698 1474 1097 625 1143 1292 1196 1257 1357 1255 1005 910 335 710 753 579 916 348 10 0 0 5 5 0 0 0 0 0 0 0 0 0 6 8 7 5 6 4
904 1020 1523 2003 1990 1782 1511 1387 1171 676 685 1283 1430 1116 1044 1015 808 823 790 729 356 551 447 22 0 0 0 0 0 0 0 0 0 0 0 0 0 5 6 8 6 5 5
501 931 1037 1307 1522 1481 1237 1192 1329 1094 985 1107 1320 1318 1247 1092 1136 994 998 536 331 51 628 171 0 0 0 0 0 0 0 0 0 0 0 0 3 3 3 4 2 2 3
0 0 0 17 110 38 12 72 161 173 291 452 1049 1186 1124 808 760 835 758 372 191 130 123 591 48 0 0 0 0 0 0 0 0 0 0 0 6 4 0 0 0 0 0
1 0 0 0 0 0 0 0 0 0 0 0 448 1046 616 379 475 433 439 157 18 44 276 521 251 38 1 0 0 0 0 0 0 0 0 0 3 3 0 0 0 0 0
1 0 0 0 0 0 0 0 0 0 0 0 27 573 430 159 141 45 6 7 48 288 461 458 417 357 99 4 0 0 0 0 0 0 0 0 0 1 2 0 0 0 0
1 3 1 0 0 0 0 0 0 0 0 0 0 63 57 63 45 1 0 1 47 303 446 577 384 187 6 0 0 0 0 0 0 0 0 0 0 0 9 0 0 3 0
0 0 0 0 0 0 0 0 0 0 0 0 0 86 16 10 0 0 0 7 35 42 27 45 13 0 0 0 0 0 0 0 0 0 0 0 34 16 17 23 17 29 41
6 1 0 0 0 0 0 0 0 0 0 0 0 75 37 2 0 0 0 1 21 6 0 0 0 0 0 0 0 0 0 0 0 0 0 0 96 42 26 24 30 36 56
7 9 1 0 0 0 0 0 0 0 0 0 0 86 53 7 0 0 3 1 0 0 0 0 0 0 0 0 0 0 0 0 0 0 0 0 0 171 213 45 34 39 45
0 0 0 0 0 0 0 0 0 0 0 0 0 37 111 55 3 3 2 0 1 0 0 0 0 0 0 0 0 0 0 0 0 0 0 0 0 5 159 156 52 33 28
9 0 0 0 0 0 0 0 0 0 0 0 0 1 84 67 14 2 3 4 0 0 4 0 0 0 0 0 0 0 0 0 0 0 0 0 0 0 19 108 130 72 36
1 1 0 0 0 0 0 0 0 0 0 0 0 0 25 57 45 1 7 2 19 23 33 0 0 0 0 0 0 0 0 0 0 0 0 0 0 0 0 33 165 242 126
22 40 16 0 0 3 0 0 0 0 0 4 2 5 20 62 37 22 0 1 61 16 0 0 0 0 0 0 0 0 0 0 0 0 0 0 0 0 0 0 2 45 78
50 45 14 10 11 6 0 1 8 26 2 2 16 104 66 58 57 51 5 1 27 24 8 0 0 0 0 0 0 0 0 0 0 0 0 0 0 0 0 0 0 0 0
86 80 29 28 35 0 0 2 3 4 8 25 79 96 53 53 2 1 1 11 0 16 20 0 0 0 0 0 0 0 0 0 0 0 0 0 0 0 0 0 0 0 0
84 86 78 59 55 20 2 0 1 19 36 56 35 79 34 12 0 1 0 0 3 1 35 18 2 0 0 0 0 0 17 4 0 0 0 0 0 0 0 0 0 0 0
11 6 71 140 137 55 13 13 18 34 33 52 68 51 54 38 7 13 1 0 0 2 0 4 5 0 0 0 0 16 14 15 0 0 0 0 0 0 0 0 0 0 0
0 0 13 41 65 9 29 48 47 15 12 23 12 43 24 42 10 28 52 66 55 49 48 30 23 17 28 48 11 1 3 0 0 0 0 0 0 0 0 0 0 0 0
1 3 2 1 3 1 36 57 22 31 11 18 7 6 22 22 9 16 2 15 34 35 26 41 47 31 58 57 33 24 14 14 0 0 0 0 0 0 0 0 0 0 0
1 2 0 2 3 3 2 3 1 18 2 18 7 1 1 3 6 1 2 6 26 46 57 35 20 23 15 9 14 6 10 22 6 0 0 0 0 0 0 0 0 0 0

GFSSE_con_sbcape_096.txt.gz
CAPE
430 915 1906 1975 1871 1908 1692 1366 1611 1856 1939 1965 1272 1288 1072 1088 860 491 167 203 248 511 902 676 542 491 394 232 291 68 19 107 146 118 166 193 5 3 1 0 8 13 157
434 1122 1982 2184 2147 2116 2085 1842 1841 1808 1735 1582 1342 1209 1130 820 578 140 245 226 338 706 668 418 19 248 13 11 128 40 2 0 0 0 0 0 4 2 2 0 13 4 7
785 1302 1549 2137 2093 1899 1988 1794 2003 1961 1812 1552 820 699 639 697 313 454 645 695 456 840 674 263 39 12 89 1 0 0 0 0 0 0 0 0 0 1 3 3 2 4 5
1041 1174 1205 1996 2004 1912 1898 1816 1791 1667 1717 1727 1296 938 737 782 270 574 656 980 999 682 227 16 6 8 13 1 0 0 0 0 0 0 0 0 0 5 4 2 1 1 1
1000 1072 1162 1924 1946 1958 1733 1873 1603 1710 1517 1438 1457 1393 1366 904 396 390 819 1214 1026 762 279 2 2 12 7 5 2 1 0 0 0 0 0 0 0 3 6 4 2 4 2
875 918 1417 1809 1892 1746 1628 1652 1615 1482 1346 1423 1138 1258 1158 1161 701 370 979 1222 954 648 113 0 3 11 108 25 0 0 0 0 0 0 0 0 0 8 8 7 7 6 4
765 816 1416 1810 1857 1757 1471 1305 1255 1296 1442 1323 1204 981 992 1037 842 866 865 972 1076 845 119 0 3 15 5 1 0 0 0 0 0 0 0 0 0 7 8 7 7 6 4
600 685 1147 1192 1431 1702 1651 1528 1331 1067 721 1159 1457 1378 1161 936 1159 934 962 871 1080 745 188 0 1 3 0 1 0 0 0 0 0 0 0 0 4 5 6 4 3 3 5
1 70 107 486 590 484 584 585 376 246 149 156 1037 1191 1156 825 749 856 869 834 701 727 569 128 2 0 0 1 0 0 0 0 0 0 0 0 12 3 2 0 0 0 1
1 1 0 0 0 0 0 0 0 0 0 27 273 807 702 620 525 512 508 551 417 139 536 487 115 4 7 1 0 0 0 0 0 0 0 0 7 4 0 0 0 0 0
0 0 1 1 0 0 0 0 0 0 0 0 147 485 674 217 214 222 189 149 150 115 113 654 397 131 32 0 0 0 0 0 0 0 0 0 5 6 0 0 0 0 0
0 0 1 0 0 0 0 0 0 0 0 0 7 84 63 62 63 124 42 23 22 35 55 335 471 354 25 0 0 0 0 0 0 0 0 0 27 14 17 0 0 0 0
0 0 1 0 0 0 0 0 0 0 0 0 0 12 57 72 31 2 0 2 0 0 27 92 116 37 0 0 0 0 0 0 0 0 0 0 17 20 16 14 0 17 13
0 0 0 0 0 0 0 0 0 0 0 0 0 1 35 46 24 13 2 1 0 0 22 13 9 1 0 0 0 0 0 0 0 0 0 0 11 72 44 39 31 28 26
0 0 0 0 0 0 0 0 0 0 0 0 0 1 105 99 78 63 14 5 13 0 2 0 2 0 0 0 0 0 0 0 0 0 0 0 0 86 193 66 56 51 59
0 0 0 0 0 0 0 0 0 0 0 0 0 0 64 73 75 93 66 17 28 8 0 2 0 0 0 0 0 0 0 0 0 0 0 0 0 0 91 216 158 109 75
0 0 0 0 0 0 0 0 0 0 0 0 0 0 5 51 38 52 78 42 20 0 0 3 0 0 0 0 0 0 0 0 0 0 0 0 0 0 3 35 341 196 123
0 0 0 0 0 0 0 0 0 0 0 0 0 0 0 9 6 8 34 67 24 1 0 1 0 14 0 0 0 0 0 0 0 0 0 0 0 0 0 5 113 358 253
0 0 0 0 0 0 0 0 0 0 0 0 0 0 0 0 12 23 27 43 17 1 1 1 0 0 5 0 0 0 0 0 0 0 0 0 0 0 0 0 0 45 144
0 0 2 0 0 0 0 0 0 0 1 1 1 1 1 0 0 17 35 77 2 1 0 4 4 5 0 1 0 0 0 0 0 0 0 0 0 0 0 0 0 0 12
58 42 31 25 5 2 1 0 0 4 0 1 0 1 1 3 3 18 57 85 0 0 0 0 0 0 1 0 0 0 0 0 0 0 0 0 0 0 0 0 0 0 0
143 118 85 58 33 15 0 0 0 0 0 0 0 0 2 18 32 106 94 97 0 0 0 0 1 0 3 9 0 0 6 0 0 0 0 0 0 0 0 0 0 0 0
48 29 58 75 77 46 18 5 0 0 0 0 0 4 10 15 20 16 12 19 1 0 0 0 0 7 1 7 29 24 23 11 0 0 0 0 0 0 0 0 0 0 0
19 4 64 39 0 1 0 5 0 10 6 2 0 1 1 7 11 1 3 0 1 1 29 0 1 26 51 45 37 16 17 0 16 14 0 0 0 0 0 0 0 0 0
2 2 2 0 0 1 1 26 70 20 10 3 1 0 6 8 14 5 6 4 8 4 15 10 69 75 58 68 83 62 44 29 0 1 10 0 0 0 0 0 0 0 0
1 1 0 0 0 0 3 2 1 1 1 1 2 1 4 2 1 1 1 1 1 6 18 6 15 36 79 112 96 39 73 50 21 10 6 0 0 0 0 0 0 0 0

GFSSE_con_sbcape_099.txt.gz
CAPE
652 1421 2270 2128 1673 1810 1660 1538 1891 2016 1999 1791 1621 1570 1530 1026 755 402 190 205 420 797 748 692 700 560 532 453 402 331 303 331 398 179 217 50 3 1 0 18 174 85 294
627 1400 2190 2223 2251 2227 2040 2079 2111 2103 2060 1945 1676 1468 1319 1098 740 545 240 302 625 1024 820 635 609 520 486 252 25 109 63 1 0 0 0 0 4 2 0 0 8 6 8
835 1450 1342 2195 2370 2336 2003 2020 1962 2037 1905 1886 1682 1593 1435 1149 640 286 266 340 717 1006 612 161 216 26 17 95 9 0 0 0 0 0 0 0 0 2 2 0 0 3 3
1069 1561 1286 1961 2012 2105 2020 1921 1920 1901 1864 1613 1046 1364 1164 1008 385 354 578 494 999 1067 761 211 203 271 1 0 0 0 0 0 0 0 0 0 0 3 1 1 1 1 1
1169 1462 1259 1978 1754 1745 1897 2018 1988 1914 1871 1760 1570 1168 1283 891 529 583 1153 1285 983 900 614 332 245 209 0 0 0 0 0 0 0 0 0 2 2 5 5 4 4 2 2
1184 1408 1416 1921 1807 1766 1819 1969 1858 1708 1701 1723 1665 1491 1219 1184 670 1044 1228 829 803 525 297 9 35 38 106 17 2 0 0 0 0 0 0 0 4 7 5 3 3 3 3
710 1255 1367 1591 1736 1500 1580 1506 1817 1871 1677 1531 1277 1225 1007 1013 875 1140 1152 1016 871 606 86 0 2 5 30 29 0 0 0 0 0 0 0 2 7 7 4 4 3 3 2
6 748 1095 1015 1415 1531 1524 1442 1279 1424 1427 1260 1440 1369 1217 1249 921 1066 1127 902 796 530 33 0 21 32 21 0 1 46 0 0 0 0 0 1 10 6 6 3 3 3 3
0 2 770 1085 1028 1242 1200 1081 936 838 373 247 808 1433 1326 1013 1083 861 745 789 823 691 300 54 184 137 19 50 0 125 0 0 0 0 0 1 8 6 3 1 1 2 2
0 0 2 124 543 644 418 73 33 28 17 30 330 895 889 812 774 638 398 545 786 680 481 176 195 152 130 157 2 0 0 0 0 0 0 0 7 5 1 0 0 0 0
0 0 0 2 1 7 4 0 3 4 0 37 174 470 587 779 770 541 263 166 350 494 516 404 227 139 71 46 0 0 0 0 0 0 0 0 10 8 1 0 0 0 0
0 0 0 0 0 1 0 0 0 0 0 4 259 471 549 622 583 482 315 151 273 215 152 469 422 173 15 13 0 0 0 0 0 0 0 0 1 17 12 0 0 0 0
0 0 0 0 0 0 0 0 0 0 0 0 0 153 171 230 346 466 434 323 254 25 61 16 253 117 0 0 0 0 0 0 0 0 0 0 0 52 43 32 11 0 0
0 0 0 0 0 0 0 0 0 2 0 0 0 0 61 271 175 430 325 301 135 65 93 75 102 184 107 4 0 0 0 0 0 0 0 0 0 97 55 52 31 29 29
0 0 0 5 0 1 0 0 0 2 0 0 0 0 38 72 99 178 276 244 152 83 106 306 138 119 83 11 0 0 0 0 0 0 0 0 0 52 189 142 86 67 59
0 0 0 1 13 2 1 0 0 0 0 0 0 0 0 50 111 114 133 162 261 189 216 140 85 59 3 0 0 0 0 0 0 0 0 0 0 0 69 214 190 170 152
0 0 0 0 1 6 1 1 1 0 0 0 0 0 0 0 29 148 240 143 148 203 194 77 1 0 1 0 0 0 0 0 0 0 0 0 0 0 0 11 160 251 256
0 0 0 0 0 0 20 8 0 0 0 0 0 0 0 0 0 33 137 159 245 126 152 18 0 0 0 0 0 0 0 0 0 0 0 0 0 0 0 0 25 199 355
0 0 0 0 0 1 0 0 0 0 0 0 0 0 0 0 0 7 51 59 94 153 95 72 8 2 0 0 0 0 0 0 0 0 0 0 0 0 0 0 0 1 124
0 0 0 0 3 15 10 1 3 2 3 4 2 0 0 0 2 28 38 46 94 98 43 34 18 2 4 0 0 0 0 0 0 0 0 0 0 0 0 0 0 0 0
0 0 0 15 36 52 16 9 7 18 22 15 7 4 0 0 1 22 59 63 99 78 28 25 77 2 7 0 0 0 0 0 0 0 0 0 0 0 0 0 0 0 0
0 44 84 110 92 93 86 80 67 52 20 33 37 3 16 5 20 10 67 37 33 41 32 43 34 20 3 0 0 4 9 8 1 0 0 0 0 0 0 0 0 7 15
1 40 78 61 36 56 98 106 80 47 40 31 5 8 46 24 73 35 127 106 47 16 5 10 24 3 1 1 0 16 71 9 37 63 50 38 5 0 2 11 4 5 10
5 8 13 2 1 1 1 28 83 37 10 0 114 57 31 7 76 79 102 104 39 12 1 0 0 2 2 0 2 0 51 68 117 96 17 7 17 2 1 6 12 7 1
3 4 2 1 1 1 1 2 31 9 108 55 83 73 36 13 33 70 27 96 12 0 0 1 3 8 8 1 0 43 24 73 84 69 104 79 1 0 4 7 4 13 2
3 2 1 0 0 0 1 2 3 4 4 3 4 5 3 4 26 23 30 9 2 0 0 0 1 5 7 21 32 78 82 80 82 131 84 77 55 55 1 0 4 7 0

GFSSE_con_sbcape_102.txt.gz
CAPE
1153 1613 2092 1927 1700 1598 1586 1759 2085 2180 1941 2049 1847 1776 1389 1032 1008 353 165 407 328 333 216 423 482 590 601 617 472 503 439 402 413 126 233 170 41 54 57 64 344 295 375
818 1402 2127 2249 1994 1903 2029 2056 2394 2285 2145 2229 2028 1718 1522 1152 778 385 208 329 769 1120 804 877 723 673 606 406 374 266 233 153 29 0 0 0 15 0 0 0 188 36 88
1310 1298 1185 2022 2150 2279 2325 2261 2264 2318 2233 2150 2127 1643 1513 1375 951 655 384 404 1104 1061 952 980 757 538 433 108 138 151 32 0 0 0 0 0 0 1 0 0 0 4 2
1177 1296 1346 1822 2055 1989 2230 2012 2226 2131 2131 2006 1869 2003 1527 1288 911 481 339 424 1065 1013 1140 779 548 474 183 84 6 13 1 0 0 0 0 0 0 0 0 0 0 0 0
1175 1186 1332 1709 1813 1908 1867 1920 2088 2145 1974 1789 1606 1424 1356 1202 779 591 723 951 1282 951 958 731 575 43 2 1 0 0 0 0 0 0 0 1 4 1 3 1 1 0 0
448 1286 1273 1485 1574 1594 1576 1690 1861 1985 2001 1888 1758 1449 1463 1091 823 1036 1032 1341 1015 943 762 250 277 0 0 0 0 0 0 0 0 0 0 0 0 0 3 2 3 3 2
35 973 1131 1297 1338 1328 1367 1627 1823 1718 1563 1560 1293 1296 1118 979 1073 1302 962 756 849 812 358 103 142 27 21 24 2 0 0 0 0 0 0 0 4 6 6 5 3 3 4
1 20 1168 829 995 1190 1287 1416 1453 1502 1411 1202 1140 1104 1230 1170 1203 1136 980 924 865 465 135 37 61 68 92 75 20 4 0 0 0 0 0 4 4 7 6 5 3 3 3
4 0 291 944 826 832 1105 1152 1169 1114 1064 923 1243 1285 1260 1011 1012 1114 890 939 807 726 404 298 372 247 172 83 118 249 0 0 0 0 0 3 0 9 5 2 2 3 2
6 0 0 263 878 907 1027 763 693 771 438 343 503 802 1011 976 886 796 709 592 739 822 548 349 491 455 195 319 143 230 0 0 0 0 0 6 0 9 3 0 0 1 0
0 2 0 0 309 839 841 591 204 120 63 55 148 193 597 744 697 611 388 301 570 551 524 428 487 456 222 143 72 66 0 0 2 0 0 0 1 10 4 0 0 0 0
0 0 2 0 14 60 258 424 335 120 4 89 258 454 636 372 359 420 337 181 354 410 359 398 404 349 60 16 45 0 17 4 3 2 0 0 0 22 12 1 0 0 0
0 0 0 11 0 0 125 181 28 0 0 0 153 673 389 686 506 461 485 552 343 94 242 237 214 166 5 0 7 4 0 7 4 2 0 0 0 134 30 24 0 0 0
0 0 0 0 34 2 3 149 204 3 0 0 0 3 76 194 531 455 232 498 526 369 215 210 130 254 240 8 0 1 0 0 0 1 0 0 0 80 177 107 24 16 3
0 0 0 0 12 33 3 119 219 156 50 9 0 0 1 50 115 180 528 404 565 910 251 101 125 123 269 230 10 0 0 0 0 0 0 0 0 27 180 210 146 51 33
0 0 0 0 0 31 32 53 219 219 193 80 31 15 17 20 41 107 143 249 407 444 306 189 163 182 78 181 108 20 0 0 0 0 0 0 0 0 11 171 162 164 155
0 0 0 0 0 2 95 95 130 152 144 91 66 43 12 5 4 12 78 173 272 526 472 431 389 297 348 96 59 28 0 0 0 0 0 0 0 0 0 0 104 182 178
0 0 0 0 0 0 109 256 175 206 239 271 263 104 6 0 0 0 17 51 125 370 536 613 551 313 198 0 4 2 16 0 0 0 0 0 0 0 0 0 85 201 295
0 0 0 0 0 0 0 26 227 232 194 160 97 23 0 6 15 0 12 27 49 175 246 287 248 286 181 127 5 10 0 0 0 0 0 0 0 0 0 0 0 0 70
0 0 0 0 0 0 0 11 51 129 143 122 105 60 56 40 41 44 3 4 20 43 128 100 109 76 157 103 9 0 0 0 0 0 0 0 0 0 0 0 0 0 0
0 0 0 0 0 0 44 70 142 195 187 139 94 83 82 72 39 39 41 32 39 52 69 89 146 67 69 132 89 45 0 0 0 0 0 0 0 0 0 0 11 55 37
78 51 9 0 48 152 159 238 298 312 292 271 242 201 199 176 135 94 85 65 69 205 140 105 143 87 73 74 72 76 74 25 0 0 0 0 0 6 7 9 27 94 141
27 61 156 129 125 127 153 213 173 167 140 132 157 242 178 99 148 173 136 133 105 301 336 175 185 34 52 30 31 31 2 1 0 0 0 0 8 51 48 82 91 94 118
6 8 8 12 8 2 2 27 100 168 225 230 172 169 304 169 119 127 227 250 358 400 275 203 48 12 13 2 13 4 3 36 0 3 17 44 59 45 86 137 132 156 187
7 9 5 5 6 8 6 5 9 212 254 178 123 112 30 5 4 131 147 192 286 189 190 51 0 3 8 5 2 0 1 4 22 19 56 106 48 88 126 158 182 164 89
4 5 3 1 1 2 3 1 3 4 5 2 4 5 6 7 6 4 1 130 102 106 96 31 5 4 0 0 0 0 1 0 5 32 54 51 66 84 56 58 29 52 93

GFSSE_con_sbcape_105.txt.gz
CAPE
973 1494 2147 1999 1834 1751 1671 1992 2370 2487 2228 2080 1609 1530 1246 1103 1179 187 209 191 229 213 165 421 377 626 517 592 440 503 511 419 315 179 124 291 197 132 91 179 347 264 438
1294 1390 2156 2141 1854 1638 1654 2061 2401 2308 2355 2072 1992 1702 1500 1307 806 243 346 423 370 336 522 675 652 800 653 638 331 465 393 163 2 7 0 0 52 1 2 49 391 145 284
932 1238 1086 2148 2219 2266 2173 2113 2235 2283 2305 1887 2051 1807 1483 1419 951 512 262 384 910 1008 922 1073 804 681 559 364 171 90 141 39 0 0 0 0 0 0 0 0 0 0 1
965 1158 1342 2075 2088 2049 2143 2119 2217 2292 2010 2051 2115 1904 1653 1353 1264 932 517 392 1081 930 878 1117 913 587 371 46 141 87 18 0 0 0 0 0 0 0 0 0 1 1 0
867 1132 1108 1760 1819 1857 1916 1992 1997 1982 2067 1792 1844 1874 1676 1416 1225 743 488 611 1164 1015 922 1021 649 458 263 35 7 7 0 0 0 0 0 0 0 0 2 0 0 0 2
350 800 1511 1551 1622 1547 1348 1850 1670 1758 1682 1638 1533 1506 1443 1272 903 951 1330 1201 1262 871 792 847 363 95 16 0 0 0 0 0 0 0 0 0 5 0 0 0 0 1 4
252 574 709 1469 1536 1604 1521 1410 1328 1595 1775 1615 1595 1246 1193 1026 1041 1190 1023 1020 1125 758 692 409 320 28 0 0 0 0 0 0 0 0 0 0 0 1 4 3 2 2 4
120 307 729 1161 1339 1479 1512 1454 1491 1587 1403 1368 1398 1216 1190 1231 1170 962 933 873 930 743 523 311 329 127 27 64 58 24 0 0 0 0 1 6 0 1 5 4 2 1 2
2 96 360 1012 874 911 1068 1264 1458 1501 1547 1567 1245 1122 1074 1305 1409 1101 1142 906 967 778 688 486 470 247 127 146 107 184 14 0 0 0 0 7 0 4 4 1 1 3 3
0 2 61 244 894 860 940 934 1005 1100 1098 1139 1008 758 718 569 995 1094 999 797 1006 1008 603 514 522 486 427 309 287 242 7 0 0 0 0 17 15 1 4 1 1 3 3
0 0 0 34 181 733 979 892 552 610 471 171 144 114 319 481 566 597 372 350 640 904 732 537 661 633 359 150 152 145 0 0 0 0 0 14 0 3 6 1 0 1 1
0 0 0 0 32 145 406 677 727 354 300 205 134 140 228 157 196 233 215 156 425 624 582 595 598 535 143 0 10 0 5 0 1 5 0 10 0 3 13 2 1 1 0
0 0 0 0 0 17 126 269 438 441 242 26 44 158 230 331 689 529 454 407 510 231 353 258 151 29 7 0 0 0 0 0 3 10 6 6 0 114 48 0 0 1 1
0 0 0 0 0 4 32 82 251 338 103 1 0 11 198 503 571 372 157 210 691 524 304 248 283 114 51 10 0 0 0 0 0 5 9 0 0 0 185 152 25 0 1
0 0 0 0 0 0 61 43 132 384 223 42 6 0 0 63 290 334 213 404 817 638 720 281 230 159 279 123 16 0 0 0 0 0 0 0 0 0 0 250 228 145 8
0 0 0 0 0 0 53 70 89 177 238 174 114 62 0 0 38 87 102 161 240 435 615 264 163 139 78 110 155 10 0 0 0 0 0 0 0 0 27 14 369 178 178
0 0 0 0 0 0 0 54 118 65 157 197 155 222 101 42 45 51 98 127 123 125 187 559 224 148 328 181 105 151 2 0 0 0 0 0 0 0 0 0 6 204 338
0 0 0 0 0 0 0 16 147 185 179 376 323 270 263 143 64 23 33 72 126 180 227 281 499 517 473 608 258 209 78 0 0 0 0 0 0 0 0 0 5 99 321
0 0 0 0 0 0 0 1 256 220 345 362 477 396 342 234 112 49 40 59 64 169 199 335 454 371 436 431 362 315 111 11 0 0 0 0 0 0 0 0 0 0 41
4 3 0 0 0 0 0 0 7 95 356 455 328 236 169 121 66 68 48 61 86 148 164 221 218 346 315 357 136 159 133 58 3 0 0 0 0 0 0 0 0 0 0
15 9 19 0 0 0 0 0 1 52 182 341 313 237 147 144 127 183 160 101 139 123 115 123 75 193 183 222 123 109 48 11 0 0 0 0 0 0 0 0 6 19 4
8 10 8 86 11 0 0 93 146 310 330 443 417 305 318 275 286 268 282 253 275 213 129 156 187 117 210 159 128 114 47 30 14 0 0 0 0 0 0 0 4 4 15
6 10 6 27 89 144 84 325 494 354 291 328 338 243 369 284 258 203 281 264 320 318 253 284 281 213 127 129 173 96 46 8 15 10 0 0 0 0 0 0 0 7 33
4 10 6 12 11 7 2 45 144 275 456 467 394 335 342 95 24 7 16 67 244 385 369 346 319 283 248 140 172 129 102 2 0 0 29 0 0 0 0 0 2 18 52
4 10 8 7 11 7 5 5 6 3 7 8 44 48 18 3 1 1 3 5 4 207 261 247 260 249 249 180 112 50 40 31 0 0 0 33 10 0 0 14 56 82 99
7 5 4 3 3 7 3 2 3 3 2 2 3 6 4 4 4 2 3 6 5 6 147 252 246 147 114 63 77 10 0 1 0 0 0 3 22 1 4 12 30 96 103

GFSSE_con_sbcape_108.txt.gz
CAPE
1050 1094 2369 2098 2030 1909 1797 1949 2276 2543 2459 1948 1236 1192 1267 1162 793 134 180 230 241 189 239 411 435 545 465 357 568 460 510 487 352 261 253 355 269 163 303 313 524 285 468
864 1147 2150 2303 2049 1969 1949 2176 2251 2316 2408 2249 1961 1626 1171 1269 813 154 403 204 299 258 314 706 637 770 696 440 455 495 382 112 4 36 1 2 56 36 67 57 397 198 162
727 1399 1126 2280 2193 2097 2160 2039 2066 2078 2254 2097 1956 1868 1629 1419 843 312 268 381 621 516 767 876 848 858 800 233 410 273 189 42 0 0 0 0 0 0 0 0 0 2 6
552 896 1200 1894 1900 2032 2176 1840 1849 1944 2056 1872 1886 1845 1561 1375 1170 815 510 309 652 903 830 1118 1038 856 493 49 54 53 44 0 0 0 1 0 0 0 0 0 0 0 0
324 811 1028 1825 1960 1885 1660 2023 2040 1767 1712 1626 1470 1512 1507 1372 1295 1119 640 709 844 865 683 1068 1156 752 599 43 73 47 0 0 0 0 0 0 0 0 0 0 0 1 0
206 564 710 1424 1516 1597 1705 1641 1953 1959 1713 1559 1388 1632 1661 1554 1162 1111 1103 986 999 918 796 942 599 420 334 59 1 0 0 0 0 0 0 3 0 0 3 3 0 0 2
42 222 898 1312 1311 1578 1444 1384 1320 1517 1837 1775 1554 1504 1428 1470 1290 1039 1056 1029 1205 1060 959 690 347 120 10 0 0 0 0 0 0 0 0 0 0 0 1 1 1 3 5
10 36 270 935 1071 1289 1330 1210 1227 1253 1348 1556 1481 1495 1393 1485 1410 1192 1120 936 1172 962 891 706 420 111 0 0 0 0 0 0 0 0 0 0 14 0 4 3 0 1 3
0 0 4 51 585 848 1014 1158 1268 1436 1488 1497 1202 1302 1215 1345 1324 1318 1248 1127 1193 1160 872 653 825 349 102 103 298 153 0 0 0 0 0 0 56 0 3 1 1 1 3
0 0 0 0 48 511 672 791 943 1068 1056 1075 1031 880 680 653 805 1225 1046 967 1070 1197 977 797 745 685 464 426 355 234 0 0 0 0 0 2 147 0 1 0 1 2 3
0 0 0 0 0 23 368 699 559 628 672 571 486 433 379 311 408 571 566 467 682 967 1036 717 704 633 414 239 208 62 0 0 0 0 0 40 57 0 1 0 0 2 4
0 0 0 0 0 4 46 194 447 379 195 130 19 18 10 14 10 340 469 246 389 548 783 789 687 517 242 14 8 1 0 0 0 0 0 109 133 0 1 2 0 1 2
0 0 0 0 0 0 9 18 137 155 222 95 13 25 51 51 179 134 85 53 111 208 217 393 280 98 104 8 0 0 0 0 0 0 0 88 147 0 1 4 0 0 1
0 0 0 0 0 0 0 0 33 108 172 17 0 0 47 110 339 272 139 161 210 94 88 78 53 20 0 0 0 0 0 0 0 0 0 4 133 6 0 100 18 1 3
0 0 0 0 0 0 0 3 3 25 139 131 0 0 0 49 143 192 152 131 155 196 109 73 55 61 23 4 0 0 0 0 0 0 0 0 18 93 87 162 413 167 17
0 0 0 0 0 0 0 9 7 15 42 75 41 0 0 13 48 90 87 62 61 107 266 144 82 96 101 93 55 23 0 0 0 0 0 0 0 31 116 43 204 453 312
0 0 0 0 0 0 0 0 29 32 45 43 79 58 27 18 35 26 49 35 38 31 12 61 112 43 69 73 76 54 40 0 0 0 0 0 0 4 36 100 86 199 480
0 0 0 0 0 0 0 0 14 31 59 57 159 99 63 116 71 47 21 34 66 58 55 49 95 97 137 104 77 68 68 12 0 0 0 0 0 0 0 52 129 213 280
0 0 0 0 0 0 0 0 0 55 173 102 133 159 213 254 140 69 45 36 24 24 41 78 155 189 182 131 138 81 37 26 0 0 0 0 0 0 0 0 2 48 124
0 0 0 0 0 0 0 0 0 43 103 160 163 207 131 104 35 37 50 52 51 39 39 77 130 129 188 150 179 193 103 40 11 0 0 0 0 0 0 0 0 0 11
0 2 5 1 0 0 0 0 0 0 7 162 192 120 43 86 98 74 74 83 73 71 66 57 49 67 64 140 201 128 79 35 50 44 3 0 0 0 0 0 0 0 0
3 2 1 3 1 1 1 2 0 43 85 111 176 121 157 204 214 150 79 73 92 88 73 56 62 68 47 118 215 132 23 35 59 27 1 0 0 0 0 0 0 0 0
2 2 4 8 10 6 0 43 95 162 194 158 115 111 112 39 3 3 0 4 28 75 78 94 98 101 81 70 112 118 58 13 4 1 0 0 0 0 0 0 0 0 0
2 0 0 7 4 6 2 4 2 73 127 54 93 19 8 1 0 0 0 1 3 5 12 92 134 130 148 62 80 111 129 27 3 8 7 0 0 0 0 0 0 0 0
3 2 0 1 0 4 6 3 4 5 7 5 3 1 0 1 2 0 1 2 3 4 3 4 8 80 72 82 73 125 159 156 115 56 2 0 2 0 0 0 0 0 0
0 0 0 0 0 1 2 5 5 4 3 2 0 1 0 0 1 0 1 3 4 1 1 6 6 7 73 132 114 125 131 74 27 115 6 0 0 0 0 0 0 0 3

GFSSE_con_sbcape_111.txt.gz
CAPE
744 1000 1912 2270 2178 2041 1879 1972 2320 2198 2279 1757 1200 1181 1317 1047 383 162 252 327 215 185 439 464 537 394 280 607 422 354 650 517 487 417 337 380 360 374 447 448 361 252 289
556 1157 1563 2330 2138 1983 2012 2120 2013 2264 2073 2008 1610 1246 1125 1386 340 264 237 228 276 262 425 614 812 847 482 367 562 508 344 97 65 111 84 30 106 229 179 179 340 136 50
416 1111 1305 1914 2000 2274 2130 1815 1833 2157 1922 1925 1686 1650 1395 1381 693 279 448 353 397 414 601 788 805 953 474 178 503 236 141 9 0 5 0 0 0 0 0 0 20 24 11
310 789 1105 1583 1778 1972 2133 1656 1580 1831 2048 1741 1628 1612 1533 1423 1035 635 390 315 490 852 837 997 1033 828 320 211 4 131 64 0 0 0 0 0 0 0 0 0 0 0 0
153 459 866 1559 1557 1431 1837 2029 1846 1856 1737 1633 1772 1831 1751 1450 1362 1187 866 634 554 791 941 1088 1015 860 219 49 107 60 9 0 0 0 0 0 0 0 0 0 1 2 0
29 166 1025 1437 1232 1229 1239 1359 1786 1939 1819 1617 1558 1591 1661 1363 1020 1195 1164 834 673 830 896 939 823 511 466 80 41 21 0 0 0 0 0 0 0 0 2 3 0 0 1
0 45 261 1249 1186 1110 1258 1325 1419 1455 1414 1563 1599 1546 1520 1265 1256 1410 1388 1132 1134 1171 1000 742 707 429 250 107 0 0 0 0 0 0 0 0 0 0 0 0 0 2 3
0 0 38 197 693 1091 963 1021 1116 1131 1275 1498 1516 1521 1605 1378 1340 1240 1272 1150 1277 1098 947 836 517 279 89 2 0 0 0 0 0 0 0 0 4 0 0 1 0 1 2
0 0 0 1 82 512 666 826 1010 930 1152 1401 1074 1177 1211 1227 1377 1423 1317 1221 1268 1328 1336 1177 934 310 66 5 126 184 4 0 0 0 0 0 143 0 0 1 1 1 3
0 0 0 0 0 13 232 535 644 839 843 840 770 714 711 604 733 1267 1035 1016 1233 1366 1297 1078 1129 865 402 255 403 194 5 0 0 0 0 0 259 6 0 1 1 2 4
0 0 0 0 0 0 5 545 422 455 488 524 500 525 477 257 265 445 647 628 806 1028 1209 1067 946 921 518 226 299 97 8 0 0 0 0 0 168 0 0 0 2 7 7
0 0 0 0 0 0 0 0 139 462 158 98 79 28 13 19 62 268 308 277 362 625 796 1058 907 666 293 10 5 5 0 0 0 0 0 15 237 12 0 0 1 4 9
0 0 0 0 0 0 0 0 0 5 104 72 32 13 8 28 11 18 12 113 54 140 194 583 519 165 79 3 0 0 0 0 0 0 0 11 526 108 0 0 1 2 5
0 0 0 0 0 0 0 0 0 0 5 71 0 0 0 20 90 103 79 68 67 58 62 78 68 54 36 23 0 0 0 0 0 0 0 0 381 424 60 48 44 1 3
0 0 0 0 0 0 0 0 0 0 3 28 8 0 0 3 33 75 87 113 142 170 100 62 74 52 33 9 1 0 0 0 0 0 0 0 53 428 543 412 170 167 34
0 0 0 0 0 0 0 0 0 0 0 11 1 0 0 0 14 29 43 39 65 105 235 89 63 50 36 38 18 0 0 0 0 0 0 0 0 121 410 586 600 626 384
0 0 0 0 0 0 0 0 0 0 1 0 8 0 0 0 0 37 43 33 25 13 10 5 72 60 35 50 72 108 43 25 0 0 0 0 0 0 79 514 628 805 1027
0 0 0 0 0 0 0 0 0 0 0 4 0 41 4 2 0 0 15 40 51 33 14 4 28 40 37 28 26 26 26 17 10 0 0 0 0 1 2 96 240 445 761
0 0 0 0 0 0 0 0 0 0 0 15 40 108 106 67 67 2 3 0 12 15 24 40 49 100 115 71 28 58 32 28 15 17 0 0 0 0 0 0 23 100 188
0 0 0 0 0 0 0 0 0 0 0 39 141 187 179 114 13 9 0 0 0 1 10 28 65 68 97 104 112 114 94 67 0 7 3 0 0 0 0 0 0 0 31
0 1 1 0 1 0 0 2 0 0 0 0 120 148 233 113 24 0 0 1 0 2 15 23 34 64 81 64 90 76 57 45 25 44 5 3 0 0 0 0 0 0 0
0 0 3 5 2 1 7 1 5 0 0 6 106 32 15 11 1 2 2 1 1 0 21 30 33 29 25 37 111 104 31 2 3 7 78 47 0 0 0 0 0 0 0
0 0 1 10 2 4 4 3 0 8 10 8 13 34 7 5 6 2 1 1 0 0 0 1 26 51 56 46 62 165 47 7 0 3 0 59 50 13 0 0 0 0 0
0 1 0 1 0 0 0 7 5 4 5 6 6 4 13 7 5 3 2 0 1 1 1 1 1 3 9 11 69 31 66 61 31 22 6 14 28 23 0 0 0 0 0
0 0 0 0 0 0 0 0 5 2 4 9 10 4 4 7 2 1 0 0 1 3 3 1 0 2 4 8 25 58 40 65 51 93 25 15 17 13 0 0 0 0 0
0 0 0 0 0 0 0 0 1 3 2 3 2 1 0 0 0 0 0 0 0 0 2 2 0 0 1 2 5 4 15 66 16 102 90 34 18 12 6 0 0 0 0

GFSSE_con_sbcape_114.txt.gz
CAPE
166 972 1414 1937 2074 2059 1845 1904 1883 1772 1692 1644 1458 1338 1271 789 306 369 458 280 222 262 498 415 195 111 405 510 404 498 629 597 594 415 336 484 480 451 481 385 367 182 202
277 1084 1165 1628 1677 1730 1915 2000 2037 2072 1953 1766 1212 1196 1205 980 251 309 249 253 298 375 582 773 753 591 560 607 578 514 121 92 121 73 56 32 247 337 246 405 335 82 47
316 651 1043 1550 1494 1543 1610 1616 1884 2040 1767 1840 1588 1458 1246 1257 408 507 341 376 412 391 547 833 850 808 353 719 526 311 53 0 0 0 0 0 0 5 36 38 73 79 6
197 377 902 1524 1391 1720 1670 1472 1496 2002 1903 1781 1736 1466 1404 1331 887 511 448 404 621 888 874 936 1045 650 237 103 192 233 72 0 0 0 0 0 0 0 0 0 0 1 1
17 195 862 1425 1285 1431 1643 1614 1547 1770 1822 1796 1771 1803 1624 1395 1348 1044 830 593 541 803 913 1090 1041 819 397 223 3 125 27 0 0 0 0 0 0 0 0 0 0 0 0
0 94 646 1303 1284 1007 1225 1271 1625 1791 1816 1700 1586 1815 1725 1433 1317 1243 1245 1077 653 842 1051 1171 1063 548 450 228 209 143 19 0 0 0 0 0 0 0 0 0 0 0 0
0 0 50 605 859 1180 1006 1024 1219 1337 1500 1691 1646 1466 1357 1235 1320 1335 1259 1112 1003 1125 953 943 943 551 197 148 133 60 0 0 0 0 0 0 0 0 0 0 0 1 1
0 0 0 71 430 802 952 912 966 1034 1277 1339 1288 1227 1512 1410 1449 1428 1407 1389 1272 1050 1076 1027 997 693 361 215 79 15 0 0 0 0 0 0 5 0 0 1 0 1 1
0 0 0 0 0 100 482 568 820 1011 955 894 989 993 986 1151 1253 1221 1310 1335 1347 1318 1393 1366 1207 775 335 100 65 53 3 0 0 0 0 0 39 0 0 0 0 2 3
0 0 0 0 0 0 0 236 413 673 826 853 784 615 525 609 620 1052 971 1095 1362 1389 1338 1321 1280 1038 589 250 139 175 0 0 0 0 0 0 3 92 1 0 0 2 4
0 0 0 0 0 0 0 0 23 361 392 376 408 407 394 244 209 245 430 633 734 1160 1306 1276 1090 1001 644 206 207 177 0 0 0 0 0 0 4 192 68 0 0 3 7
0 0 0 0 0 0 0 0 0 0 120 74 90 93 36 40 66 157 176 233 311 660 814 1190 1156 792 564 51 32 79 4 0 0 0 0 0 0 243 153 54 0 1 5
0 0 0 0 0 0 0 0 0 0 0 16 7 0 0 0 0 0 1 26 69 114 214 461 666 498 138 27 7 2 2 0 0 0 0 0 0 238 167 163 0 1 4
0 0 0 0 0 0 0 0 0 0 0 1 8 0 0 0 3 21 46 46 35 72 103 91 127 131 54 38 10 0 0 0 0 0 0 0 3 127 566 274 148 49 4
0 0 0 0 0 0 0 0 0 0 0 0 4 7 0 0 0 0 13 48 188 175 144 104 122 59 78 43 41 8 0 0 0 0 0 0 0 234 825 913 354 193 107
0 0 0 0 0 0 0 0 0 0 0 0 0 2 9 0 0 0 0 13 49 167 270 123 72 52 94 74 62 27 7 0 0 0 0 0 0 44 425 779 899 626 282
0 0 0 0 0 0 0 0 0 0 0 0 0 0 10 3 0 0 0 0 7 10 80 181 88 60 48 31 68 81 13 0 0 0 0 0 0 0 104 476 657 578 825
0 0 0 0 0 0 0 0 0 0 0 0 0 0 0 24 5 0 0 0 12 8 4 0 11 27 46 23 30 51 108 11 17 1 0 0 0 0 0 119 298 650 653
0 0 0 0 0 0 0 0 0 0 0 0 0 0 0 16 85 0 0 0 0 0 0 2 6 20 23 17 11 8 5 0 11 48 9 0 0 0 0 0 11 125 245
0 0 0 0 0 0 0 0 0 0 0 0 0 0 20 81 138 45 9 0 0 0 0 0 0 4 21 19 21 41 11 0 0 0 12 2 0 0 0 0 0 2 38
0 0 2 0 0 0 0 0 0 1 0 0 0 2 1 2 2 1 4 3 1 0 0 0 0 0 12 23 33 27 17 22 23 21 23 32 0 0 0 0 0 0 0
0 0 0 0 0 0 3 3 4 0 0 0 1 1 0 0 1 3 3 4 3 5 4 3 3 1 0 16 53 29 3 0 0 10 22 33 22 6 0 0 0 0 0
0 0 0 0 0 0 0 4 1 0 0 0 3 8 3 0 4 3 5 8 4 4 5 4 3 1 4 1 3 83 16 1 0 0 0 3 11 13 21 0 0 0 0
0 0 0 0 0 0 0 1 1 5 2 8 9 10 6 1 2 5 4 3 3 3 2 4 0 5 4 5 8 10 15 44 22 9 0 2 23 35 45 4 0 0 0
0 0 0 0 0 0 0 0 1 3 6 3 3 4 5 6 2 0 0 0 1 2 2 2 0 0 1 1 4 4 1 0 19 49 24 3 10 24 32 28 10 0 0
0 0 0 0 0 0 0 0 0 0 0 0 0 0 0 0 0 0 0 0 0 0 0 6 5 3 3 1 3 3 7 6 3 12 14 5 11 6 15 13 1 0 0

GFSSE_con_sbcape_117.txt.gz
CAPE
44 809 1486 1509 1393 1581 1758 1604 1700 1563 1561 1564 1392 1370 1099 540 363 499 301 184 232 337 355 253 76 89 294 411 504 534 464 571 644 530 488 594 503 471 479 411 351 138 154
102 552 1639 1454 1316 1354 1412 1442 1496 1500 1753 1488 1410 1413 1201 436 263 264 329 265 304 538 644 558 400 224 554 594 485 351 306 291 112 21 54 149 377 367 436 324 286 66 26
100 353 946 1356 1354 1398 1372 1408 1619 1747 1652 1561 1547 1464 1209 804 386 401 235 333 404 425 628 797 792 340 608 674 611 184 0 1 9 0 0 0 0 115 99 134 145 9 3
9 173 830 1507 1258 1301 1327 1394 1457 1777 1672 1504 1498 1384 1435 1267 743 564 449 427 668 879 972 898 974 623 521 553 416 269 3 0 0 0 0 0 0 0 0 0 0 1 2
0 106 641 1273 1080 1020 1319 1356 1305 1351 1634 1520 1627 1707 1453 1363 1262 967 729 520 589 843 777 934 1023 811 499 314 110 290 67 0 0 0 0 0 0 0 0 0 0 0 0
0 0 193 779 939 847 1122 1055 1252 1486 1522 1550 1439 1449 1493 1367 1384 1331 1146 1184 738 895 843 1129 1068 865 649 372 63 218 83 0 0 0 0 0 0 0 0 0 0 0 0
0 0 0 16 343 1077 902 739 922 1192 1347 1570 1434 1277 1373 1354 1318 1135 1202 1228 1034 823 934 1034 864 701 388 233 229 197 114 0 0 0 0 0 0 0 0 0 0 2 2
0 0 0 0 0 1 383 952 885 843 1234 1319 1375 1347 1395 1339 1371 1269 1236 1161 1223 961 983 1051 1099 881 543 245 247 200 114 0 0 0 0 0 0 26 0 0 0 0 2
0 0 0 0 0 0 0 21 513 716 1023 1005 1057 1087 1151 1070 1268 1135 1346 1357 1294 1224 1222 1302 1373 1013 856 539 464 308 18 0 0 0 0 0 0 149 14 0 1 1 2
0 0 0 0 0 0 0 0 0 121 515 816 784 625 443 426 588 934 990 966 1393 1391 1368 1292 1429 1248 886 702 480 174 2 0 0 0 0 0 0 167 123 9 0 1 2
0 0 0 0 0 0 0 0 0 0 2 112 128 200 214 121 135 139 185 344 595 1020 1265 1337 1290 1136 630 338 220 108 19 0 0 0 0 0 0 106 247 92 1 1 5
0 0 0 0 0 0 0 0 0 0 0 0 18 11 0 0 8 82 78 111 154 500 721 1156 1294 985 630 99 40 65 26 0 0 0 0 0 0 10 288 355 56 1 4
0 0 0 0 0 0 0 0 0 0 0 0 0 6 3 0 0 0 0 0 0 33 69 288 487 673 288 80 28 18 17 0 0 0 0 0 0 0 125 687 273 69 3
0 0 0 0 0 0 0 0 0 0 0 0 0 2 1 0 0 0 0 0 0 0 39 88 166 234 163 75 44 19 5 5 0 0 0 0 0 1 84 591 841 270 103
0 0 0 0 0 0 0 0 0 0 0 0 0 0 13 6 0 0 0 0 6 5 19 68 103 132 107 69 56 22 1 0 1 0 0 0 0 3 33 189 788 404 314
0 0 0 0 0 0 0 0 0 0 0 0 0 0 0 0 4 0 0 0 7 35 104 202 66 61 53 70 99 89 89 34 6 1 0 0 0 0 68 105 400 777 413
0 0 0 0 0 0 0 0 0 0 0 0 0 0 0 0 0 3 1 0 0 1 26 60 49 29 37 36 87 88 63 41 0 0 1 0 0 0 0 60 393 724 913
0 0 0 0 0 0 0 0 0 0 0 0 0 0 0 0 0 10 0 0 0 0 0 0 0 0 6 1 35 43 63 44 33 1 0 0 0 0 0 7 179 475 636
0 0 0 0 0 0 0 0 0 0 0 0 0 0 0 0 0 25 38 7 0 0 0 0 0 0 0 0 17 19 1 0 7 20 17 12 1 0 0 0 8 84 268
0 0 0 0 0 0 0 0 0 0 0 0 0 0 0 0 0 1 7 25 7 0 0 0 0 0 0 0 0 6 6 0 0 0 7 18 16 0 0 0 0 1 12
0 0 0 0 0 0 0 0 0 2 0 6 8 2 1 1 0 1 3 3 3 2 3 1 0 0 0 0 0 0 0 0 0 0 3 0 0 0 0 0 0 0 0
0 0 0 0 0 0 0 1 3 2 16 15 15 3 2 2 1 0 3 4 3 4 2 7 1 9 2 1 1 1 0 0 0 0 0 0 0 0 0 0 0 0 0
0 0 0 0 0 0 0 0 0 1 2 4 6 7 4 2 3 4 3 3 5 3 4 4 5 1 3 7 0 20 14 0 0 0 0 0 1 0 0 0 0 0 0
0 0 0 0 0 0 0 0 0 3 4 5 5 0 0 0 0 0 0 0 2 8 7 5 4 5 1 3 0 0 0 5 5 1 0 0 0 3 5 19 30 12 1
0 0 0 0 0 0 0 0 0 0 0 0 0 0 0 0 0 0 0 0 0 0 4 8 5 3 3 4 4 5 5 1 0 2 5 0 0 0 0 30 59 49 26
0 0 0 0 0 0 0 0 0 0 0 0 0 0 0 0 0 0 0 0 0 0 0 0 0 0 0 2 2 3 3 11 8 7 2 0 1 0 0 0 28 50 59